[[{"header":{"parameterUnit":"m.s-1","parameterCategory":1,"la1":31.0,"la2":29.5877,"lo1":-88.7671,"lo2":-86.6584,"dx":0.0162,"dy":0.0185,"nx":115,"ny":88,"refTime":"2023-01-18T06:00:00:Z","depth":0,"parameterNumber":2,"parameterNumberName":"U-component_of_WINDS"},"data":[0.0,0.0,0.0,0.0,0.0,0.0,0.0,0.0,0.0,0.0,0.0,0.0,0.0,0.0,0.0,0.0,0.0,0.0,0.0,0.0,0.0,0.0,0.0,0.0,0.0,0.0,0.0,0.0,0.0,0.0,0.0,0.0,0.0,0.0,0.0,0.0,0.0,0.0,0.0,0.0,0.0,0.0,0.0,0.0,0.0,0.0,0.0,0.0,0.0,0.0,0.0,0.0,0.0,0.0,0.0,0.0,0.0,0.0,0.0,0.0,0.0,0.0,0.0,0.0,0.0,0.0,0.0,0.0,0.0,0.0,0.0,0.0,0.0,0.0,0.0,0.0,0.0,0.0,0.0,0.0,0.0,0.0,0.0,0.0,0.0,0.0,0.0,0.0,0.0,0.0,0.0,0.0,0.0,0.0,0.0,0.0,0.0,0.0,0.0,0.0,0.0,0.0,0.0,0.0,0.0,0.0,0.0,0.0,0.0,0.0,0.0,0.0,0.0,0.0,0.0,0.0,0.0,0.0,0.0,0.0,0.0,0.0,0.0,0.0,0.0,0.0,0.0,0.0,0.0,0.0,0.0,0.0,0.0,0.0,0.0,0.0,0.0,0.0,0.0,0.0,0.0,0.0,0.0,0.0,0.0,0.0,0.0,0.0,0.0,0.0,0.0,0.0,0.0,0.0,0.0,0.0,0.0,0.0,0.0,0.0,0.0,0.0,0.0,0.0,0.0,0.0,0.0,0.0,0.0,0.0,0.0,0.0,0.0,0.0,0.0,0.0,0.0,0.0,0.0,0.0,0.0,0.0,0.0,0.0,0.0,0.0,0.0,0.0,0.0,0.0,0.0,0.0,0.0,0.0,0.0,0.0,0.0,0.0,0.0,0.0,0.0,0.0,0.0,0.0,0.0,0.0,0.0,0.0,0.0,0.0,0.0,0.0,0.0,0.0,0.0,0.0,0.0,0.0,0.0,0.0,0.0,0.0,0.0,0.0,0.0,0.0,0.0,0.0,0.0,0.0,0.0,0.0,0.0,0.0,0.0,0.0,0.0,0.0,0.0,0.0,0.0,0.0,0.0,0.0,0.0,0.0,0.0,0.0,0.0,0.0,0.0,0.0,0.0,0.0,0.0,0.0,0.0,0.0,0.0,0.0,0.0,0.0,0.0,0.0,0.0,0.0,0.0,0.0,0.0,0.0,0.0,0.0,0.0,0.0,0.0,0.0,0.0,0.0,0.0,0.0,0.0,0.0,0.0,0.0,0.0,0.0,0.0,0.0,0.0,0.0,0.0,0.0,0.0,0.0,0.0,0.0,0.0,0.0,0.0,0.0,0.0,0.0,0.0,0.0,0.0,0.0,0.0,0.0,0.0,0.0,0.0,0.0,0.0,0.0,0.0,0.0,0.0,0.0,0.0,0.0,0.0,0.0,0.0,0.0,0.0,0.0,0.0,0.0,0.0,0.0,0.0,0.0,0.0,0.0,0.0,0.0,0.0,0.0,0.0,0.0,0.0,0.0,0.0,0.0,0.0,0.0,0.0,0.0,0.0,0.0,0.0,0.0,0.0,0.0,0.0,0.0,0.0,0.0,0.0,0.0,0.0,0.0,0.0,0.0,0.0,0.0,0.0,0.0,0.0,0.0,0.0,0.0,0.0,0.0,0.0,0.0,0.0,0.0,0.0,0.0,0.0,0.0,0.0,0.0,0.0,0.0,0.0,0.0,0.0,0.0,0.0,0.0,0.0,0.0,0.0,0.0,0.0,0.0,0.0,0.0,0.0,0.0,0.0,0.0,0.0,0.0,0.0,0.0,0.0,0.0,0.0,0.0,0.0,0.0,0.0,0.0,0.0,0.0,0.0,0.0,0.0,0.0,0.0,0.0,0.0,0.0,0.0,0.0,0.0,0.0,0.0,0.0,0.0,0.0,0.0,0.0,0.0,0.0,0.0,0.0,0.0,0.0,0.0,0.0,0.0,0.0,0.0,0.0,0.0,0.0,0.0,0.0,0.0,0.0,0.0,0.0,0.0,0.0,0.0,0.0,0.0,0.0,0.0,0.0,0.0,0.0,0.0,0.0,0.0,0.0,0.0,0.0,0.0,0.0,0.0,0.0,0.0,0.0,0.0,0.0,0.0,0.0,0.0,0.0,0.0,0.0,0.0,0.0,0.0,0.0,0.0,0.0,0.0,0.0,0.0,0.0,0.0,0.0,0.0,0.0,0.0,0.0,0.0,0.0,0.0,0.0,0.0,0.0,0.0,0.0,0.0,0.0,0.0,0.0,0.0,0.0,0.0,0.0,0.0,0.0,0.0,0.0,0.0,0.0,0.0,0.0,0.0,0.0,0.0,0.0,0.0,0.0,0.0,0.0,0.0,0.0,0.0,0.0,0.0,0.0,0.0,0.0,0.0,0.0,0.0,0.0,0.0,0.0,0.0,0.0,0.0,0.0,0.0,0.0,0.0,0.0,0.0,0.0,0.0,0.0,0.0,0.0,0.0,0.0,0.0,0.0,0.0,0.0,0.0,0.0,0.0,0.0,0.0,0.0,0.0,0.0,0.0,0.0,0.0,0.0,0.0,0.0,0.0,0.0,0.0,0.0,0.0,0.0,0.0,0.0,0.0,0.0,0.0,0.0,0.0,0.0,0.0,0.0,0.0,0.0,0.0,0.0,0.0,0.0,0.0,0.0,0.0,0.0,0.0,0.0,0.0,0.0,0.0,0.0,0.0,0.0,0.0,0.0,0.0,0.0,0.0,0.0,0.0,0.0,0.0,0.0,0.0,0.0,0.0,0.0,0.0,0.0,0.0,0.0,0.0,0.0,0.0,0.0,0.0,0.0,0.0,0.0,0.0,0.0,0.0,0.0,0.0,0.0,0.0,0.0,0.0,0.0,0.0,0.0,0.0,0.0,0.0,0.0,0.0,0.0,0.0,0.0,0.0,0.0,0.0,0.0,0.0,0.0,0.0,0.0,0.0,0.0,0.0,0.0,0.0,0.0,0.0,0.0,0.0,0.0,0.0,0.0,0.0,0.0,0.0,0.0,0.0,0.0,0.0,0.0,0.0,0.0,0.0,0.0,0.0,0.0,0.0,0.0,0.0,0.0,0.0,0.0,0.0,0.0,0.0,0.0,0.0,0.0,0.0,0.0,0.0,0.0,0.0,0.0,0.0,0.0,0.0,0.0,0.0,0.0,0.0,0.0,0.0,0.0,0.0,0.0,0.0,0.0,0.0,0.0,0.0,0.0,0.0,0.0,0.0,0.0,0.0,0.0,0.0,0.0,0.0,0.0,0.0,0.0,0.0,0.0,0.0,0.0,0.0,0.0,0.0,0.0,0.0,0.0,0.0,0.0,0.0,0.0,0.0,0.0,0.0,0.0,0.0,0.0,0.0,0.0,0.0,0.0,0.0,0.0,0.0,0.0,0.0,0.0,0.0,0.0,0.0,0.0,0.0,0.0,0.0,0.0,0.0,0.0,0.0,0.0,0.0,0.0,0.0,0.0,0.0,0.0,0.0,0.0,0.0,0.0,0.0,0.0,0.0,0.0,0.0,0.0,0.0,0.0,0.0,0.0,0.0,0.0,0.0,0.0,0.0,0.0,0.0,0.0,0.0,0.0,0.0,0.0,0.0,0.0,0.0,0.0,0.0,0.0,0.0,0.0,0.0,0.0,0.0,0.0,0.0,0.0,0.0,0.0,0.0,0.0,0.0,0.0,0.0,0.0,0.0,0.0,0.0,0.0,0.0,0.0,0.0,0.0,0.0,0.0,0.0,0.0,0.0,0.0,0.0,0.0,0.0,0.0,0.0,0.0,0.0,0.0,0.0,0.0,0.0,0.0,0.0,0.0,0.0,0.0,0.0,0.0,0.0,0.0,0.0,0.0,0.0,0.0,0.0,0.0,0.0,0.0,0.0,0.0,0.0,0.0,0.0,0.0,0.0,0.0,0.0,0.0,0.0,0.0,0.0,0.0,0.0,0.0,0.0,0.0,0.0,0.0,0.0,0.0,0.0,0.0,0.0,0.0,0.0,0.0,0.0,0.0,0.0,0.0,0.0,0.0,0.0,0.0,0.0,0.0,0.0,0.0,0.0,0.0,0.0,0.0,0.0,0.0,0.0,0.0,0.0,0.0,0.0,0.0,0.0,0.0,0.0,0.0,0.0,0.0,0.0,0.0,0.0,0.0,0.0,0.0,0.0,0.0,0.0,0.0,0.0,0.0,0.0,0.0,0.0,0.0,0.0,0.0,0.0,0.0,0.0,0.0,0.0,0.0,0.0,0.0,-2.5646,0.0,0.0,0.0,0.0,0.0,0.0,0.0,0.0,0.0,0.0,0.0,0.0,0.0,0.0,0.0,0.0,0.0,0.0,0.0,0.0,0.0,0.0,0.0,0.0,0.0,0.0,0.0,0.0,0.0,0.0,0.0,0.0,0.0,0.0,0.0,0.0,0.0,0.0,0.0,0.0,0.0,0.0,0.0,0.0,0.0,0.0,0.0,0.0,0.0,0.0,0.0,0.0,0.0,0.0,0.0,0.0,0.0,0.0,0.0,0.0,0.0,0.0,0.0,0.0,0.0,0.0,0.0,0.0,0.0,0.0,0.0,0.0,0.0,0.0,0.0,0.0,0.0,0.0,0.0,0.0,0.0,0.0,0.0,0.0,0.0,0.0,0.0,0.0,0.0,0.0,0.0,0.0,0.0,0.0,0.0,0.0,0.0,0.0,0.0,0.0,0.0,0.0,0.0,0.0,0.0,0.0,0.0,0.0,0.0,0.0,-2.3954,-2.4263,-2.3275,-2.3578,-2.5404,0.0,0.0,0.0,0.0,0.0,0.0,0.0,0.0,0.0,0.0,0.0,0.0,0.0,0.0,0.0,0.0,0.0,0.0,0.0,0.0,0.0,0.0,0.0,0.0,0.0,0.0,0.0,0.0,0.0,0.0,0.0,0.0,0.0,0.0,0.0,0.0,0.0,0.0,0.0,0.0,0.0,0.0,0.0,0.0,0.0,0.0,0.0,0.0,0.0,0.0,0.0,0.0,0.0,0.0,0.0,0.0,0.0,0.0,0.0,0.0,0.0,0.0,0.0,0.0,0.0,0.0,0.0,0.0,0.0,0.0,0.0,0.0,0.0,0.0,0.0,0.0,0.0,0.0,0.0,0.0,0.0,0.0,0.0,0.0,0.0,0.0,0.0,0.0,0.0,0.0,0.0,0.0,0.0,0.0,0.0,0.0,0.0,0.0,0.0,0.0,0.0,0.0,0.0,0.0,0.0,0.0,0.0,0.0,0.0,0.0,0.0,0.0,-2.315,-2.3626,-2.5035,0.0,0.0,0.0,0.0,0.0,0.0,0.0,0.0,0.0,0.0,0.0,0.0,0.0,0.0,0.0,0.0,0.0,0.0,0.0,0.0,0.0,0.0,0.0,0.0,0.0,0.0,0.0,0.0,0.0,0.0,0.0,0.0,0.0,0.0,0.0,0.0,0.0,0.0,0.0,0.0,0.0,0.0,0.0,0.0,0.0,0.0,0.0,0.0,0.0,0.0,0.0,0.0,0.0,0.0,0.0,0.0,0.0,0.0,0.0,0.0,0.0,0.0,0.0,0.0,0.0,0.0,0.0,0.0,0.0,0.0,0.0,0.0,0.0,0.0,0.0,0.0,0.0,0.0,0.0,0.0,0.0,0.0,0.0,0.0,0.0,0.0,0.0,0.0,0.0,0.0,0.0,0.0,0.0,0.0,0.0,0.0,0.0,0.0,0.0,0.0,0.0,0.0,0.0,0.0,0.0,0.0,0.0,0.0,0.0,0.0,-2.3659,-2.4969,-2.4144,0.0,-2.5211,0.0,0.0,0.0,0.0,0.0,0.0,0.0,0.0,0.0,0.0,0.0,0.0,0.0,0.0,0.0,0.0,0.0,0.0,0.0,0.0,0.0,0.0,0.0,0.0,0.0,0.0,0.0,0.0,0.0,0.0,0.0,0.0,0.0,0.0,0.0,0.0,0.0,0.0,0.0,0.0,0.0,0.0,0.0,0.0,0.0,0.0,0.0,0.0,0.0,0.0,0.0,0.0,0.0,0.0,0.0,0.0,0.0,0.0,0.0,0.0,0.0,0.0,0.0,0.0,0.0,0.0,0.0,0.0,0.0,0.0,0.0,0.0,0.0,0.0,0.0,0.0,0.0,0.0,0.0,0.0,0.0,0.0,0.0,0.0,0.0,0.0,0.0,0.0,0.0,0.0,0.0,0.0,0.0,0.0,0.0,0.0,0.0,0.0,0.0,0.0,0.0,0.0,0.0,0.0,0.0,0.0,0.0,0.0,0.0,0.0,-2.3728,-2.4365,-2.4838,-2.5608,0.0,0.0,0.0,0.0,0.0,0.0,0.0,0.0,0.0,0.0,0.0,0.0,0.0,0.0,0.0,0.0,0.0,0.0,0.0,0.0,0.0,0.0,0.0,0.0,0.0,0.0,0.0,0.0,0.0,0.0,0.0,0.0,0.0,0.0,0.0,0.0,0.0,0.0,0.0,0.0,0.0,0.0,0.0,0.0,0.0,0.0,0.0,0.0,0.0,0.0,0.0,0.0,0.0,0.0,0.0,0.0,0.0,0.0,0.0,0.0,0.0,0.0,0.0,0.0,0.0,0.0,0.0,0.0,0.0,0.0,0.0,0.0,0.0,0.0,0.0,0.0,0.0,0.0,0.0,0.0,0.0,0.0,0.0,0.0,0.0,0.0,0.0,0.0,0.0,0.0,0.0,0.0,0.0,0.0,0.0,0.0,0.0,0.0,0.0,0.0,0.0,0.0,0.0,0.0,0.0,0.0,0.0,0.0,0.0,0.0,-2.3791,-2.4026,-2.4439,-2.5448,-2.658,-2.7756,0.0,0.0,0.0,0.0,0.0,0.0,0.0,0.0,0.0,0.0,0.0,0.0,0.0,0.0,0.0,0.0,0.0,0.0,0.0,0.0,0.0,0.0,0.0,0.0,0.0,0.0,0.0,0.0,0.0,0.0,0.0,0.0,0.0,0.0,0.0,0.0,0.0,0.0,0.0,0.0,0.0,0.0,0.0,0.0,0.0,0.0,0.0,0.0,0.0,0.0,0.0,0.0,0.0,0.0,0.0,0.0,0.0,0.0,0.0,0.0,0.0,0.0,0.0,0.0,0.0,0.0,0.0,0.0,0.0,0.0,0.0,0.0,0.0,0.0,0.0,0.0,0.0,0.0,0.0,0.0,0.0,0.0,0.0,0.0,0.0,0.0,0.0,0.0,0.0,0.0,0.0,0.0,0.0,0.0,0.0,0.0,0.0,0.0,0.0,0.0,0.0,0.0,0.0,0.0,0.0,0.0,0.0,0.0,0.0,-2.4684,-2.4508,-2.5887,-2.5998,-2.658,0.0,0.0,0.0,0.0,0.0,0.0,0.0,0.0,0.0,0.0,0.0,0.0,0.0,0.0,0.0,0.0,0.0,0.0,0.0,0.0,0.0,0.0,0.0,0.0,0.0,0.0,0.0,0.0,0.0,0.0,0.0,0.0,0.0,0.0,0.0,0.0,0.0,0.0,0.0,0.0,0.0,0.0,0.0,0.0,0.0,0.0,0.0,0.0,0.0,0.0,0.0,0.0,0.0,0.0,0.0,0.0,0.0,0.0,0.0,0.0,0.0,0.0,0.0,0.0,0.0,0.0,0.0,0.0,0.0,0.0,0.0,0.0,0.0,0.0,0.0,0.0,0.0,0.0,0.0,0.0,0.0,0.0,0.0,0.0,0.0,0.0,0.0,0.0,0.0,0.0,0.0,0.0,0.0,0.0,0.0,0.0,0.0,0.0,0.0,0.0,0.0,0.0,0.0,0.0,0.0,0.0,0.0,0.0,0.0,-2.4025,-2.4841,-2.5508,-2.6094,-2.648,-2.7313,0.0,0.0,0.0,0.0,0.0,0.0,0.0,0.0,0.0,0.0,0.0,0.0,0.0,0.0,0.0,0.0,0.0,0.0,0.0,0.0,0.0,0.0,0.0,0.0,0.0,0.0,0.0,0.0,0.0,0.0,0.0,0.0,0.0,0.0,0.0,0.0,0.0,0.0,0.0,0.0,0.0,0.0,0.0,0.0,0.0,0.0,0.0,0.0,0.0,0.0,0.0,0.0,0.0,0.0,0.0,0.0,0.0,0.0,0.0,0.0,0.0,0.0,0.0,0.0,0.0,0.0,0.0,0.0,0.0,0.0,0.0,0.0,0.0,0.0,0.0,0.0,0.0,0.0,0.0,0.0,0.0,0.0,0.0,0.0,0.0,0.0,0.0,0.0,0.0,0.0,0.0,0.0,0.0,0.0,0.0,0.0,0.0,0.0,0.0,0.0,0.0,0.0,0.0,0.0,0.0,0.0,0.0,0.0,0.0,-2.3095,0.0,-2.6473,-2.6442,-2.7117,-2.8031,0.0,0.0,0.0,0.0,0.0,0.0,0.0,0.0,0.0,0.0,0.0,0.0,0.0,0.0,0.0,0.0,0.0,0.0,0.0,0.0,0.0,0.0,0.0,0.0,0.0,0.0,0.0,0.0,0.0,0.0,0.0,0.0,0.0,0.0,0.0,0.0,0.0,0.0,0.0,0.0,0.0,0.0,0.0,0.0,0.0,0.0,0.0,0.0,0.0,0.0,0.0,0.0,0.0,0.0,0.0,0.0,0.0,0.0,0.0,0.0,0.0,0.0,0.0,0.0,0.0,0.0,0.0,0.0,0.0,0.0,0.0,0.0,0.0,0.0,0.0,0.0,0.0,0.0,0.0,0.0,0.0,0.0,0.0,0.0,0.0,0.0,0.0,0.0,0.0,0.0,0.0,0.0,0.0,0.0,0.0,0.0,0.0,0.0,0.0,0.0,0.0,0.0,0.0,0.0,0.0,0.0,0.0,0.0,-2.2384,-2.3784,-2.604,-2.7162,-2.712,-2.7806,-2.8511,0.0,0.0,0.0,0.0,0.0,0.0,0.0,0.0,0.0,0.0,0.0,0.0,0.0,0.0,0.0,0.0,0.0,0.0,0.0,0.0,0.0,0.0,0.0,0.0,0.0,0.0,0.0,0.0,0.0,0.0,0.0,0.0,0.0,0.0,0.0,0.0,0.0,0.0,0.0,0.0,0.0,0.0,0.0,0.0,0.0,0.0,0.0,0.0,0.0,0.0,0.0,0.0,0.0,0.0,0.0,0.0,0.0,0.0,0.0,0.0,0.0,0.0,0.0,0.0,0.0,0.0,0.0,0.0,0.0,0.0,0.0,0.0,0.0,0.0,0.0,0.0,0.0,0.0,0.0,0.0,0.0,0.0,0.0,0.0,0.0,0.0,0.0,0.0,0.0,0.0,0.0,0.0,0.0,0.0,0.0,0.0,0.0,0.0,0.0,0.0,0.0,0.0,0.0,0.0,0.0,0.0,0.0,0.0,0.0,-2.3867,-2.5776,-2.7157,-2.7806,-2.7284,-2.7876,0.0,0.0,0.0,0.0,0.0,0.0,0.0,0.0,0.0,0.0,0.0,0.0,0.0,0.0,0.0,0.0,0.0,0.0,0.0,0.0,0.0,0.0,0.0,0.0,0.0,0.0,0.0,0.0,0.0,0.0,0.0,0.0,0.0,0.0,0.0,0.0,0.0,0.0,0.0,0.0,0.0,0.0,0.0,0.0,0.0,0.0,0.0,0.0,0.0,0.0,0.0,0.0,0.0,0.0,0.0,0.0,0.0,0.0,0.0,0.0,0.0,0.0,0.0,0.0,0.0,0.0,0.0,0.0,0.0,0.0,0.0,0.0,0.0,0.0,0.0,0.0,0.0,0.0,0.0,0.0,0.0,0.0,0.0,0.0,0.0,0.0,0.0,0.0,0.0,0.0,0.0,0.0,0.0,0.0,0.0,0.0,0.0,0.0,0.0,0.0,0.0,0.0,0.0,0.0,0.0,0.0,0.0,0.0,0.0,-2.5134,-2.6864,-2.8037,-2.8613,-2.8404,-2.8755,-2.9693,0.0,0.0,0.0,0.0,0.0,0.0,0.0,0.0,0.0,0.0,0.0,0.0,0.0,0.0,0.0,0.0,0.0,0.0,0.0,0.0,0.0,0.0,0.0,0.0,0.0,0.0,0.0,0.0,0.0,0.0,0.0,0.0,0.0,0.0,0.0,0.0,0.0,0.0,0.0,0.0,0.0,0.0,0.0,0.0,0.0,0.0,0.0,0.0,0.0,0.0,0.0,0.0,0.0,0.0,0.0,0.0,0.0,0.0,0.0,0.0,0.0,0.0,0.0,0.0,0.0,0.0,0.0,0.0,0.0,0.0,0.0,0.0,0.0,0.0,0.0,0.0,0.0,0.0,0.0,0.0,0.0,0.0,0.0,0.0,0.0,0.0,0.0,0.0,0.0,0.0,0.0,0.0,0.0,0.0,0.0,0.0,0.0,0.0,0.0,0.0,0.0,0.0,0.0,0.0,0.0,0.0,0.0,0.0,-2.7225,-2.9069,-2.9867,-2.9502,-3.0624,-3.0651,0.0,0.0,0.0,0.0,0.0,0.0,0.0,0.0,0.0,0.0,0.0,0.0,0.0,0.0,0.0,0.0,0.0,0.0,0.0,0.0,0.0,0.0,0.0,0.0,0.0,0.0,0.0,0.0,0.0,0.0,0.0,0.0,0.0,0.0,0.0,0.0,0.0,0.0,0.0,0.0,0.0,0.0,0.0,0.0,0.0,0.0,0.0,0.0,0.0,0.0,0.0,0.0,0.0,0.0,0.0,0.0,0.0,0.0,0.0,0.0,0.0,0.0,0.0,0.0,0.0,0.0,0.0,0.0,0.0,0.0,0.0,0.0,0.0,0.0,0.0,0.0,0.0,0.0,0.0,0.0,0.0,0.0,0.0,0.0,0.0,0.0,0.0,0.0,0.0,0.0,0.0,0.0,0.0,0.0,0.0,0.0,0.0,0.0,0.0,0.0,0.0,0.0,0.0,0.0,0.0,0.0,0.0,0.0,0.0,-2.8853,-3.158,-3.2593,-3.1589,-3.0075,-2.9741,0.0,0.0,0.0,0.0,0.0,0.0,0.0,0.0,0.0,0.0,0.0,0.0,0.0,0.0,0.0,0.0,0.0,0.0,0.0,0.0,0.0,0.0,0.0,0.0,0.0,0.0,0.0,0.0,0.0,0.0,0.0,0.0,0.0,0.0,0.0,0.0,0.0,0.0,0.0,0.0,0.0,0.0,0.0,0.0,0.0,0.0,0.0,0.0,0.0,0.0,0.0,0.0,0.0,0.0,0.0,0.0,0.0,0.0,0.0,0.0,0.0,0.0,0.0,0.0,0.0,0.0,0.0,0.0,0.0,0.0,0.0,0.0,0.0,0.0,0.0,0.0,0.0,0.0,0.0,0.0,0.0,0.0,0.0,0.0,0.0,0.0,0.0,0.0,0.0,0.0,0.0,0.0,0.0,0.0,0.0,0.0,0.0,0.0,0.0,0.0,0.0,0.0,0.0,0.0,0.0,0.0,0.0,0.0,-2.8848,-2.9777,-3.3186,-3.4459,-3.3424,-3.1629,-3.0763,0.0,0.0,0.0,0.0,0.0,0.0,0.0,0.0,0.0,0.0,0.0,0.0,0.0,0.0,0.0,0.0,0.0,0.0,0.0,0.0,0.0,0.0,0.0,0.0,0.0,0.0,0.0,0.0,0.0,0.0,0.0,0.0,0.0,0.0,0.0,0.0,0.0,0.0,0.0,0.0,0.0,0.0,0.0,0.0,0.0,0.0,0.0,0.0,0.0,0.0,0.0,0.0,0.0,0.0,0.0,0.0,0.0,0.0,0.0,0.0,0.0,0.0,0.0,0.0,0.0,0.0,0.0,0.0,0.0,0.0,0.0,0.0,0.0,0.0,0.0,0.0,0.0,0.0,0.0,0.0,0.0,0.0,0.0,0.0,0.0,0.0,0.0,0.0,0.0,0.0,0.0,0.0,0.0,0.0,0.0,0.0,0.0,0.0,0.0,0.0,0.0,0.0,0.0,0.0,0.0,0.0,0.0,0.0,-2.9884,-3.0677,-3.4131,-3.5644,-3.4939,-3.3965,-3.2585,0.0,0.0,0.0,0.0,0.0,0.0,0.0,0.0,0.0,0.0,0.0,0.0,0.0,0.0,0.0,0.0,0.0,0.0,0.0,0.0,0.0,0.0,0.0,0.0,0.0,0.0,0.0,0.0,0.0,0.0,0.0,0.0,0.0,0.0,0.0,0.0,0.0,0.0,0.0,0.0,0.0,0.0,0.0,0.0,0.0,0.0,0.0,0.0,0.0,0.0,0.0,0.0,0.0,0.0,0.0,0.0,0.0,0.0,0.0,0.0,0.0,0.0,0.0,0.0,0.0,0.0,0.0,0.0,0.0,0.0,0.0,0.0,0.0,0.0,0.0,0.0,0.0,0.0,0.0,0.0,0.0,0.0,0.0,0.0,0.0,0.0,0.0,0.0,0.0,0.0,0.0,0.0,0.0,0.0,0.0,0.0,0.0,0.0,0.0,0.0,0.0,0.0,0.0,0.0,0.0,0.0,0.0,0.0,-3.0585,-3.2963,-3.4951,-3.5938,-3.5726,-3.3348,-3.1735,0.0,0.0,0.0,0.0,0.0,0.0,0.0,0.0,0.0,0.0,0.0,0.0,0.0,0.0,0.0,0.0,0.0,0.0,0.0,0.0,0.0,0.0,0.0,0.0,0.0,0.0,0.0,0.0,0.0,0.0,0.0,0.0,0.0,0.0,0.0,0.0,0.0,0.0,0.0,0.0,0.0,0.0,0.0,0.0,0.0,0.0,0.0,0.0,-1.9263,0.0,0.0,0.0,0.0,0.0,0.0,0.0,0.0,0.0,0.0,0.0,0.0,0.0,0.0,0.0,0.0,0.0,0.0,0.0,0.0,0.0,0.0,0.0,0.0,0.0,0.0,0.0,0.0,0.0,0.0,0.0,0.0,0.0,0.0,0.0,0.0,0.0,0.0,0.0,0.0,0.0,0.0,0.0,0.0,0.0,0.0,0.0,0.0,0.0,0.0,0.0,0.0,0.0,0.0,0.0,0.0,0.0,0.0,0.0,-3.1679,-3.4157,-3.5671,-3.6161,-3.5572,-3.343,-3.1913,0.0,0.0,0.0,0.0,0.0,0.0,0.0,0.0,0.0,0.0,0.0,0.0,0.0,0.0,0.0,0.0,0.0,0.0,0.0,0.0,0.0,0.0,0.0,0.0,0.0,0.0,0.0,0.0,0.0,0.0,0.0,0.0,0.0,0.0,0.0,0.0,0.0,0.0,0.0,0.0,0.0,0.0,0.0,0.0,0.0,0.0,0.0,0.0,0.0,0.0,0.0,0.0,0.0,0.0,0.0,0.0,0.0,0.0,0.0,0.0,0.0,0.0,0.0,0.0,0.0,0.0,0.0,0.0,0.0,0.0,0.0,0.0,0.0,0.0,0.0,0.0,0.0,0.0,0.0,0.0,0.0,0.0,0.0,0.0,0.0,0.0,0.0,0.0,0.0,0.0,0.0,0.0,0.0,0.0,0.0,0.0,0.0,0.0,0.0,0.0,0.0,0.0,0.0,0.0,0.0,0.0,0.0,-3.1165,-3.3083,-3.5249,-3.6513,-3.6592,-3.5498,-3.4055,-3.2619,-3.1272,0.0,0.0,0.0,0.0,0.0,0.0,0.0,0.0,0.0,0.0,0.0,0.0,0.0,0.0,0.0,0.0,0.0,0.0,0.0,0.0,0.0,0.0,0.0,0.0,0.0,0.0,0.0,0.0,0.0,0.0,0.0,0.0,0.0,0.0,0.0,0.0,0.0,0.0,-1.9565,-2.0068,0.0,0.0,0.0,0.0,0.0,0.0,0.0,0.0,-2.1187,0.0,0.0,0.0,0.0,0.0,0.0,0.0,0.0,0.0,0.0,0.0,0.0,0.0,0.0,0.0,0.0,0.0,0.0,0.0,0.0,0.0,0.0,0.0,0.0,0.0,0.0,0.0,0.0,0.0,0.0,0.0,0.0,0.0,0.0,0.0,0.0,0.0,0.0,0.0,0.0,0.0,0.0,0.0,0.0,0.0,0.0,0.0,0.0,0.0,0.0,0.0,0.0,0.0,0.0,0.0,0.0,-3.1313,-3.29,-3.4967,-3.7558,-3.7843,-3.7604,-3.6787,-3.5291,-3.3445,-3.1322,0.0,0.0,0.0,0.0,0.0,0.0,0.0,0.0,0.0,0.0,0.0,0.0,0.0,0.0,0.0,0.0,0.0,0.0,0.0,0.0,0.0,0.0,0.0,0.0,0.0,0.0,0.0,0.0,0.0,0.0,0.0,0.0,0.0,0.0,0.0,0.0,0.0,0.0,0.0,-2.2566,-2.3028,0.0,0.0,0.0,0.0,0.0,0.0,0.0,0.0,-2.3876,0.0,0.0,0.0,0.0,0.0,0.0,0.0,0.0,0.0,0.0,0.0,0.0,0.0,0.0,0.0,0.0,0.0,0.0,0.0,0.0,0.0,0.0,0.0,0.0,0.0,0.0,0.0,0.0,0.0,0.0,0.0,0.0,0.0,0.0,0.0,0.0,0.0,0.0,0.0,0.0,0.0,0.0,0.0,0.0,0.0,0.0,0.0,0.0,0.0,0.0,0.0,0.0,0.0,0.0,0.0,-3.2657,-3.4254,-3.6233,-3.8709,-3.867,-3.8333,-3.7642,-3.5218,-3.3259,0.0,0.0,0.0,0.0,0.0,0.0,0.0,0.0,0.0,0.0,0.0,0.0,0.0,0.0,0.0,0.0,0.0,0.0,0.0,0.0,0.0,0.0,0.0,0.0,0.0,0.0,0.0,0.0,0.0,0.0,0.0,0.0,0.0,0.0,0.0,0.0,0.0,0.0,0.0,0.0,-2.3432,-2.3966,-2.4805,0.0,0.0,0.0,0.0,0.0,0.0,-2.5002,-2.5127,0.0,0.0,0.0,0.0,0.0,0.0,0.0,0.0,0.0,0.0,0.0,0.0,0.0,0.0,0.0,0.0,0.0,0.0,0.0,0.0,0.0,0.0,0.0,0.0,0.0,0.0,0.0,0.0,0.0,0.0,0.0,0.0,0.0,0.0,0.0,0.0,0.0,0.0,0.0,0.0,0.0,0.0,0.0,0.0,0.0,0.0,0.0,0.0,0.0,0.0,0.0,0.0,0.0,0.0,0.0,-3.3447,-3.5395,-3.7376,-3.9289,-3.9312,-3.8991,-3.8328,-3.5126,-3.3112,0.0,0.0,0.0,0.0,0.0,0.0,0.0,0.0,0.0,0.0,0.0,0.0,0.0,0.0,0.0,0.0,0.0,0.0,0.0,0.0,0.0,0.0,0.0,0.0,0.0,0.0,0.0,0.0,0.0,0.0,0.0,0.0,0.0,0.0,0.0,0.0,0.0,0.0,0.0,0.0,0.0,-2.531,-2.6069,-2.569,0.0,0.0,0.0,0.0,-2.6404,-2.6834,0.0,0.0,0.0,0.0,0.0,0.0,0.0,0.0,0.0,0.0,0.0,0.0,0.0,0.0,0.0,0.0,0.0,0.0,0.0,0.0,0.0,0.0,0.0,0.0,0.0,0.0,0.0,0.0,0.0,0.0,0.0,0.0,0.0,0.0,0.0,0.0,0.0,0.0,0.0,0.0,0.0,0.0,0.0,0.0,0.0,0.0,0.0,0.0,0.0,0.0,0.0,0.0,0.0,0.0,0.0,0.0,-3.3087,-3.6388,-3.8494,-3.9382,-3.9861,-3.9747,-3.8897,-3.5948,-3.3906,0.0,0.0,0.0,0.0,0.0,0.0,0.0,0.0,0.0,0.0,0.0,0.0,0.0,0.0,0.0,0.0,0.0,0.0,0.0,0.0,0.0,0.0,0.0,0.0,0.0,0.0,0.0,0.0,0.0,0.0,0.0,0.0,0.0,0.0,0.0,0.0,0.0,0.0,0.0,0.0,0.0,-2.8394,-2.738,-2.69,-2.6855,0.0,0.0,0.0,-2.8855,-3.0624,0.0,0.0,0.0,0.0,0.0,0.0,0.0,0.0,0.0,0.0,0.0,0.0,0.0,0.0,0.0,0.0,0.0,0.0,0.0,0.0,0.0,0.0,0.0,0.0,0.0,0.0,0.0,0.0,0.0,0.0,0.0,0.0,0.0,0.0,0.0,0.0,0.0,0.0,0.0,0.0,0.0,0.0,0.0,0.0,0.0,0.0,0.0,0.0,0.0,0.0,0.0,0.0,0.0,0.0,0.0,-3.3632,-3.472,-3.6989,-3.8741,-3.9876,-4.0093,-4.0027,-3.9639,-3.6081,-3.4014,0.0,0.0,0.0,0.0,0.0,0.0,0.0,0.0,0.0,0.0,0.0,0.0,0.0,0.0,0.0,0.0,0.0,0.0,0.0,0.0,0.0,0.0,0.0,0.0,0.0,0.0,0.0,0.0,0.0,0.0,0.0,0.0,0.0,0.0,0.0,0.0,0.0,0.0,0.0,0.0,0.0,0.0,-2.9095,-2.9608,0.0,0.0,0.0,-2.9705,-3.0936,0.0,0.0,0.0,0.0,0.0,0.0,0.0,0.0,0.0,0.0,0.0,0.0,0.0,0.0,0.0,0.0,0.0,0.0,0.0,0.0,0.0,0.0,0.0,0.0,0.0,0.0,0.0,0.0,0.0,0.0,0.0,0.0,0.0,0.0,0.0,0.0,0.0,0.0,0.0,0.0,0.0,0.0,0.0,0.0,0.0,0.0,0.0,0.0,0.0,0.0,0.0,0.0,0.0,0.0,0.0,0.0,0.0,-3.5997,-3.7501,-3.8928,-4.0254,-4.0163,-4.0113,-4.0045,-3.6179,0.0,0.0,0.0,0.0,0.0,0.0,0.0,0.0,0.0,0.0,0.0,0.0,0.0,0.0,0.0,0.0,0.0,0.0,0.0,0.0,0.0,0.0,0.0,0.0,0.0,0.0,0.0,-2.8272,0.0,0.0,0.0,0.0,0.0,0.0,0.0,0.0,0.0,0.0,0.0,0.0,0.0,0.0,-3.0812,-3.112,-3.2475,-3.3583,0.0,0.0,-3.1736,-3.2505,-3.309,-3.3329,0.0,0.0,0.0,0.0,0.0,0.0,0.0,0.0,0.0,0.0,0.0,0.0,0.0,0.0,0.0,0.0,0.0,0.0,0.0,0.0,0.0,0.0,0.0,0.0,0.0,0.0,0.0,0.0,0.0,0.0,0.0,0.0,0.0,0.0,0.0,0.0,0.0,0.0,0.0,0.0,0.0,0.0,0.0,0.0,0.0,0.0,0.0,0.0,0.0,0.0,0.0,0.0,0.0,0.0,0.0,-3.6031,-3.808,-3.9506,-4.0254,-4.0163,-4.0113,-4.0045,-3.6434,-3.46,0.0,0.0,0.0,0.0,0.0,0.0,0.0,0.0,0.0,0.0,0.0,0.0,0.0,0.0,0.0,0.0,0.0,0.0,0.0,0.0,0.0,0.0,0.0,0.0,0.0,0.0,0.0,0.0,0.0,0.0,0.0,0.0,0.0,0.0,0.0,0.0,0.0,0.0,0.0,0.0,0.0,-3.3919,-3.3306,-3.4906,-3.623,0.0,0.0,-3.4043,-3.3429,-3.4968,-3.5584,-3.3673,0.0,0.0,0.0,0.0,0.0,0.0,0.0,0.0,0.0,0.0,0.0,0.0,0.0,0.0,0.0,0.0,0.0,0.0,0.0,0.0,0.0,0.0,0.0,0.0,0.0,0.0,0.0,0.0,0.0,0.0,0.0,0.0,0.0,0.0,0.0,0.0,0.0,0.0,0.0,0.0,0.0,0.0,0.0,0.0,0.0,0.0,0.0,0.0,0.0,0.0,0.0,0.0,0.0,-3.4965,-3.579,-3.795,-3.9451,-4.0154,-4.0138,-4.0113,-4.0113,-3.7371,-3.5845,0.0,0.0,0.0,0.0,0.0,0.0,0.0,0.0,0.0,0.0,0.0,0.0,0.0,0.0,0.0,0.0,0.0,0.0,0.0,0.0,0.0,0.0,0.0,0.0,0.0,0.0,0.0,0.0,-2.9955,-2.9125,-2.7473,0.0,0.0,0.0,0.0,0.0,0.0,0.0,0.0,0.0,0.0,-3.5183,-3.5276,-3.6353,0.0,0.0,-3.5984,-3.5153,-3.5276,-3.5614,-3.5737,-3.5368,-3.5208,0.0,0.0,0.0,0.0,0.0,0.0,0.0,0.0,0.0,0.0,0.0,0.0,0.0,0.0,0.0,0.0,0.0,0.0,0.0,0.0,0.0,0.0,0.0,0.0,0.0,0.0,0.0,0.0,0.0,0.0,0.0,0.0,0.0,0.0,0.0,0.0,0.0,0.0,0.0,0.0,0.0,0.0,0.0,0.0,0.0,0.0,0.0,0.0,0.0,0.0,0.0,0.0,-3.5115,-3.56,-3.8058,-3.9571,-4.0113,-4.0113,-4.0113,-4.0045,-3.7802,-3.6487,0.0,0.0,0.0,0.0,0.0,0.0,0.0,0.0,0.0,0.0,0.0,0.0,0.0,0.0,0.0,0.0,0.0,0.0,0.0,0.0,0.0,0.0,0.0,0.0,0.0,0.0,0.0,0.0,-3.0733,-2.9872,-2.8035,0.0,0.0,0.0,0.0,0.0,0.0,0.0,0.0,0.0,0.0,-3.6322,-3.6999,-3.7523,-3.7738,-3.7523,-3.6538,-3.5953,-3.6415,-3.6229,-3.6104,-3.6199,0.0,0.0,0.0,0.0,0.0,0.0,0.0,0.0,0.0,0.0,0.0,0.0,0.0,0.0,0.0,0.0,0.0,0.0,0.0,0.0,0.0,0.0,0.0,0.0,0.0,0.0,0.0,0.0,0.0,0.0,0.0,0.0,0.0,0.0,0.0,0.0,0.0,0.0,0.0,0.0,0.0,0.0,0.0,0.0,0.0,0.0,0.0,0.0,0.0,0.0,0.0,0.0,0.0,0.0,-3.5633,-3.8531,-4.0079,-4.0113,-4.0113,-4.0113,-4.002,-3.7485,-3.6332,-3.6919,0.0,0.0,0.0,0.0,0.0,0.0,0.0,0.0,0.0,0.0,0.0,0.0,0.0,0.0,0.0,0.0,0.0,0.0,0.0,0.0,0.0,0.0,0.0,0.0,0.0,0.0,-3.0927,-3.0344,-2.9831,0.0,0.0,0.0,0.0,0.0,0.0,0.0,0.0,0.0,0.0,-3.6569,-3.7707,-3.8354,-3.8477,-3.8327,-3.7647,-3.6969,-3.6507,-3.6507,-3.6967,-3.6958,0.0,0.0,0.0,0.0,0.0,0.0,0.0,0.0,0.0,0.0,0.0,0.0,0.0,0.0,0.0,0.0,0.0,0.0,0.0,0.0,0.0,0.0,0.0,0.0,0.0,0.0,0.0,0.0,-3.1838,0.0,0.0,0.0,0.0,0.0,0.0,0.0,0.0,0.0,0.0,0.0,-3.6716,-3.7978,0.0,0.0,0.0,0.0,0.0,0.0,0.0,0.0,0.0,0.0,0.0,0.0,-3.56,-3.5735,-3.8565,-4.0113,-4.0113,-4.0113,-4.0113,-4.0079,-3.8337,-3.6901,-3.5878,0.0,0.0,0.0,0.0,0.0,0.0,0.0,0.0,0.0,0.0,0.0,0.0,0.0,0.0,0.0,0.0,0.0,0.0,0.0,0.0,0.0,0.0,0.0,0.0,0.0,-3.3168,0.0,0.0,0.0,0.0,0.0,0.0,0.0,0.0,0.0,0.0,0.0,-3.4484,-3.5984,-3.809,-3.9595,-3.9814,-4.0198,-4.0102,0.0,0.0,0.0,0.0,0.0,0.0,0.0,0.0,0.0,0.0,0.0,0.0,0.0,0.0,-3.8297,-3.7338,-3.6662,-3.6045,-3.537,0.0,0.0,0.0,0.0,0.0,0.0,0.0,0.0,0.0,0.0,0.0,0.0,0.0,0.0,0.0,0.0,-3.3204,0.0,0.0,0.0,0.0,0.0,0.0,0.0,0.0,-3.5265,-3.7219,-3.8828,-3.9827,-4.0181,0.0,-3.8764,-3.7157,0.0,0.0,0.0,0.0,0.0,0.0,0.0,0.0,-3.5994,-3.6129,-3.8725,-4.0113,-4.0113,-4.0113,-4.0113,-4.0087,-3.8857,-3.7362,-3.5696,-3.5193,-3.5117,0.0,0.0,0.0,0.0,0.0,0.0,0.0,0.0,0.0,0.0,0.0,0.0,0.0,0.0,0.0,0.0,0.0,0.0,0.0,0.0,0.0,0.0,0.0,-3.539,0.0,0.0,0.0,0.0,0.0,0.0,0.0,0.0,0.0,-3.3125,-3.4881,-3.6661,-3.8059,-3.9754,-4.0832,-4.0832,0.0,0.0,0.0,0.0,0.0,0.0,0.0,-3.8491,-3.9408,-3.8999,-3.8683,-3.915,-3.9568,-3.992,-4.0105,0.0,0.0,-3.937,-3.8662,-3.7981,-3.739,-3.7071,-3.6874,-3.6745,-3.6367,-3.6257,0.0,0.0,0.0,0.0,0.0,0.0,0.0,0.0,-3.3358,-3.384,0.0,-3.4531,0.0,0.0,0.0,0.0,0.0,0.0,0.0,0.0,-3.8944,-4.0746,-4.1375,-4.1442,-4.1166,-4.0546,-3.9841,-3.9154,-3.8388,-3.582,0.0,0.0,0.0,0.0,0.0,0.0,-3.6829,-3.6897,-3.8996,-4.0113,-4.0113,-4.0113,-4.0087,-4.0028,-3.8941,-3.7686,-3.6367,-3.6338,-3.6854,-3.7899,-3.5459,0.0,0.0,0.0,0.0,0.0,0.0,0.0,0.0,0.0,0.0,0.0,0.0,0.0,0.0,0.0,0.0,0.0,0.0,0.0,0.0,-3.6596,0.0,0.0,0.0,0.0,0.0,0.0,0.0,0.0,0.0,0.0,-3.6906,-3.6967,-3.7991,-4.1005,0.0,0.0,0.0,0.0,-4.0629,-4.0567,-4.0044,-4.0076,-4.1255,-4.1373,-4.1379,-4.1508,0.0,0.0,-4.0769,-4.0551,-4.0351,-3.977,-4.0297,-4.0601,-4.0636,-4.0115,-3.9487,-3.8952,-3.9222,-3.9416,-3.8884,-3.8537,-3.8468,-3.7864,0.0,0.0,0.0,0.0,-3.5971,-3.6638,-3.7289,-3.7289,-3.7486,-3.7648,-3.6792,0.0,0.0,0.0,0.0,0.0,0.0,-3.5058,-3.6987,-3.9309,-4.1044,-4.2175,-4.2704,-4.2601,-4.1896,-4.0702,-4.0032,-3.9821,-3.8561,-3.6725,-3.4387,0.0,0.0,0.0,0.0,-3.7584,-3.7686,-3.9266,-4.0113,-4.0113,-4.0113,-3.9876,-3.9487,-3.9135,-3.8559,-3.7723,-3.7721,-3.748,-3.6882,-3.6093,0.0,0.0,0.0,0.0,0.0,0.0,0.0,0.0,0.0,0.0,0.0,0.0,0.0,0.0,0.0,0.0,0.0,0.0,0.0,-3.7703,-3.8471,-3.8805,0.0,0.0,0.0,0.0,0.0,0.0,0.0,0.0,0.0,-4.0619,-3.9614,-3.9245,0.0,0.0,-4.2762,-4.2298,-4.2907,-4.3084,-4.2055,0.0,0.0,0.0,-4.1471,-4.1629,-4.213,-4.1979,-4.1821,-4.1969,-4.161,-4.1401,-4.1648,-4.2326,-4.2768,-4.2736,-4.2268,-4.1541,-4.0935,-4.156,-4.1731,-4.0378,-3.9906,-3.9784,-4.0633,-3.9476,-3.8259,-3.7829,-3.7972,-3.8151,-3.8653,-3.9352,-3.9352,-3.971,-4.0319,-3.9627,-3.8647,-3.7404,-3.5614,0.0,0.0,0.0,-3.6813,-3.8937,-4.0807,-4.2137,-4.2969,-4.3727,-4.3661,-4.287,-4.1475,-4.0945,-4.121,-4.0265,-3.9142,-3.7778,0.0,0.0,-3.5295,-3.7276,-3.8497,-3.8802,-3.9918,-4.0527,-4.0527,-4.0248,-3.9901,-3.9566,-3.9329,-3.8896,-3.8248,-3.8288,-3.8056,-3.7524,-3.7199,-3.6725,0.0,0.0,0.0,0.0,0.0,0.0,0.0,0.0,0.0,0.0,0.0,-3.6287,0.0,0.0,0.0,0.0,-3.8026,-3.8924,-4.062,-4.0736,0.0,0.0,0.0,0.0,0.0,0.0,0.0,-3.9459,-3.9734,-4.0631,-4.2245,-4.1455,-4.1054,-4.1997,-4.3174,-4.3776,-4.3399,0.0,-4.43,-4.3427,-4.3671,-4.366,-4.2844,-4.2719,-4.2855,-4.3284,-4.2999,-4.2784,-4.2905,-4.2651,-4.247,-4.2659,-4.3185,-4.3783,-4.4056,-4.4198,-4.4008,-4.3037,-4.3416,-4.3468,-4.237,-4.1888,-4.1565,-4.32,-4.2343,-3.9416,-3.8968,-4.011,-3.9468,-3.9556,-4.0162,-4.0289,-4.1038,-4.2308,-4.2476,-4.2121,-4.1266,-3.838,0.0,0.0,-3.8412,-3.9674,-4.164,-4.3135,-4.383,-4.3797,-4.4456,-4.439,-4.3664,-4.2241,-4.1939,-4.2502,-4.1238,-4.1017,-4.1777,-4.0042,-3.8419,-3.7172,-3.8565,-3.9655,-4.0341,-4.0993,-4.1305,-4.1271,-4.0561,-4.0189,-4.0197,-3.9506,-3.8877,-3.8314,-3.833,-3.8635,-3.9129,-3.8612,-3.8856,-4.0086,0.0,0.0,0.0,0.0,0.0,0.0,0.0,0.0,0.0,0.0,0.0,0.0,0.0,0.0,0.0,-4.0793,0.0,-4.3794,-4.2826,0.0,0.0,0.0,-4.0967,-3.9893,-4.1196,-4.1712,-4.0433,0.0,0.0,0.0,0.0,-4.3079,-4.4429,-4.4581,-4.4581,-4.4581,-4.4553,-4.4581,-4.4491,-4.4553,-4.4553,-4.4401,-4.4401,-4.4401,-4.444,-4.4604,-4.4214,-4.3685,-4.3583,-4.3381,-4.2843,-4.3333,-4.4088,-4.4755,-4.5961,-4.6578,-4.5244,-4.4984,-4.4919,-4.4723,-4.414,-4.3492,-4.4827,-4.4856,-4.35,-4.2802,-4.2644,-4.2465,-4.2481,-4.2715,-4.323,-4.3036,-4.2323,-4.2619,-4.1824,-4.0202,-4.0009,-3.9737,-3.9546,-4.1343,-4.249,-4.3197,-4.5185,-4.5814,-4.5317,-4.545,-4.5152,-4.439,-4.3499,-4.3256,-4.3506,-4.2608,-4.2546,-4.3219,-4.2407,-4.1766,-4.1423,-4.1881,-4.2205,-4.2377,-4.215,-4.2049,-4.2016,-4.1305,-4.0933,-4.0907,-3.9691,-3.9236,-3.9606,-3.911,-3.8913,-3.9183,-3.958,-3.975,-3.9765,-3.8754,0.0,0.0,0.0,0.0,0.0,0.0,0.0,0.0,0.0,-4.0387,-4.1955,0.0,-4.1295,0.0,-4.3481,-4.3042,-4.2618,-4.2341,0.0,0.0,-4.1377,-4.1191,-4.336,-4.2528,-4.2315,-4.3672,-4.3103,-4.3041,-4.4125,-4.3775,-4.3707,-4.4479,-4.4581,-4.4581,-4.4581,-4.4581,-4.4581,-4.4581,-4.4581,-4.4581,-4.4581,-4.4581,-4.4581,-4.4581,-4.4169,-4.3734,-4.355,-4.3585,-4.3555,-4.3488,-4.4399,-4.5405,-4.6124,-4.7058,-4.7497,-4.7208,-4.6703,-4.6158,-4.5667,-4.4983,-4.4593,-4.557,-4.5452,-4.485,-4.4571,-4.45,-4.4143,-4.38,-4.3551,-4.3943,-4.38,-4.3372,-4.3999,-4.3501,-4.2184,-4.2295,-4.2177,-4.1988,-4.3218,-4.3857,-4.4135,-4.6211,-4.6683,-4.5771,-4.6705,-4.6499,-4.5253,-4.5211,-4.5101,-4.485,-4.4384,-4.4538,-4.5226,-4.4577,-4.4272,-4.4287,-4.376,-4.3513,-4.3586,-4.3053,-4.2963,-4.3295,-4.1914,-4.1373,-4.1644,-3.9918,-3.9368,-4.0079,-3.9377,-3.9185,-3.961,-3.9724,-4.0154,-4.083,-4.0201,-4.0236,0.0,0.0,0.0,0.0,0.0,0.0,0.0,0.0,0.0,0.0,0.0,-4.2996,0.0,-4.3795,-4.343,-4.2861,-4.2861,-4.3186,-4.3925,-4.2913,-4.2909,-4.4811,-4.3977,-4.3771,-4.5116,-4.4483,-4.4232,-4.5074,-4.4852,-4.4688,-4.5054,-4.5241,-4.5222,-4.4692,-4.4581,-4.4581,-4.4581,-4.4581,-4.4581,-4.4581,-4.4769,-4.4824,-4.4643,-4.4505,-4.4386,-4.4056,-4.4284,-4.4429,-4.4205,-4.4947,-4.5816,-4.6245,-4.6907,-4.7398,-4.7301,-4.6824,-4.6357,-4.6247,-4.5919,-4.5788,-4.6137,-4.5461,-4.5107,-4.5408,-4.6024,-4.5235,-4.4478,-4.38,-4.3929,-4.43,-4.4955,-4.5894,-4.5868,-4.5188,-4.4739,-4.448,-4.4335,-4.4508,-4.4714,-4.5054,-4.6886,-4.7202,-4.6238,-4.8051,-4.8003,-4.6362,-4.6981,-4.7002,-4.6378,-4.622,-4.6565,-4.7312,-4.6535,-4.6165,-4.6301,-4.5153,-4.4456,-4.4251,-4.3783,-4.391,-4.4547,-4.2557,-4.1745,-4.2185,-4.0324,-3.9512,-4.0045,-3.9546,-3.958,-4.018,-3.984,-4.0526,-4.2524,-4.2014,-4.2116,0.0,-4.3355,0.0,0.0,0.0,0.0,0.0,0.0,0.0,0.0,-4.4772,-4.4128,-4.2717,-4.3186,-4.3627,-4.3824,-4.3824,-4.4143,-4.4892,-4.5042,-4.5069,-4.5049,-4.5177,-4.5407,-4.5734,-4.5511,-4.5433,-4.5749,-4.5825,-4.5825,-4.58,-4.6063,-4.594,-4.5089,-4.4879,-4.4879,-4.4831,-4.4803,-4.4906,-4.4906,-4.5196,-4.5267,-4.4975,-4.5301,-4.55,-4.4783,-4.5193,-4.5415,-4.4785,-4.5069,-4.5573,-4.5673,-4.626,-4.665,-4.665,-4.621,-4.608,-4.6697,-4.6768,-4.6911,-4.7765,-4.7417,-4.7102,-4.7196,-4.7513,-4.6851,-4.6105,-4.5427,-4.607,-4.6427,-4.6569,-4.6728,-4.6433,-4.5721,-4.6257,-4.5918,-4.508,-4.615,-4.6847,-4.7244,-4.819,-4.8812,-4.9136,-4.9077,-4.8846,-4.8487,-4.8055,-4.7857,-4.7858,-4.7291,-4.7623,-4.8816,-4.7657,-4.7245,-4.769,0.0,0.0,0.0,-4.4433,-4.4479,-4.4581,-4.3538,-4.276,-4.2286,-4.1305,0.0,-4.0146,-4.0527,-4.0832,-4.0967,-4.157,0.0,0.0,0.0,0.0,0.0,0.0,0.0,0.0,0.0,0.0,0.0,-4.5908,-4.5608,-4.58,-4.575,-4.4992,-4.343,-4.391,-4.4433,-4.4572,-4.4599,-4.4688,-4.4961,-4.5354,-4.5451,-4.523,-4.5503,-4.586,-4.607,-4.6045,-4.6144,-4.6448,-4.6519,-4.6436,-4.6329,-4.6318,-4.6329,-4.6136,-4.6,-4.5985,-4.595,-4.5825,-4.58,-4.58,-4.5875,-4.5925,-4.5835,-4.5905,-4.5788,-4.5321,-4.5255,-4.5227,-4.4735,-4.4702,-4.5058,-4.5597,-4.5819,-4.5964,-4.5906,-4.5886,-4.6253,-4.7424,-4.7225,-4.7331,-4.8678,0.0,-4.7886,-4.7747,0.0,-4.7385,-4.7016,-4.6822,-4.6547,-4.6391,-4.6427,-4.6819,-4.6829,-4.6516,-4.691,-4.677,-4.6278,-4.7346,-4.7826,-4.7847,-4.9229,-4.9943,-5.0055,-5.0477,-5.0317,-4.9696,-4.9748,-4.9639,-4.9361,-4.8972,-4.9279,-5.0255,-4.8668,-4.797,-4.8229,-4.8076,-4.748,-4.6485,-4.5574,-4.5128,-4.5094,-4.4012,-4.3064,-4.232,0.0,0.0,0.0,0.0,0.0,0.0,0.0,0.0,0.0,0.0,0.0,-4.4612,-4.4,-4.4068,-4.5128,-4.5007,-4.5778,-4.7958,-4.7227,-4.6498,-4.6122,-4.5691,-4.5124,-4.4266,-4.4572,-4.494,-4.5196,-4.5302,-4.5451,-4.5784,-4.6133,-4.6231,-4.6084,-4.6255,-4.6507,-4.6799,-4.6683,-4.6683,-4.7115,-4.716,-4.7102,-4.7021,-4.7198,-4.7342,-4.7263,-4.6751,-4.6329,-4.6353,-4.6542,-4.6578,-4.6305,-4.646,-4.6495,-4.6269,-4.6147,-4.6024,-4.5825,-4.5606,-4.5346,-4.5142,-4.4961,-4.4995,-4.5507,-4.5699,-4.5699,-4.5699,-4.5753,-4.6186,-4.7277,-4.7199,-4.7416,-4.9435,-4.9694,-4.8466,-4.8178,-4.8549,-4.7699,-4.75,-4.772,0.0,0.0,0.0,-4.6878,-4.7303,-4.7416,-4.7559,-4.7684,-4.7809,-4.8434,-4.8552,-4.8401,-5.0127,-5.0785,-5.0549,-5.1754,-5.1766,-5.0733,-5.1415,-5.1428,-5.0868,-5.0784,-5.0964,-5.1164,-4.9628,-4.875,-4.8592,-4.7569,-4.7541,-4.8504,-4.6713,-4.5703,-4.5669,-4.435,-4.3335,-4.2719,-4.2117,-4.1745,-4.161,-4.1711,-4.2016,-4.2455,-4.2155,-4.246,-4.3538,-4.3823,-4.4535,-4.5805,-4.6375,-4.7018,-4.7831,-4.7369,-4.7627,-4.8988,-4.8162,-4.7208,-4.6316,-4.5562,-4.5245,-4.5455,-4.5352,-4.5433,-4.586,-4.5975,-4.622,-4.6683,-4.6913,-4.6981,-4.6926,-4.716,-4.7411,-4.7702,-4.7499,-4.7419,-4.7907,-4.8006,-4.7954,-4.8011,-4.8433,-4.8673,-4.8429,-4.7536,-4.6819,-4.6819,-4.7124,-4.719,-4.6887,-4.699,-4.7049,-4.6776,-4.6554,-4.646,-4.6389,-4.6263,-4.612,-4.613,-4.584,-4.5987,-4.6193,-4.6269,-4.6095,-4.606,-4.619,-4.6525,-4.7286,-4.7723,-4.8151,-5.0827,-5.0253,-4.9769,-4.9749,-4.9958,-4.8468,-4.7669,-4.7371,-4.7102,-4.6932,-4.6913,-4.7813,-4.8217,-4.8276,-4.9013,-4.9415,-4.9528,-4.9523,-4.9932,0.0,-5.0948,-5.1416,-5.1994,-5.2327,-5.2397,-5.2219,-5.2291,-5.2315,-5.2206,-5.2183,-5.1982,-5.1497,-5.0769,-5.0138,-4.9608,-4.8396,-4.8396,-4.9579,-4.7062,-4.5703,-4.5669,-4.4857,-4.4384,-4.431,-4.4175,-4.3775,-4.3105,-4.3741,-4.3842,-4.3274,-4.3836,-4.4242,-4.4445,-4.5055,-4.5799,-4.6515,-4.6259,-4.6651,-4.7942,-4.7544,-4.7563,-4.8411,-4.884,-4.8467,-4.6926,-4.6048,-4.6079,-4.7125,-4.6597,-4.6281,-4.6507,-4.6625,-4.6719,-4.6926,-4.727,-4.7356,-4.7075,-4.7939,-4.8576,-4.8662,-4.8598,-4.8726,-4.9098,-4.9272,-4.9272,-4.9402,-4.9715,-5.0141,-4.9331,-4.857,-4.7968,-4.7813,-4.7834,-4.7834,-4.7731,-4.7793,-4.7772,-4.7772,-4.7669,-4.7464,-4.7146,-4.7469,-4.7641,-4.7439,-4.7717,-4.8166,-4.8325,-4.7851,-4.7592,-4.7521,-4.7948,-4.8579,-4.8843,-4.9678,-5.032,-5.1877,-5.1761,-5.1056,-5.0973,-5.1308,-5.0443,-4.9806,-4.9342,-4.9107,-4.8273,-4.7272,-4.807,-4.8497,-4.8637,-4.946,-4.9875,-5.0023,-5.0389,-5.0787,-5.123,-5.1651,-5.2025,-5.2387,-5.2457,-5.248,-5.248,-5.248,-5.248,-5.248,-5.248,-5.2186,-5.1576,-5.0706,-4.9988,-4.9406,-4.8799,-4.8799,-4.9342,-4.7339,-4.6481,-4.6887,-4.5771,-4.5196,-4.5196,-4.5568,-4.5432,-4.4688,-4.5365,-4.5432,-4.4688,-4.545,-4.5711,-4.5371,-4.651,-4.7321,-4.7627,-4.7413,-4.7744,-4.8801,-4.8646,-4.8557,-4.8638,-4.9187,-4.9319,-4.8837,-4.7696,-4.7262,-4.7832,-4.7156,-4.7189,-4.8295,-4.8102,-4.7983,-4.8357,-4.8951,-4.9045,-4.8608,-4.9237,-4.9872,-4.9893,-4.9893,-4.983,-4.9627,-4.9978,-5.0051,-4.9794,-5.0288,-5.0472,-4.9757,-4.9277,-4.8779,-4.828,-4.817,-4.817,-4.8151,-4.8111,-4.8128,-4.8092,-4.8032,-4.7951,-4.7767,-4.8257,-4.8451,-4.8344,-4.8805,-4.9186,-4.9459,-4.9623,-4.9385,-4.9062,-4.9611,-5.008,-5.009,-5.0744,-5.1254,-5.2912,-5.3069,-5.2211,-5.2069,-5.24,-5.2462,-5.2068,-5.1417,-5.1094,-4.9919,-4.8302,-4.8798,-4.9136,-4.9334,-5.0101,-5.0529,-5.0705,-5.1285,-5.1574,-5.1611,-5.2009,-5.2226,-5.2226,-5.2226,-5.2226,-5.2263,-5.2408,-5.248,-5.248,-5.248,-5.2138,-5.1337,-5.0272,-4.9466,-4.9018,-4.9018,-4.9018,-4.8917,-4.7699,-4.7327,-4.7804,-4.6756,-4.6181,-4.6244,-4.6752,-4.6786,-4.6278,-4.6583,-4.6549,-4.6041,-4.6598,-4.6719,-4.6266,-4.751,-4.8348,-4.8377,-4.8552,-4.8873,-4.9452,-4.9698,-4.9613,-4.9284,-4.9757,-5.0201,-5.0438,-4.9623,-4.8974,-4.8902,-4.8349,-4.8518,-4.9727,-4.961,-4.9409,-4.9865,-5.0398,-5.0452,-5.0031,-5.0582,-5.1059,-5.1059,-5.1059,-5.0765,-5.0215,-5.0545,-5.0912,-5.0729,-5.0986,-5.0986,-5.0345,-5.0014,-4.9554,-4.904,-4.86,-4.8323,-4.8287,-4.8248,-4.8226,-4.8226,-4.835,-4.846,-4.8603,-4.8982,-4.9582,-4.9873,-5.0073,-5.0606,-5.0925,-5.1064,-5.1027,-5.0591,-5.11,-5.1606,-5.1573,-5.1765,-5.2047,-5.3956,-5.339,-5.3267,-5.3129,-5.3139,-5.3837,-5.3521,-5.2567,-5.2438,-5.1655,-5.0554,-5.0736,-5.0885,-5.1004,-5.1795,-5.2226,-5.2226,-5.2335,-5.2371,-5.2263,-5.1719,-5.1393,-5.1466,-5.1466,-5.1393,-5.1538,-5.219,-5.2552,-5.248,-5.247,-5.1909,-5.0778,-4.9639,-4.9111,-4.9018,-4.9018,-4.9018,-4.8984,-4.8206,-4.7838,-4.7872,-4.777,-4.7669,-4.7703,-4.7767,-4.7736,-4.7729,-4.7124,-4.6815,-4.6718,-4.6844,-4.6869,-4.6986,-4.7695,-4.823,-4.8441,-4.8966,-4.9404,-4.9598,-4.9847,-5.0171,-5.0589,-5.1076,-5.1296,-5.1184,-5.1435,-5.1632,-5.1391,-5.0842,-5.0419,-5.0705,-5.0648,-5.0574,-5.0672,-5.0839,-5.0765,-5.0802,-5.1389,-5.1867,-5.1867,-5.1867,-5.1573,-5.0949,-5.1316,-5.205,-5.2454,-5.2564,-5.2401,-5.1667,-5.1173,-5.0769,-5.0345,-4.9407,-4.8563,-4.8489,-4.8343,-4.8488,-4.8488,-4.8984,-4.9351,-4.9641,-5.0631,-5.182,-5.184,-5.2636,-5.2922,-5.3112,-5.3014,-5.2004,-5.1867,-5.2328,-5.3118,-5.369,-5.3485,-5.3038,-5.4602,-5.43,-5.43,-5.4216,-5.4283,-5.5076,-5.5163,-5.4752,-5.4671,-5.4367,-5.3887,-5.3504,-5.2844,-5.2012,-5.2819,-5.3204,-5.3204,-5.3204,-5.2915,-5.2516,-5.2154,-5.2009,-5.2045,-5.2516,-5.248,-5.2118,-5.2842,-5.2951,-5.2532,-5.2251,-5.1891,-5.14,-5.0557,-4.9998,-4.9656,-4.9585,-4.9585,-4.9658,-4.8917,-4.8781,-4.9052,-4.8376,-4.8108,-4.8545,-4.8984,-4.9403,-4.9731,-4.9487,-4.9222,-4.918,-4.9004,-4.8747,-4.8321,-4.8873,-4.9232,-4.9354,-4.9579,-5.0147,-5.0943,-5.069,-5.0904,-5.1882,-5.2061,-5.2017,-5.195,-5.2397,-5.2711,-5.2564,-5.1573,-5.1132,-5.1977,-5.1793,-5.1499,-5.1573,-5.1903,-5.205,-5.1573,-5.2234,-5.2711,-5.2711,-5.2711,-5.2417,-5.1756,-5.1793,-5.2344,-5.3004,-5.323,-5.2978,-5.2226,-5.2213,-5.2217,-5.1794,-5.1426,-5.0905,-5.0071,-4.9774,-4.9738,-4.9811,-5.0068,-5.0288,-5.0472,-5.1646,-5.2858,-5.3188,-5.3812,-5.4216,-5.4231,-5.4436,-5.3959,-5.3335,-5.2821,-5.3314,-5.3665,-5.3493,-5.32,-5.492,-5.492,-5.492,-5.5148,-5.5602,-5.6019,-5.6323,-5.6541,-5.6494,-5.62,-5.5741,-5.5368,-5.4587,-5.3626,-5.3892,-5.3929,-5.3711,-5.3711,-5.3277,-5.2516,-5.2299,-5.2154,-5.2226,-5.2733,-5.2878,-5.2697,-5.3277,-5.3423,-5.2858,-5.2414,-5.2207,-5.2089,-5.1645,-5.1098,-5.0651,-5.0538,-5.0459,-5.0311,-4.9822,-4.9898,-5.0202,-4.956,-4.9187,-4.9357,-4.9796,-5.0308,-5.0735,-5.0759,-5.0725,-5.0612,-5.0452,-5.008,-4.9403,-4.9689,-5.0005,-5.0212,-5.027,-5.0869,-5.211,-5.1544,-5.1653,-5.2777,-5.2654,-5.2454,-5.2649,-5.2995,-5.3203,-5.3093,-5.216,-5.205,-5.2837,-5.2674,-5.2344,-5.238,-5.2894,-5.3004,-5.2747,-5.3225,-5.3628,-5.3812,-5.3702,-5.3225,-5.2491,-5.2197,-5.227,-5.3046,-5.3477,-5.3523,-5.3048,-5.3404,-5.3629,-5.3316,-5.3649,-5.2998,-5.1564,-5.0826,-5.0842,-5.0565,-5.0492,-5.0752,-5.0952,-5.2201,-5.345,-5.3729,-5.4589,-5.484,-5.4436,-5.473,-5.4715,-5.3702,-5.3203,-5.3203,-5.3277,-5.3203,-5.3203,-5.492,-5.492,-5.492,-5.5754,-5.7194,-5.6474,-5.6626,-5.7194,-5.7305,-5.6486,-5.5319,-5.5795,-5.5963,-5.5716,-5.5184,-5.4472,-5.382,-5.382,-5.3385,-5.2648,-5.1864,-5.1393,-5.1344,-5.1393,-5.1864,-5.2733,-5.353,-5.3844,-5.3804,-5.3223,-5.2951,-5.2923,-5.2433,-5.2056,-5.1863,-5.1928,-5.1731,-5.1047,-5.0963,-5.1082,-5.1185,-5.1725,-5.1251,-5.0367,-5.0135,-5.0206,-5.013,-5.0131,-5.0192,-5.0165,-5.0356,-5.0184,-4.9806,-4.9772,-5.0161,-5.069,-5.0951,-5.1625,-5.2616,-5.2272,-5.2395,-5.3279,-5.2902,-5.2627,-5.3039,-5.3124,-5.3203,-5.3167,-5.302,-5.302,-5.313,-5.3093,-5.302,-5.302,-5.313,-5.3482,-5.4179,-5.4142,-5.4693,-5.5023,-5.4546,-5.3812,-5.313,-5.2454,-5.2553,-5.324,-5.4018,-5.4469,-5.4552,-5.4609,-5.4929,-5.5357,-5.5114,-5.4109,-5.2495,-5.2103,-5.1179,-5.0882,-5.1417,-5.1148,-5.1477,-5.2103,-5.3302,-5.4059,-5.4306,-5.4412,-5.428,-5.3995,-5.365,-5.3209,-5.3225,-5.3225,-5.3203,-5.3203,-5.3203,-5.492,-5.492,-5.492,-5.5261,-5.5792,-5.6057,-5.636,-5.6686,-5.7482,-5.7321,-5.6754,-5.7117,-5.7234,-5.6964,-5.6673,-5.6043,-5.5317,-5.5209,-5.4774,-5.4059,-5.3191,-5.3096,-5.3566,-5.3603,-5.3711,-5.411,-5.4798,-5.4997,-5.4554,-5.3672,-5.3345,-5.3695,-5.3585,-5.327,-5.2879,-5.2718,-5.2424,-5.187,-5.1449,-5.142,-5.186,-5.1725,-5.1951,-5.2841,-5.1983,-5.1651,-5.2011,-5.1262,-5.1188,-5.2041,-5.1109,-5.0685,-5.0951,-5.1173,-5.1355,-5.1598,-5.2074,-5.3125,-5.4424,-5.367,-5.3519,-5.4615,-5.3646,-5.2937,-5.3161,-5.3203,-5.3203,-5.3203,-5.3203,-5.3203,-5.3203,-5.3203,-5.3203,-5.3203,-5.3203,-5.3555,-5.4179,-5.4399,-5.4546,-5.4656,-5.4142,-5.3518,-5.3371,-5.2994,-5.3203,-5.3949,-5.4272,-5.4723,-5.5441,-5.5822,-5.6369,-5.706,-5.7416,-5.7248,-5.6419,-5.4963,-5.39,-5.3285,-5.3158,-5.3084,-5.3272,-5.3627,-5.4669,-5.4876,-5.4764,-5.4743,-5.4889,-5.3994,-5.3494,-5.3464,-5.3461,-5.3293,-5.3203,-5.3209,-5.3188,-5.492,-5.492,-5.492,-5.5072,-5.5337,-5.564,-5.5943,-5.6292,-5.7212,-5.7436,-5.7275,-5.7845,-5.7983,-5.7631,-5.7486,-5.7231,-5.6685,-5.6225,-5.5632,-5.5002,-5.4375,-5.4399,-5.4834,-5.4907,-5.5051,-5.5341,-5.6029,-5.6078,-5.5464,-5.4617,-5.4443,-5.4847,-5.4882,-5.4655,-5.4202,-5.3921,-5.353,-5.2903,-5.2257,-5.2232,-5.2604,-5.2469,-5.3099,-5.4463,-5.3663,-5.331,-5.3847,-5.2466,-5.2053,-5.2666,-5.1517,-5.0878,-5.1389,-5.1787,-5.1934,-5.1961,-5.2544,-5.3753,-5.5146,-5.4327,-5.414,-5.5383,-5.4142,-5.3203,-5.3203,-5.3203,-5.3203,-5.3203,-5.3203,-5.3203,-5.324,-5.3445,-5.357,-5.3592,-5.3592,-5.4032,-5.4987,-5.5207,-5.5097,-5.484,-5.4216,-5.3812,-5.3849,-5.3529,-5.4165,-5.5518,-5.5545,-5.5828,-5.6853,-5.7679,-5.8061,-5.8513,-5.8927,-5.8907,-5.8394,-5.7341,-5.5548,-5.4783,-5.4373,-5.4464,-5.461,-5.5073,-5.5457,-5.5567,-5.5642,-5.5587,-5.5134,-5.4186,-5.3868,-5.387,-5.3643,-5.3444,-5.3359,-5.3272,-5.3424,-5.4905,-5.4852,-5.492,-5.5337,-5.583,-5.5299,-5.5413,-5.6125,-5.6698,-5.6817,-5.6662,-5.7709,-5.8074,-5.7679,-5.7607,-5.7655,-5.7496,-5.6649,-5.5862,-5.5303,-5.5015,-5.5003,-5.5148,-5.5076,-5.5438,-5.6042,-5.679,-5.6809,-5.6204,-5.5976,-5.5948,-5.6158,-5.6122,-5.5929,-5.5905,-5.5319,-5.4881,-5.4122,-5.3498,-5.3382,-5.3585,-5.3923,-5.4666,-5.5577,-5.4949,-5.4852,-5.5382,-5.357,-5.2565,-5.2537,-5.159,-5.0841,-5.1119,-5.1546,-5.1729,-5.1933,-5.2396,-5.3451,-5.4593,-5.4121,-5.4209,-5.5009,-5.4069,-5.3203,-5.3203,-5.3203,-5.3203,-5.3203,-5.3203,-5.3203,-5.3314,-5.3849,-5.4216,-5.4363,-5.4179,-5.4876,-5.6014,-5.6638,-5.6455,-5.5647,-5.4913,-5.4803,-5.5067,-5.4638,-5.5023,-5.7307,-5.7731,-5.7751,-5.8726,-5.9554,-6.0139,-5.9857,-5.9701,-5.9636,-5.9614,-5.9345,-5.7413,-5.5804,-5.546,-5.5325,-5.529,-5.5579,-5.6034,-5.6206,-5.5913,-5.5848,-5.5259,-5.4418,-5.4268,-5.4193,-5.3925,-5.3867,-5.3839,-5.3887,-5.3944,-5.4745,-5.4533,-5.4791,-5.5034,-5.5261,-5.4996,-5.5072,-5.542,-5.6396,-5.6703,-5.6722,-5.7835,-5.8209,-5.7927,-5.781,-5.7834,-5.7867,-5.7352,-5.7024,-5.6768,-5.6127,-5.6104,-5.6406,-5.6067,-5.6225,-5.6891,-5.684,-5.6635,-5.642,-5.5978,-5.5865,-5.6229,-5.6311,-5.6286,-5.6223,-5.5667,-5.5049,-5.4364,-5.3778,-5.3518,-5.3518,-5.3721,-5.4658,-5.6134,-5.5742,-5.6111,-5.7579,-5.4614,-5.3058,-5.3277,-5.2748,-5.232,-5.2298,-5.2756,-5.3049,-5.3062,-5.3663,-5.4412,-5.5062,-5.4619,-5.4275,-5.4524,-5.3812,-5.3277,-5.3203,-5.3203,-5.3203,-5.3203,-5.3203,-5.3203,-5.3314,-5.3922,-5.4216,-5.3644,-5.4069,-5.4656,-5.528,-5.5317,-5.5611,-5.6198,-5.5721,-5.5912,-5.6846,-5.6381,-5.6874,-5.9014,-5.8651,-5.8346,-5.9921,-6.0219,-5.9907,-5.9968,-6.0036,-6.0294,-6.0355,-6.0241,-5.9064,-5.7696,-5.7168,-5.6497,-5.6338,-5.6469,-5.688,-5.6866,-5.6511,-5.6045,-5.5413,-5.507,-5.5025,-5.4867,-5.489,-5.4816,-5.4651,-5.4703,-5.4891,-5.5136,-5.4781,-5.5199,-5.5375,-5.5375,-5.5375,-5.545,-5.5724,-5.6732,-5.6987,-5.6972,-5.7814,-5.8186,-5.802,-5.7927,-5.7927,-5.7973,-5.7797,-5.781,-5.776,-5.7109,-5.7,-5.7412,-5.7242,-5.7389,-5.785,-5.7546,-5.7159,-5.6897,-5.6412,-5.6357,-5.674,-5.6793,-5.6793,-5.6688,-5.5915,-5.5184,-5.473,-5.3946,-5.3518,-5.3518,-5.3551,-5.4578,-5.6358,-5.6148,-5.6814,-5.8215,-5.5835,-5.4437,-5.4422,-5.4031,-5.3661,-5.3609,-5.3866,-5.3978,-5.3971,-5.4064,-5.4506,-5.5368,-5.4818,-5.473,-5.495,-5.4289,-5.3665,-5.3592,-5.3482,-5.3298,-5.3592,-5.3644,-5.3922,-5.4509,-5.4656,-5.473,-5.462,-5.506,-5.528,-5.5317,-5.5317,-5.5684,-5.6492,-5.6602,-5.7404,-5.8399,-5.8216,-5.8815,-6.0616,-6.0257,-5.9488,-6.1133,-6.1425,-6.1294,-6.1094,-6.0979,-6.1147,-6.116,-6.0928,-6.0541,-5.974,-5.9025,-5.8221,-5.7709,-5.804,-5.8395,-5.8179,-5.7851,-5.7301,-5.6715,-5.6387,-5.62,-5.6072,-5.604,-5.5998,-5.5986,-5.5958,-5.6108,-5.6004,-5.5679,-5.6084,-5.6277,-5.6262,-5.6262,-5.6377,-5.6719,-5.7361,-5.7367,-5.7196,-5.7729,-5.802,-5.7997,-5.7973,-5.7997,-5.7997,-5.7997,-5.7973,-5.7927,-5.7653,-5.7595,-5.7716,-5.8153,-5.8518,-5.8677,-5.8565,-5.8164,-5.7522,-5.7289,-5.7461,-5.7461,-5.7461,-5.7559,-5.7252,-5.6204,-5.5588,-5.5297,-5.4299,-5.3717,-5.3618,-5.3751,-5.4698,-5.6651,-5.6311,-5.6652,-5.7715,-5.7255,-5.6584,-5.6042,-5.5269,-5.4931,-5.4856,-5.4655,-5.4496,-5.4481,-5.3754,-5.4319,-5.5133,-5.5023,-5.506,-5.6088,-5.5207,-5.4436,-5.4252,-5.3922,-5.3812,-5.4216,-5.4363,-5.506,-5.6051,-5.6198,-5.6161,-5.6822,-5.6712,-5.6602,-5.6748,-5.6748,-5.7005,-5.7262,-5.774,-5.88,-6.0411,-5.9567,-6.0645,-6.2476,-6.2631,-6.2162,-6.2648,-6.2987,-6.331,-6.2835,-6.2003,-6.1696,-6.1618,-6.1015,-6.0666,-6.0465,-5.9995,-5.9622,-5.9038,-5.9331,-5.9342,-5.9149,-5.9092,-5.8549,-5.8132,-5.7835,-5.7624,-5.7568,-5.7505,-5.7438,-5.7365,-5.7288,-5.7537,-5.6781,-5.6635,-5.7051,-5.7194,-5.7172,-5.7172,-5.696,-5.6814,-5.7435,-5.7455,-5.7227,-5.7684,-5.7997,-5.7997,-5.7997,-5.7997,-5.7997,-5.7997,-5.7997,-5.7997,-5.795,-5.82,-5.8506,-5.875,-5.9006,-5.9078,-5.8957,-5.8385,-5.7776,-5.7656,-5.7595,-5.7583,-5.7753,-5.768,-5.7425,-5.6855,-5.6185,-5.5766,-5.5302,-5.4617,-5.4114,-5.4338,-5.4987,-5.6028,-5.609,-5.6695,-5.7844,-5.7881,-5.7449,-5.6865,-5.6489,-5.6273,-5.6177,-5.5654,-5.528,-5.5244,-5.5097,-5.506,-5.5427,-5.5449,-5.5537,-5.5794,-5.5611,-5.5023,-5.4473,-5.4766,-5.473,-5.4693,-5.4876,-5.5721,-5.6638,-5.7189,-5.7923,-5.8951,-5.8033,-5.7042,-5.7005,-5.7336,-5.8107,-5.9208,-5.9669,-6.0719,-6.1684,-6.1855,-6.2007,-6.3653,-6.3527,-6.2747,-6.3622,-6.3822,-6.3795,-6.3231,-6.2565,-6.2219,-6.1846,-6.1192,-6.0819,-6.0781,-6.0681,-6.0731,-6.0354,-6.0376,-6.008,-5.9656,-6.0068,-5.9779,-5.9524,-5.924,-5.9163,-5.9237,-5.9321,-5.9367,-5.8805,-5.8597,-5.8975,-5.7645,-5.7294,-5.7885,-5.8128,-5.8068,-5.7908,-5.775,-5.7697,-5.7896,-5.7772,-5.7493,-5.7785,-5.7997,-5.7997,-5.7997,-5.7997,-5.7997,-5.7997,-5.7997,-5.807,-5.834,-5.8721,-5.9066,-5.9249,-5.9469,-5.9639,-5.9761,-5.9444,-5.8933,-5.8653,-5.8653,-5.8823,-5.8774,-5.8774,-5.8823,-5.813,-5.7649,-5.7295,-5.6894,-5.619,-5.5453,-5.5575,-5.5947,-5.641,-5.6473,-5.7015,-5.7881,-5.8327,-5.8309,-5.7959,-5.7577,-5.7299,-5.7226,-5.6565,-5.6088,-5.6088,-5.5794,-5.5684,-5.6051,-5.6088,-5.6271,-5.6455,-5.6345,-5.5904,-5.5537,-5.5611,-5.5354,-5.5574,-5.5868,-5.6638,-5.7703,-5.8547,-5.9208,-5.9575,-5.9208,-5.851,-5.796,-5.8584,-5.9355,-6.026,-6.1163,-6.2116,-6.3527,-6.3214,-6.3801,-6.4595,-6.4419,-6.4176,-6.4359,-6.427,-6.4205,-6.3858,-6.3474,-6.3192,-6.2808,-6.2243,-6.1858,-6.1704,-6.2204,-6.2151,-6.1724,-6.1593,-6.1362,-6.1135,-6.1171,-6.1224,-6.1134,-6.1119,-6.1166,-6.1239,-6.1378,-6.1168,-6.0662,-5.9962,-6.0342,-5.8509,-5.7885,-5.871,-5.9048,-5.9003,-5.8613,-5.8573,-5.876,-5.8549,-5.8179,-5.7877,-5.7914,-5.7997,-5.7997,-5.818,-5.818,-5.818,-5.8437,-5.84,-5.8621,-5.8988,-5.9404,-5.9443,-5.9956,-6.0249,-6.0432,-6.0978,-6.0638,-6.0115,-6.0005,-6.0164,-6.009,-6.0212,-6.0285,-5.9969,-5.9583,-5.9381,-5.9024,-5.8562,-5.7929,-5.7324,-5.7294,-5.7476,-5.7501,-5.749,-5.791,-5.8503,-5.8841,-5.9051,-5.9441,-5.8621,-5.818,-5.8033,-5.7373,-5.6969,-5.6859,-5.6418,-5.6345,-5.6785,-5.6932,-5.7189,-5.7556,-5.7226,-5.6859,-5.6602,-5.6271,-5.6235,-5.6492,-5.6895,-5.7923,-5.9245,-6.0199,-6.0419,-6.0382,-6.097,-6.0884,-6.0197,-6.026,-6.0639,-6.0737,-6.2144,-6.3296,-6.4049,-6.4323,-6.4495,-6.5469,-6.5188,-6.49,-6.4999,-6.5103,-6.5128,-6.5089,-6.4705,-6.4243,-6.382,-6.3358,-6.3128,-6.2974,-6.3897,-6.4025,-6.3202,-6.2995,-6.2929,-6.2894,-6.3092,-6.322,-6.3219,-6.3228,-6.3145,-6.2887,-6.2734,-6.2744,-6.2648,-6.1755,-6.1678,-5.9204,-5.9375,-5.9862,-6.0018,-5.9953,-5.9582,-5.921,-5.889,-5.8619,-5.8209,-5.7927,-5.795,-5.7997,-5.807,-5.8621,-5.8927,-5.9048,-5.9512,-5.9869,-5.9905,-6.0015,-6.009,-6.0164,-6.0749,-6.1128,-6.1226,-6.1185,-6.0918,-6.0518,-6.0457,-6.0298,-6.0469,-6.0639,-6.0419,-6.0444,-6.0432,-5.9928,-5.9647,-5.9683,-5.9349,-5.8738,-5.8813,-5.8961,-5.896,-5.8796,-5.9481,-6.0078,-5.9134,-5.9208,-6.0199,-5.9758,-5.8877,-5.8707,-5.8107,-5.7703,-5.7629,-5.7519,-5.7483,-5.7666,-5.7666,-5.7776,-5.7886,-5.7776,-5.7483,-5.6895,-5.7262,-5.7152,-5.7262,-5.7937,-5.9208,-6.0822,-6.1802,-6.2108,-6.2156,-6.2511,-6.2788,-6.2604,-6.2385,-6.2254,-6.2474,-6.2838,-6.3618,-6.4784,-6.4458,-6.4936,-6.6015,-6.5987,-6.5485,-6.5561,-6.5769,-6.5782,-6.5705,-6.5551,-6.5089,-6.482,-6.4551,-6.4512,-6.4666,-6.5551,-6.6128,-6.5307,-6.5088,-6.5281,-6.5256,-6.5116,-6.514,-6.487,-6.4907,-6.4723,-6.4426,-6.4015,-6.381,-6.3542,-6.3034,-6.2741,-5.9605,-5.9842,-6.0241,-6.027,-6.0007,-5.9643,-5.9197,-5.875,-5.8428,-5.8119,-5.795,-5.7973,-5.8217,-5.8584,-5.9024,-5.9448,-6.0061,-6.0476,-6.0941,-6.1094,-6.1137,-6.1141,-6.1459,-6.1677,-6.186,-6.1567,-6.1784,-6.1652,-6.1482,-6.1385,-6.1557,-6.1533,-6.152,-6.163,-6.152,-6.1484,-6.1409,-6.1295,-6.1272,-6.1007,-6.0377,-6.0346,-6.0205,-6.0063,-5.9871,-6.0272,-6.0676,-5.9905,-5.9905,-6.0382,-5.9881,-5.9221,-5.9074,-5.8474,-5.8033,-5.7997,-5.7997,-5.7997,-5.796,-5.7997,-5.796,-5.7997,-5.7997,-5.7776,-5.7519,-5.7813,-5.7813,-5.774,-5.857,-6.0013,-6.215,-6.2751,-6.3353,-6.447,-6.4659,-6.4709,-6.4422,-6.3803,-6.3363,-6.3587,-6.375,-6.4404,-6.4835,-6.5049,-6.5363,-6.6421,-6.6217,-6.578,-6.5717,-6.5859,-6.5974,-6.5974,-6.6013,-6.5859,-6.5743,-6.5705,-6.5936,-6.6436,-6.7359,-6.7859,-6.7757,-6.7795,-6.8013,-6.7448,-6.6705,-6.6333,-6.6139,-6.6214,-6.5942,-6.5312,-6.4838,-6.4608,-6.4353,-6.4008,-6.3792,-5.976,-5.9842,-6.0159,-6.0114,-5.9739,-5.9325,-5.8929,-5.8566,-5.8164,-5.802,-5.8033,-5.8107,-5.8547,-5.8927,-5.9538,-6.0296,-6.1226,-6.1537,-6.2012,-6.2598,-6.2303,-6.2401,-6.273,-6.2753,-6.242,-6.1573,-6.2124,-6.2457,-6.2533,-6.2693,-6.2487,-6.2707,-6.2732,-6.2548,-6.2695,-6.2768,-6.2572,-6.2473,-6.2473,-6.2347,-6.1911,-6.1759,-6.1385,-6.1031,-6.0628,-6.0786,-6.097,-6.0566,-6.0493,-6.0676,-5.9881,-5.9515,-5.9294,-5.851,-5.7997,-5.7997,-5.7997,-5.7997,-5.7997,-5.7997,-5.7997,-5.7997,-5.818,-5.8107,-5.8033,-5.8143,-5.8253,-5.8584,-5.9305,-6.0783,-6.3206,-6.3682,-6.4577,-6.5839,-6.6562,-6.648,-6.5859,-6.4908,-6.4819,-6.4575,-6.4991,-6.5653,-6.6045,-6.6311,-6.651,-6.6636,-6.6367,-6.6205,-6.6205,-6.632,-6.6667,-6.6936,-6.7128,-6.7051,-6.6898,-6.6821,-6.7051,-6.7513,-6.859,-6.8975,-6.936,-6.9513,-6.9283,-6.8667,-6.8077,-6.7704,-6.7268,-6.7011,-6.6625,-6.5981,-6.5559,-6.5279,-6.5087,-6.4983,-6.4843,-5.9502,-5.9772,-5.9874,-5.9858,-5.9673,-5.9008,-5.8669,-5.8524,-5.8186,-5.7997,-5.807,-5.8694,-5.868,-5.8901,-6.0456,-6.1832,-6.2754,-6.2991,-6.3446,-6.4039,-6.3763,-6.3624,-6.3632,-6.3757,-6.3266,-6.264,-6.2713,-6.2874,-6.2803,-6.278,-6.2927,-6.2842,-6.2879,-6.2915,-6.2989,-6.2842,-6.2915,-6.2952,-6.2879,-6.2679,-6.2606,-6.2485,-6.2438,-6.2108,-6.1667,-6.1704,-6.1851,-6.119,-6.1006,-6.2071,-6.097,-6.0639,-6.0382,-5.9061,-5.829,-5.818,-5.8143,-5.818,-5.8253,-5.807,-5.7997,-5.8143,-5.8621,-5.8621,-5.8437,-5.8657,-5.9024,-5.9465,-6.0419,-6.1961,-6.3763,-6.4489,-6.5068,-6.6023,-6.6886,-6.7165,-6.7137,-6.7089,-6.664,-6.6135,-6.6496,-6.6835,-6.7109,-6.7378,-6.7523,-6.7626,-6.7535,-6.7436,-6.7436,-6.7667,-6.8052,-6.8321,-6.8552,-6.8359,-6.8129,-6.809,-6.8129,-6.8282,-6.8936,-6.9321,-6.9783,-7.036,-7.0244,-6.9398,-6.9167,-6.9115,-6.8602,-6.7987,-6.7422,-6.6907,-6.6383,-6.591,-6.582,-6.5755,-6.5756,-5.9432,-5.9772,-5.9772,-5.9554,-5.914,-5.8791,-5.8461,-5.8304,-5.8282,-5.8186,-5.8354,-5.8997,-5.9575,-6.0004,-6.1149,-6.2776,-6.3784,-6.3888,-6.4535,-6.5218,-6.4635,-6.4321,-6.4537,-6.4688,-6.4174,-6.372,-6.3731,-6.372,-6.3429,-6.3025,-6.3294,-6.3906,-6.3723,-6.3686,-6.3906,-6.3723,-6.3503,-6.3392,-6.3062,-6.2842,-6.2805,-6.2805,-6.2805,-6.2695,-6.2475,-6.2475,-6.2438,-6.1741,-6.1374,-6.1777,-6.1043,-6.0529,-6.0199,-5.9905,-5.9245,-5.9208,-5.8877,-5.8841,-5.9024,-5.8951,-5.8841,-5.9245,-5.9648,-5.9648,-5.9428,-5.9648,-6.0015,-6.0603,-6.1435,-6.3112,-6.5208,-6.5881,-6.6919,-6.8032,-6.8581,-6.8655,-6.8661,-6.9061,-6.8549,-6.7757,-6.776,-6.7952,-6.8065,-6.8311,-6.8468,-6.8562,-6.8615,-6.8629,-6.859,-6.8744,-6.9013,-6.9052,-6.9167,-6.9244,-6.9052,-6.9052,-6.9052,-6.9206,-6.9321,-6.9706,-7.0014,-7.0514,-7.036,-6.9706,-6.9783,-7.0052,-6.9629,-6.8885,-6.8333,-6.7743,-6.7166,-6.6679,-6.6564,-6.6487,-6.6513,-5.9432,-5.9772,-5.9744,-5.9345,-5.8892,-5.8867,-5.8826,-5.8733,-5.9032,-5.9026,-5.8799,-5.9804,-6.0645,-6.1171,-6.205,-6.3225,-6.4556,-6.4154,-6.4828,-6.5732,-6.5066,-6.4787,-6.5338,-6.5448,-6.5118,-6.4505,-6.4725,-6.4971,-6.4347,-6.3833,-6.42,-6.464,-6.453,-6.4629,-6.496,-6.4581,-6.4398,-6.3957,-6.3516,-6.3087,-6.2842,-6.2805,-6.2805,-6.2805,-6.2805,-6.2743,-6.2732,-6.2218,-6.1887,-6.1851,-6.1337,-6.0713,-6.0236,-6.0542,-6.086,-6.075,-5.9979,-5.9942,-5.9979,-5.9869,-5.9685,-6.0089,-6.0493,-6.0529,-6.0529,-6.0603,-6.1117,-6.1667,-6.2965,-6.4116,-6.5963,-6.733,-6.8526,-6.9637,-7.0206,-7.0493,-7.0032,-7.0028,-7.0162,-6.961,-6.9206,-6.9102,-6.9253,-6.9369,-6.9536,-6.9536,-6.9629,-6.9552,-6.9513,-6.9398,-6.9513,-6.9475,-6.959,-6.9898,-6.9937,-6.9937,-6.9937,-6.9975,-7.0014,-7.0167,-7.0321,-7.0552,-7.0244,-7.009,-7.036,-7.0514,-7.0129,-6.9744,-6.9154,-6.85,-6.7859,-6.7513,-6.7423,-6.7385,-6.7398,-5.9432,-5.9777,-5.9432,-5.9419,-5.9669,-5.9764,-6.0168,-6.0624,-6.0651,-6.0815,-6.0565,-6.1484,-6.1602,-6.1672,-6.2453,-6.3383,-6.3869,-6.392,-6.4503,-6.5729,-6.546,-6.55,-6.6219,-6.6366,-6.5915,-6.5364,-6.5375,-6.5264,-6.5154,-6.5007,-6.5044,-6.5338,-6.5375,-6.5353,-6.5713,-6.5455,-6.4965,-6.4438,-6.4217,-6.3738,-6.3062,-6.2952,-6.2915,-6.2879,-6.2842,-6.2805,-6.2805,-6.2585,-6.2548,-6.2548,-6.2548,-6.2438,-6.2377,-6.2413,-6.2511,-6.2108,-6.1263,-6.0309,-6.0529,-6.0382,-6.0382,-6.0786,-6.1117,-6.1006,-6.1227,-6.1814,-6.2254,-6.1692,-6.3872,-6.551,-6.644,-6.7587,-6.8793,-6.9725,-7.0461,-7.0646,-7.058,-7.0469,-7.0654,-7.0667,-7.0052,-7.0206,-7.0409,-7.0538,-7.0629,-7.0629,-7.0552,-7.0475,-7.036,-7.0167,-7.009,-7.009,-7.0321,-7.0629,-7.0591,-7.0629,-7.0591,-7.0629,-7.0591,-7.0591,-7.0629,-7.0706,-7.0783,-7.0706,-7.0898,-7.0898,-7.0591,-7.0206,-6.9821,-6.9321,-6.8783,-6.8475,-6.8269,-6.8244,-6.8244,-6.0199,-6.0184,-6.0021,-6.0303,-6.0858,-6.0895,-6.1082,-6.1382,-6.1436,-6.1436,-6.1586,-6.2276,-6.265,-6.2865,-6.3691,-6.403,-6.4019,-6.3653,-6.4382,-6.5659,-6.5828,-6.6012,-6.6559,-6.713,-6.7084,-6.6371,-6.6402,-6.6769,-6.6476,-6.5888,-6.5632,-6.6476,-6.6256,-6.6334,-6.6648,-6.6353,-6.6072,-6.5692,-6.5299,-6.4731,-6.4225,-6.3796,-6.3539,-6.3503,-6.3062,-6.2842,-6.2805,-6.2805,-6.2805,-6.2805,-6.2805,-6.2548,-6.2365,-6.2438,-6.2622,-6.2071,-6.1998,-6.1814,-6.1777,-6.1337,-6.1337,-6.1667,-6.2108,-6.2328,-6.2511,-6.3062,-6.3723,-6.3796,-6.5287,-6.6466,-6.712,-6.8268,-6.9284,-7.015,-7.0708,-7.0838,-7.0993,-7.0857,-7.086,-7.0898,-7.0937,-7.1014,-7.1091,-7.1014,-7.0975,-7.0937,-7.0821,-7.0706,-7.0667,-7.0629,-7.0629,-7.0706,-7.1052,-7.1437,-7.1283,-7.1168,-7.1091,-7.1052,-7.0821,-7.0821,-7.0821,-7.086,-7.0898,-7.0898,-7.0898,-7.0898,-7.086,-7.0706,-7.0321,-7.0014,-6.9706,-6.9398,-6.9129,-6.9129,-6.9244,-6.0725,-6.0903,-6.0715,-6.1149,-6.1976,-6.1921,-6.2109,-6.2485,-6.2542,-6.2504,-6.2636,-6.3163,-6.3784,-6.4161,-6.4389,-6.4275,-6.3892,-6.3535,-6.4369,-6.5332,-6.6145,-6.658,-6.7296,-6.8012,-6.821,-6.7247,-6.7667,-6.7898,-6.7577,-6.71,-6.6953,-6.7687,-6.7357,-6.7537,-6.7852,-6.772,-6.7266,-6.6604,-6.584,-6.5356,-6.507,-6.442,-6.4127,-6.3796,-6.3356,-6.2805,-6.2805,-6.2805,-6.2805,-6.2805,-6.2805,-6.2585,-6.2291,-6.2511,-6.2585,-6.2291,-6.2365,-6.2585,-6.2475,-6.2254,-6.2328,-6.2658,-6.3172,-6.3429,-6.4163,-6.4494,-6.4692,-6.5059,-6.6494,-6.737,-6.8082,-6.892,-7.0017,-7.0659,-7.1165,-7.1286,-7.143,-7.164,-7.1591,-7.1475,-7.1475,-7.1398,-7.1398,-7.1321,-7.1283,-7.1206,-7.1091,-7.0975,-7.1014,-7.1091,-7.1091,-7.1129,-7.1552,-7.1898,-7.186,-7.1706,-7.1629,-7.1514,-7.1245,-7.1052,-7.1014,-7.0937,-7.0898,-7.0898,-7.086,-7.0629,-7.0437,-7.0667,-7.086,-7.0552,-7.0244,-7.0129,-6.9975,-6.9975,-7.0027,-6.0448,-6.2122,-6.1309,-6.1687,-6.2824,-6.242,-6.3166,-6.4227,-6.4398,-6.4343,-6.4287,-6.4658,-6.4641,-6.463,-6.4332,-6.4036,-6.3572,-6.3062,-6.4205,-6.5472,-6.6519,-6.7526,-6.8405,-6.9197,-6.9521,-6.9198,-6.9063,-6.886,-6.8788,-6.8531,-6.8091,-6.7834,-6.8164,-6.872,-6.9026,-6.8882,-6.8181,-6.7331,-6.6381,-6.5786,-6.539,-6.4824,-6.4347,-6.409,-6.3429,-6.278,-6.2842,-6.3062,-6.3025,-6.3025,-6.3025,-6.2842,-6.2658,-6.2732,-6.2658,-6.2658,-6.2658,-6.2879,-6.2879,-6.2768,-6.2793,-6.3025,-6.3626,-6.451,-6.5492,-6.6077,-6.6114,-6.6234,-6.7691,-6.8391,-6.8837,-6.9303,-7.0646,-7.1567,-7.2083,-7.2289,-7.251,-7.2794,-7.2706,-7.2283,-7.2091,-7.2129,-7.2091,-7.2091,-7.2129,-7.2091,-7.1822,-7.1668,-7.1552,-7.1591,-7.1475,-7.1552,-7.2014,-7.2245,-7.2322,-7.236,-7.2629,-7.2245,-7.1783,-7.1437,-7.1168,-7.1052,-7.0629,-7.0706,-7.0591,-7.0321,-7.0129,-7.0283,-7.0514,-7.0783,-7.0783,-7.0552,-7.0514,-7.0475,-7.0579,-6.1444,-6.2559,-6.1721,-6.2252,-6.3676,-6.354,-6.3832,-6.4318,-6.412,-6.432,-6.481,-6.5079,-6.4981,-6.4557,-6.435,-6.4129,-6.382,-6.3101,-6.4783,-6.6407,-6.7701,-6.8736,-6.9836,-7.0691,-7.0976,-7.045,-7.0135,-6.9526,-6.8962,-6.9412,-6.9119,-6.8825,-6.8935,-6.9382,-6.969,-6.9813,-6.9136,-6.8453,-6.7601,-6.7031,-6.6675,-6.6035,-6.5558,-6.5485,-6.4787,-6.4383,-6.4383,-6.4383,-6.4053,-6.3723,-6.3613,-6.3282,-6.2952,-6.2879,-6.2805,-6.2805,-6.2805,-6.3075,-6.3406,-6.3222,-6.3113,-6.4066,-6.4816,-6.5791,-6.6988,-6.7951,-6.8655,-6.9,-6.9154,-6.9729,-7.0972,-7.1055,-7.1483,-7.2509,-7.3048,-7.3255,-7.3615,-7.3923,-7.363,-7.3091,-7.3014,-7.3014,-7.3014,-7.2976,-7.3014,-7.2976,-7.2668,-7.2399,-7.2245,-7.2245,-7.2245,-7.2322,-7.2745,-7.3014,-7.3091,-7.336,-7.3707,-7.3053,-7.236,-7.1937,-7.1514,-7.0398,-7.009,-7.0244,-7.0206,-6.9744,-6.959,-6.9821,-6.9975,-7.0052,-7.0437,-7.086,-7.086,-7.0898,-7.0939,-6.1745,-6.2433,-6.2128,-6.2815,-6.4076,-6.3938,-6.3962,-6.4161,-6.4171,-6.4394,-6.5052,-6.5337,-6.5095,-6.4558,-6.4613,-6.4774,-6.4772,-6.4733,-6.6405,-6.7993,-6.945,-7.0265,-7.1446,-7.2184,-7.2149,-7.1499,-7.1106,-7.0565,-6.9853,-7.0257,-7.011,-6.9853,-6.9724,-7.0256,-7.0571,-7.0735,-7.0375,-6.9855,-6.9558,-6.8989,-6.8686,-6.7635,-6.6964,-6.668,-6.582,-6.5257,-6.5184,-6.5147,-6.4974,-6.4545,-6.4214,-6.3759,-6.3356,-6.2964,-6.2842,-6.283,-6.3039,-6.3432,-6.3898,-6.4205,-6.4348,-6.562,-6.6515,-6.7635,-6.8754,-6.9794,-7.0327,-7.0892,-7.0998,-7.1522,-7.2785,-7.2465,-7.3013,-7.4066,-7.387,-7.4038,-7.4654,-7.5053,-7.4476,-7.3937,-7.3899,-7.386,-7.4053,-7.4014,-7.3783,-7.3937,-7.413,-7.3591,-7.2937,-7.3014,-7.3283,-7.3399,-7.363,-7.3822,-7.4014,-7.4361,-7.4553,-7.386,-7.3168,-7.2552,-7.186,-7.0667,-7.0052,-7.0475,-7.0206,-6.9283,-6.936,-6.9937,-6.9629,-6.9129,-6.986,-7.0821,-7.0898,-7.0898,-7.0965,-6.0981,-6.1707,-6.251,-6.335,-6.4091,-6.3312,-6.3465,-6.4244,-6.4902,-6.5299,-6.5397,-6.5566,-6.5283,-6.4839,-6.5238,-6.5772,-6.6359,-6.6714,-6.8166,-7.0116,-7.1072,-7.1975,-7.266,-7.3133,-7.3333,-7.2672,-7.2272,-7.1795,-7.1084,-7.1174,-7.1174,-7.1185,-7.1112,-7.1488,-7.1733,-7.2358,-7.2191,-7.1516,-7.1535,-7.1096,-7.0433,-6.9149,-6.8444,-6.7922,-6.6832,-6.6243,-6.6319,-6.6072,-6.5837,-6.5506,-6.4915,-6.446,-6.4166,-6.3516,-6.3247,-6.3248,-6.3497,-6.4039,-6.4725,-6.5506,-6.6523,-6.7375,-6.8006,-6.9134,-7.0126,-7.1034,-7.182,-7.2364,-7.2507,-7.2869,-7.3301,-7.3581,-7.4481,-7.4988,-7.4793,-7.4822,-7.5476,-7.5745,-7.513,-7.4784,-7.4707,-7.4745,-7.4976,-7.5053,-7.4707,-7.4822,-7.5361,-7.4899,-7.3783,-7.3437,-7.363,-7.3514,-7.363,-7.4168,-7.4399,-7.5245,-7.5361,-7.4668,-7.386,-7.3053,-7.2129,-7.0975,-7.0706,-7.0898,-7.0129,-6.9167,-6.9629,-7.0244,-6.986,-6.9629,-7.0052,-7.0706,-7.0821,-7.0939,-7.0966,-6.1707,-6.251,-6.2777,-6.3388,-6.4129,-6.3923,-6.3962,-6.432,-6.5053,-6.5494,-6.5566,-6.5688,-6.5862,-6.5846,-6.6097,-6.6863,-6.8053,-6.7712,-6.9064,-7.2174,-7.2526,-7.3327,-7.401,-7.4409,-7.4466,-7.4023,-7.3498,-7.2634,-7.1738,-7.1876,-7.1736,-7.1673,-7.2307,-7.2785,-7.2895,-7.3091,-7.2613,-7.2531,-7.218,-7.1675,-7.1411,-7.0578,-6.9991,-6.9893,-6.8553,-6.7908,-6.7924,-6.7541,-6.7022,-6.6579,-6.6012,-6.5705,-6.53,-6.4672,-6.4805,-6.4958,-6.5315,-6.5908,-6.7163,-6.8271,-6.884,-6.8997,-6.9301,-7.0398,-7.1378,-7.2442,-7.3169,-7.3667,-7.3782,-7.4211,-7.4871,-7.4505,-7.5009,-7.5586,-7.5592,-7.563,-7.5938,-7.5938,-7.5707,-7.563,-7.5553,-7.5476,-7.5592,-7.5592,-7.5284,-7.5014,-7.5361,-7.4899,-7.3899,-7.3514,-7.3437,-7.3091,-7.3168,-7.3976,-7.4668,-7.5515,-7.5476,-7.4591,-7.386,-7.3129,-7.2168,-7.1475,-7.1091,-7.1206,-7.0129,-6.9167,-6.9937,-7.0552,-7.0398,-7.0398,-7.086,-7.0898,-7.0821,-7.094,-7.1067,-6.2089,-6.293,-6.3236,-6.3656,-6.4206,-6.4496,-6.4894,-6.555,-6.613,-6.6433,-6.6556,-6.665,-6.6754,-6.6949,-6.7245,-6.7888,-6.955,-6.9753,-7.0457,-7.3536,-7.363,-7.4274,-7.5066,-7.5445,-7.4999,-7.4705,-7.4183,-7.3351,-7.2478,-7.2484,-7.2475,-7.259,-7.3235,-7.391,-7.4056,-7.3888,-7.3704,-7.3817,-7.3669,-7.3403,-7.2937,-7.2321,-7.1847,-7.149,-7.072,-6.9942,-6.983,-6.9384,-6.8615,-6.7975,-6.7531,-6.7122,-6.6577,-6.6244,-6.6277,-6.6443,-6.7334,-6.8087,-6.9548,-7.0704,-7.0932,-7.0512,-7.0854,-7.1749,-7.2832,-7.3763,-7.4409,-7.4824,-7.4857,-7.5233,-7.5664,-7.5278,-7.5769,-7.6361,-7.6169,-7.6169,-7.6361,-7.6399,-7.6053,-7.6015,-7.5976,-7.5976,-7.5976,-7.5976,-7.5784,-7.5515,-7.5284,-7.4707,-7.4245,-7.3976,-7.3745,-7.3553,-7.3591,-7.4476,-7.5207,-7.5822,-7.5476,-7.4553,-7.4053,-7.3668,-7.3245,-7.2706,-7.2091,-7.1629,-7.136,-7.1091,-7.0744,-7.086,-7.136,-7.1591,-7.1783,-7.1591,-7.1052,-7.1094,-7.1286,-6.2204,-6.3006,-6.3847,-6.4244,-6.4397,-6.5184,-6.6453,-6.7944,-6.8035,-6.8047,-6.8227,-6.8073,-6.8014,-6.8013,-6.8499,-6.9408,-7.0428,-7.1596,-7.2886,-7.4041,-7.4687,-7.5254,-7.5386,-7.5501,-7.5245,-7.4766,-7.4331,-7.3934,-7.3327,-7.3352,-7.3383,-7.3753,-7.4621,-7.4944,-7.4932,-7.4805,-7.477,-7.4992,-7.509,-7.483,-7.4482,-7.4011,-7.353,-7.2982,-7.2169,-7.1508,-7.1243,-7.0853,-7.014,-6.9545,-6.9005,-6.8361,-6.7776,-6.7208,-6.7067,-6.7619,-6.9057,-7.0407,-7.1417,-7.2448,-7.2796,-7.2511,-7.3386,-7.4014,-7.4188,-7.4496,-7.4913,-7.5459,-7.5659,-7.589,-7.6071,-7.6517,-7.6923,-7.6823,-7.6476,-7.663,-7.6899,-7.6746,-7.6284,-7.6092,-7.6015,-7.6015,-7.5976,-7.5976,-7.5976,-7.5822,-7.5592,-7.5476,-7.5014,-7.4707,-7.4553,-7.4591,-7.4784,-7.5322,-7.5822,-7.5861,-7.5592,-7.4668,-7.4976,-7.4707,-7.4322,-7.3707,-7.3014,-7.2706,-7.3168,-7.3,-7.2245,-7.236,-7.2976,-7.3053,-7.2706,-7.2437,-7.1975,-7.1668,-7.1724,-6.3579,-6.3885,-6.4726,-6.5031,-6.5261,-6.656,-6.7523,-6.802,-6.8118,-6.8206,-6.829,-6.8345,-6.8726,-6.9159,-6.9265,-7.0517,-7.1701,-7.286,-7.384,-7.4715,-7.5251,-7.5442,-7.5518,-7.5501,-7.5374,-7.5114,-7.4783,-7.439,-7.4394,-7.4352,-7.4645,-7.5148,-7.6029,-7.5901,-7.5605,-7.5375,-7.5679,-7.5841,-7.6018,-7.5878,-7.5655,-7.5122,-7.4769,-7.4353,-7.3391,-7.2805,-7.2357,-7.2068,-7.1328,-7.0249,-7.0298,-6.9919,-6.9129,-6.8981,-6.9115,-7.0243,-7.1455,-7.2524,-7.2821,-7.3516,-7.4078,-7.4257,-7.4736,-7.4584,-7.4545,-7.466,-7.5153,-7.5681,-7.6147,-7.6229,-7.667,-7.7193,-7.7562,-7.7515,-7.7207,-7.7246,-7.7438,-7.7092,-7.6669,-7.6553,-7.6476,-7.6245,-7.6207,-7.5976,-7.5976,-7.5938,-7.5899,-7.5822,-7.5668,-7.5322,-7.513,-7.5168,-7.513,-7.5399,-7.5284,-7.5284,-7.5168,-7.5014,-7.5399,-7.5322,-7.4437,-7.386,-7.363,-7.3654,-7.3976,-7.3783,-7.3308,-7.363,-7.4014,-7.3654,-7.3322,-7.3129,-7.2937,-7.2629,-7.2495,-6.4397,-6.4726,-6.5184,-6.5605,-6.6178,-6.7706,-6.8464,-6.8549,-6.8946,-6.9174,-6.9246,-6.9355,-6.9665,-7.0036,-7.0162,-7.0811,-7.2003,-7.2792,-7.3647,-7.4117,-7.5251,-7.5442,-7.5518,-7.5518,-7.5501,-7.53,-7.5057,-7.4644,-7.5026,-7.5658,-7.6035,-7.5973,-7.7202,-7.7113,-7.6768,-7.6856,-7.6995,-7.6853,-7.6609,-7.6401,-7.6207,-7.6071,-7.6037,-7.5727,-7.4676,-7.3931,-7.3388,-7.3136,-7.2442,-7.1484,-7.1674,-7.1805,-7.1213,-7.1149,-7.1613,-7.2684,-7.3629,-7.4397,-7.4887,-7.5518,-7.5736,-7.5859,-7.613,-7.6188,-7.5692,-7.5539,-7.5727,-7.5991,-7.6191,-7.6503,-7.7138,-7.7677,-7.7993,-7.8284,-7.813,-7.7977,-7.7746,-7.7476,-7.7284,-7.7169,-7.6976,-7.6669,-7.6438,-7.6207,-7.613,-7.6361,-7.6245,-7.5938,-7.5822,-7.5592,-7.5438,-7.5399,-7.5207,-7.5168,-7.5053,-7.5207,-7.5438,-7.5707,-7.6092,-7.5784,-7.4707,-7.4514,-7.4668,-7.4668,-7.463,-7.4476,-7.4399,-7.4553,-7.4745,-7.4437,-7.4437,-7.4514,-7.4207,-7.3553,-7.3511,-6.4726,-6.5375,-6.5413,-6.5872,-6.6865,-6.8317,-6.8967,-6.925,-7.0002,-7.0578,-7.0593,-7.0705,-7.071,-7.0892,-7.0983,-7.1213,-7.2255,-7.31,-7.3696,-7.3401,-7.4886,-7.548,-7.5518,-7.5518,-7.5518,-7.5318,-7.5209,-7.517,-7.5544,-7.6417,-7.7184,-7.6694,-7.8368,-7.8665,-7.7905,-7.8092,-7.8086,-7.7741,-7.7402,-7.716,-7.7324,-7.7346,-7.7361,-7.7132,-7.6158,-7.5139,-7.4669,-7.4314,-7.4065,-7.3346,-7.3151,-7.3493,-7.3111,-7.3123,-7.3797,-7.4634,-7.5387,-7.6202,-7.6792,-7.7402,-7.7777,-7.7938,-7.8114,-7.7735,-7.7067,-7.6494,-7.655,-7.6717,-7.6995,-7.7517,-7.8135,-7.8414,-7.8692,-7.8892,-7.8869,-7.8846,-7.8823,-7.8477,-7.8169,-7.7977,-7.763,-7.7361,-7.7284,-7.713,-7.7092,-7.713,-7.7015,-7.6592,-7.6399,-7.6245,-7.5938,-7.5822,-7.5553,-7.5476,-7.5668,-7.5861,-7.613,-7.6438,-7.663,-7.6399,-7.5438,-7.5515,-7.5899,-7.563,-7.5284,-7.5553,-7.563,-7.5707,-7.5784,-7.5899,-7.5938,-7.6053,-7.563,-7.4938,-7.4732,-6.5222,-6.5413,-6.5413,-6.591,-6.6751,-6.7782,-6.8203,-6.8356,-6.9824,-7.0499,-7.0616,-7.0746,-7.1089,-7.1516,-7.166,-7.2121,-7.336,-7.3592,-7.4418,-7.4681,-7.5362,-7.548,-7.5518,-7.5518,-7.5556,-7.5483,-7.5526,-7.6044,-7.6958,-7.8006,-7.8859,-7.8901,-7.9961,-7.9818,-7.8535,-7.8782,-7.8897,-7.8568,-7.8578,-7.8343,-7.8316,-7.8246,-7.8169,-7.7923,-7.7223,-7.6503,-7.6032,-7.5704,-7.4962,-7.4087,-7.428,-7.4059,-7.3413,-7.4063,-7.4462,-7.5,-7.6677,-7.7647,-7.8238,-7.8755,-7.9169,-7.9083,-7.8935,-7.8537,-7.8099,-7.764,-7.7485,-7.7691,-7.8007,-7.8552,-7.9002,-7.9226,-7.9451,-7.9576,-7.9623,-7.9715,-7.9846,-7.9515,-7.9092,-7.8707,-7.8323,-7.8207,-7.813,-7.8054,-7.8092,-7.8092,-7.813,-7.7938,-7.7784,-7.7592,-7.6823,-7.6553,-7.6053,-7.5976,-7.6207,-7.6207,-7.6361,-7.6399,-7.6476,-7.6284,-7.613,-7.6361,-7.6553,-7.613,-7.5899,-7.6322,-7.663,-7.6669,-7.6823,-7.6976,-7.7169,-7.7169,-7.7246,-7.6707,-7.6455,-6.5413,-6.5452,-6.5834,-6.6025,-6.633,-6.74,-6.7897,-6.8126,-6.9311,-7.0091,-7.0499,-7.0654,-7.0976,-7.1641,-7.1886,-7.2506,-7.3735,-7.429,-7.452,-7.4976,-7.5451,-7.5514,-7.5535,-7.5556,-7.5844,-7.5921,-7.6512,-7.7294,-7.822,-7.8939,-7.9505,-7.9851,-8.0491,-8.0536,-7.9301,-7.9685,-7.9723,-7.945,-7.9723,-7.9725,-7.9477,-7.9323,-7.9131,-7.8861,-7.8331,-7.7607,-7.7201,-7.6901,-7.6532,-7.5839,-7.5848,-7.5432,-7.5024,-7.5077,-7.5476,-7.6361,-7.7692,-7.9077,-7.9322,-7.9802,-8.0294,-8.0131,-7.9891,-7.9493,-7.9474,-7.9092,-7.8748,-7.8897,-7.8683,-7.9131,-7.9761,-8.0064,-8.0536,-8.08,-8.052,-8.0398,-8.0484,-8.04,-7.9862,-7.9323,-7.9092,-7.9092,-7.89,-7.8438,-7.8515,-7.8861,-7.8938,-7.8631,-7.8592,-7.8823,-7.8054,-7.7438,-7.7053,-7.6669,-7.6746,-7.6553,-7.6284,-7.6322,-7.6592,-7.6899,-7.7169,-7.7169,-7.713,-7.6976,-7.6976,-7.7246,-7.7476,-7.7553,-7.7669,-7.7823,-7.8015,-7.8207,-7.8246,-7.8222,-7.7884,-6.5413,-6.5528,-6.6178,-6.6254,-6.5948,-6.7133,-6.7859,-6.8203,-6.889,-6.9616,-7.0206,-7.0477,-7.067,-7.1145,-7.1664,-7.2136,-7.2895,-7.4143,-7.4528,-7.4948,-7.5403,-7.551,-7.5574,-7.5653,-7.6227,-7.697,-7.7658,-7.7997,-7.8467,-7.9335,-7.9956,-8.0059,-8.0491,-8.1038,-8.1077,-8.1038,-8.0776,-8.0683,-8.0799,-8.0946,-8.0708,-8.04,-8.0092,-7.9669,-7.9131,-7.8323,-7.8054,-7.79,-7.7977,-7.7592,-7.7077,-7.6592,-7.6284,-7.613,-7.6438,-7.7284,-7.8823,-7.9746,-8.02,-8.1063,-8.1227,-8.1141,-8.0846,-8.0658,-8.0639,-8.043,-8.0142,-7.9779,-7.9583,-7.9751,-8.0361,-8.0859,-8.1371,-8.1594,-8.1222,-8.0904,-8.0991,-8.1115,-8.0631,-8.0015,-7.9939,-7.9939,-7.9631,-7.9131,-7.9208,-7.9554,-7.9515,-7.9131,-7.8977,-7.94,-7.9323,-7.8784,-7.8361,-7.8015,-7.7707,-7.74,-7.7169,-7.74,-7.7784,-7.8015,-7.8145,-7.7938,-7.79,-7.813,-7.8207,-7.8169,-7.8284,-7.84,-7.8515,-7.8707,-7.9131,-7.9361,-7.9015,-7.8968,-7.8826,-6.5413,-6.5413,-6.5605,-6.6254,-6.7209,-6.7095,-6.7668,-6.8852,-6.9082,-6.9311,-6.9709,-7.0346,-7.0938,-7.1705,-7.1873,-7.2524,-7.387,-7.4634,-7.5058,-7.5501,-7.5535,-7.5527,-7.5841,-7.6456,-7.7029,-7.7773,-7.8591,-7.9079,-7.9284,-8.0076,-8.0603,-8.0657,-8.0776,-8.1061,-8.0959,-8.0991,-8.1077,-8.1077,-8.1093,-8.1093,-8.1093,-8.09,-8.09,-8.0516,-8.0015,-7.9592,-7.9246,-7.8746,-7.8477,-7.813,-7.7784,-7.7438,-7.7207,-7.713,-7.7361,-7.8169,-7.9746,-8.04,-8.1007,-8.1941,-8.2067,-8.1845,-8.1569,-8.1536,-8.1517,-8.1461,-8.106,-8.0486,-8.033,-8.0402,-8.0879,-8.1244,-8.1645,-8.1542,-8.1265,-8.1201,-8.1212,-8.143,-8.1385,-8.0977,-8.0669,-8.0669,-8.0631,-8.0362,-8.0362,-8.0554,-8.0554,-8.0208,-8.0131,-8.0323,-8.04,-8.0054,-7.9592,-7.9554,-7.9323,-7.8823,-7.8631,-7.8823,-7.89,-7.8977,-7.8861,-7.8492,-7.853,-7.9015,-7.89,-7.8746,-7.89,-7.9323,-7.9554,-7.9823,-8.0362,-8.0554,-8.0131,-7.9877,-7.9952]},{"header":{"parameterUnit":"m.s-1","parameterCategory":1,"la1":31.0,"la2":29.5877,"lo1":-88.7671,"lo2":-86.6584,"dx":0.0162,"dy":0.0185,"nx":115,"ny":88,"refTime":"2023-01-18T06:00:00:Z","depth":0,"parameterNumber":3,"parameterNumberName":"V-component_of_WINDS"},"data":[0.0,0.0,0.0,0.0,0.0,0.0,0.0,0.0,0.0,0.0,0.0,0.0,0.0,0.0,0.0,0.0,0.0,0.0,0.0,0.0,0.0,0.0,0.0,0.0,0.0,0.0,0.0,0.0,0.0,0.0,0.0,0.0,0.0,0.0,0.0,0.0,0.0,0.0,0.0,0.0,0.0,0.0,0.0,0.0,0.0,0.0,0.0,0.0,0.0,0.0,0.0,0.0,0.0,0.0,0.0,0.0,0.0,0.0,0.0,0.0,0.0,0.0,0.0,0.0,0.0,0.0,0.0,0.0,0.0,0.0,0.0,0.0,0.0,0.0,0.0,0.0,0.0,0.0,0.0,0.0,0.0,0.0,0.0,0.0,0.0,0.0,0.0,0.0,0.0,0.0,0.0,0.0,0.0,0.0,0.0,0.0,0.0,0.0,0.0,0.0,0.0,0.0,0.0,0.0,0.0,0.0,0.0,0.0,0.0,0.0,0.0,0.0,0.0,0.0,0.0,0.0,0.0,0.0,0.0,0.0,0.0,0.0,0.0,0.0,0.0,0.0,0.0,0.0,0.0,0.0,0.0,0.0,0.0,0.0,0.0,0.0,0.0,0.0,0.0,0.0,0.0,0.0,0.0,0.0,0.0,0.0,0.0,0.0,0.0,0.0,0.0,0.0,0.0,0.0,0.0,0.0,0.0,0.0,0.0,0.0,0.0,0.0,0.0,0.0,0.0,0.0,0.0,0.0,0.0,0.0,0.0,0.0,0.0,0.0,0.0,0.0,0.0,0.0,0.0,0.0,0.0,0.0,0.0,0.0,0.0,0.0,0.0,0.0,0.0,0.0,0.0,0.0,0.0,0.0,0.0,0.0,0.0,0.0,0.0,0.0,0.0,0.0,0.0,0.0,0.0,0.0,0.0,0.0,0.0,0.0,0.0,0.0,0.0,0.0,0.0,0.0,0.0,0.0,0.0,0.0,0.0,0.0,0.0,0.0,0.0,0.0,0.0,0.0,0.0,0.0,0.0,0.0,0.0,0.0,0.0,0.0,0.0,0.0,0.0,0.0,0.0,0.0,0.0,0.0,0.0,0.0,0.0,0.0,0.0,0.0,0.0,0.0,0.0,0.0,0.0,0.0,0.0,0.0,0.0,0.0,0.0,0.0,0.0,0.0,0.0,0.0,0.0,0.0,0.0,0.0,0.0,0.0,0.0,0.0,0.0,0.0,0.0,0.0,0.0,0.0,0.0,0.0,0.0,0.0,0.0,0.0,0.0,0.0,0.0,0.0,0.0,0.0,0.0,0.0,0.0,0.0,0.0,0.0,0.0,0.0,0.0,0.0,0.0,0.0,0.0,0.0,0.0,0.0,0.0,0.0,0.0,0.0,0.0,0.0,0.0,0.0,0.0,0.0,0.0,0.0,0.0,0.0,0.0,0.0,0.0,0.0,0.0,0.0,0.0,0.0,0.0,0.0,0.0,0.0,0.0,0.0,0.0,0.0,0.0,0.0,0.0,0.0,0.0,0.0,0.0,0.0,0.0,0.0,0.0,0.0,0.0,0.0,0.0,0.0,0.0,0.0,0.0,0.0,0.0,0.0,0.0,0.0,0.0,0.0,0.0,0.0,0.0,0.0,0.0,0.0,0.0,0.0,0.0,0.0,0.0,0.0,0.0,0.0,0.0,0.0,0.0,0.0,0.0,0.0,0.0,0.0,0.0,0.0,0.0,0.0,0.0,0.0,0.0,0.0,0.0,0.0,0.0,0.0,0.0,0.0,0.0,0.0,0.0,0.0,0.0,0.0,0.0,0.0,0.0,0.0,0.0,0.0,0.0,0.0,0.0,0.0,0.0,0.0,0.0,0.0,0.0,0.0,0.0,0.0,0.0,0.0,0.0,0.0,0.0,0.0,0.0,0.0,0.0,0.0,0.0,0.0,0.0,0.0,0.0,0.0,0.0,0.0,0.0,0.0,0.0,0.0,0.0,0.0,0.0,0.0,0.0,0.0,0.0,0.0,0.0,0.0,0.0,0.0,0.0,0.0,0.0,0.0,0.0,0.0,0.0,0.0,0.0,0.0,0.0,0.0,0.0,0.0,0.0,0.0,0.0,0.0,0.0,0.0,0.0,0.0,0.0,0.0,0.0,0.0,0.0,0.0,0.0,0.0,0.0,0.0,0.0,0.0,0.0,0.0,0.0,0.0,0.0,0.0,0.0,0.0,0.0,0.0,0.0,0.0,0.0,0.0,0.0,0.0,0.0,0.0,0.0,0.0,0.0,0.0,0.0,0.0,0.0,0.0,0.0,0.0,0.0,0.0,0.0,0.0,0.0,0.0,0.0,0.0,0.0,0.0,0.0,0.0,0.0,0.0,0.0,0.0,0.0,0.0,0.0,0.0,0.0,0.0,0.0,0.0,0.0,0.0,0.0,0.0,0.0,0.0,0.0,0.0,0.0,0.0,0.0,0.0,0.0,0.0,0.0,0.0,0.0,0.0,0.0,0.0,0.0,0.0,0.0,0.0,0.0,0.0,0.0,0.0,0.0,0.0,0.0,0.0,0.0,0.0,0.0,0.0,0.0,0.0,0.0,0.0,0.0,0.0,0.0,0.0,0.0,0.0,0.0,0.0,0.0,0.0,0.0,0.0,0.0,0.0,0.0,0.0,0.0,0.0,0.0,0.0,0.0,0.0,0.0,0.0,0.0,0.0,0.0,0.0,0.0,0.0,0.0,0.0,0.0,0.0,0.0,0.0,0.0,0.0,0.0,0.0,0.0,0.0,0.0,0.0,0.0,0.0,0.0,0.0,0.0,0.0,0.0,0.0,0.0,0.0,0.0,0.0,0.0,0.0,0.0,0.0,0.0,0.0,0.0,0.0,0.0,0.0,0.0,0.0,0.0,0.0,0.0,0.0,0.0,0.0,0.0,0.0,0.0,0.0,0.0,0.0,0.0,0.0,0.0,0.0,0.0,0.0,0.0,0.0,0.0,0.0,0.0,0.0,0.0,0.0,0.0,0.0,0.0,0.0,0.0,0.0,0.0,0.0,0.0,0.0,0.0,0.0,0.0,0.0,0.0,0.0,0.0,0.0,0.0,0.0,0.0,0.0,0.0,0.0,0.0,0.0,0.0,0.0,0.0,0.0,0.0,0.0,0.0,0.0,0.0,0.0,0.0,0.0,0.0,0.0,0.0,0.0,0.0,0.0,0.0,0.0,0.0,0.0,0.0,0.0,0.0,0.0,0.0,0.0,0.0,0.0,0.0,0.0,0.0,0.0,0.0,0.0,0.0,0.0,0.0,0.0,0.0,0.0,0.0,0.0,0.0,0.0,0.0,0.0,0.0,0.0,0.0,0.0,0.0,0.0,0.0,0.0,0.0,0.0,0.0,0.0,0.0,0.0,0.0,0.0,0.0,0.0,0.0,0.0,0.0,0.0,0.0,0.0,0.0,0.0,0.0,0.0,0.0,0.0,0.0,0.0,0.0,0.0,0.0,0.0,0.0,0.0,0.0,0.0,0.0,0.0,0.0,0.0,0.0,0.0,0.0,0.0,0.0,0.0,0.0,0.0,0.0,0.0,0.0,0.0,0.0,0.0,0.0,0.0,0.0,0.0,0.0,0.0,0.0,0.0,0.0,0.0,0.0,0.0,0.0,0.0,0.0,0.0,0.0,0.0,0.0,0.0,0.0,0.0,0.0,0.0,0.0,0.0,0.0,0.0,0.0,0.0,0.0,0.0,0.0,0.0,0.0,0.0,0.0,0.0,0.0,0.0,0.0,0.0,0.0,0.0,0.0,0.0,0.0,0.0,0.0,0.0,0.0,0.0,0.0,0.0,0.0,0.0,0.0,0.0,0.0,0.0,0.0,0.0,0.0,0.0,0.0,0.0,0.0,0.0,0.0,0.0,0.0,0.0,0.0,0.0,0.0,0.0,0.0,0.0,0.0,0.0,0.0,0.0,0.0,0.0,0.0,0.0,0.0,0.0,0.0,0.0,0.0,0.0,0.0,0.0,0.0,0.0,0.0,0.0,0.0,0.0,0.0,0.0,0.0,0.0,0.0,0.0,0.0,0.0,0.0,0.0,0.0,0.0,0.0,0.0,0.0,0.0,0.0,0.0,0.0,0.0,0.0,0.0,0.0,0.0,0.0,0.0,0.0,0.0,0.0,0.0,0.0,0.0,0.0,0.0,0.0,0.0,0.0,0.0,0.0,0.0,0.0,0.0,0.0,0.0,0.0,0.0,0.0,0.0,0.0,0.0,0.0,0.0,0.0,0.0,0.0,0.0,1.3672,0.0,0.0,0.0,0.0,0.0,0.0,0.0,0.0,0.0,0.0,0.0,0.0,0.0,0.0,0.0,0.0,0.0,0.0,0.0,0.0,0.0,0.0,0.0,0.0,0.0,0.0,0.0,0.0,0.0,0.0,0.0,0.0,0.0,0.0,0.0,0.0,0.0,0.0,0.0,0.0,0.0,0.0,0.0,0.0,0.0,0.0,0.0,0.0,0.0,0.0,0.0,0.0,0.0,0.0,0.0,0.0,0.0,0.0,0.0,0.0,0.0,0.0,0.0,0.0,0.0,0.0,0.0,0.0,0.0,0.0,0.0,0.0,0.0,0.0,0.0,0.0,0.0,0.0,0.0,0.0,0.0,0.0,0.0,0.0,0.0,0.0,0.0,0.0,0.0,0.0,0.0,0.0,0.0,0.0,0.0,0.0,0.0,0.0,0.0,0.0,0.0,0.0,0.0,0.0,0.0,0.0,0.0,0.0,0.0,0.0,1.1297,1.1282,1.1796,1.2569,1.3543,0.0,0.0,0.0,0.0,0.0,0.0,0.0,0.0,0.0,0.0,0.0,0.0,0.0,0.0,0.0,0.0,0.0,0.0,0.0,0.0,0.0,0.0,0.0,0.0,0.0,0.0,0.0,0.0,0.0,0.0,0.0,0.0,0.0,0.0,0.0,0.0,0.0,0.0,0.0,0.0,0.0,0.0,0.0,0.0,0.0,0.0,0.0,0.0,0.0,0.0,0.0,0.0,0.0,0.0,0.0,0.0,0.0,0.0,0.0,0.0,0.0,0.0,0.0,0.0,0.0,0.0,0.0,0.0,0.0,0.0,0.0,0.0,0.0,0.0,0.0,0.0,0.0,0.0,0.0,0.0,0.0,0.0,0.0,0.0,0.0,0.0,0.0,0.0,0.0,0.0,0.0,0.0,0.0,0.0,0.0,0.0,0.0,0.0,0.0,0.0,0.0,0.0,0.0,0.0,0.0,0.0,0.0,0.0,0.0,0.0,0.0,0.0,1.1955,1.2728,1.3734,0.0,0.0,0.0,0.0,0.0,0.0,0.0,0.0,0.0,0.0,0.0,0.0,0.0,0.0,0.0,0.0,0.0,0.0,0.0,0.0,0.0,0.0,0.0,0.0,0.0,0.0,0.0,0.0,0.0,0.0,0.0,0.0,0.0,0.0,0.0,0.0,0.0,0.0,0.0,0.0,0.0,0.0,0.0,0.0,0.0,0.0,0.0,0.0,0.0,0.0,0.0,0.0,0.0,0.0,0.0,0.0,0.0,0.0,0.0,0.0,0.0,0.0,0.0,0.0,0.0,0.0,0.0,0.0,0.0,0.0,0.0,0.0,0.0,0.0,0.0,0.0,0.0,0.0,0.0,0.0,0.0,0.0,0.0,0.0,0.0,0.0,0.0,0.0,0.0,0.0,0.0,0.0,0.0,0.0,0.0,0.0,0.0,0.0,0.0,0.0,0.0,0.0,0.0,0.0,0.0,0.0,0.0,0.0,0.0,0.0,1.199,1.2688,1.2669,0.0,1.4999,0.0,0.0,0.0,0.0,0.0,0.0,0.0,0.0,0.0,0.0,0.0,0.0,0.0,0.0,0.0,0.0,0.0,0.0,0.0,0.0,0.0,0.0,0.0,0.0,0.0,0.0,0.0,0.0,0.0,0.0,0.0,0.0,0.0,0.0,0.0,0.0,0.0,0.0,0.0,0.0,0.0,0.0,0.0,0.0,0.0,0.0,0.0,0.0,0.0,0.0,0.0,0.0,0.0,0.0,0.0,0.0,0.0,0.0,0.0,0.0,0.0,0.0,0.0,0.0,0.0,0.0,0.0,0.0,0.0,0.0,0.0,0.0,0.0,0.0,0.0,0.0,0.0,0.0,0.0,0.0,0.0,0.0,0.0,0.0,0.0,0.0,0.0,0.0,0.0,0.0,0.0,0.0,0.0,0.0,0.0,0.0,0.0,0.0,0.0,0.0,0.0,0.0,0.0,0.0,0.0,0.0,0.0,0.0,0.0,0.0,1.2451,1.2751,1.3276,1.4231,0.0,0.0,0.0,0.0,0.0,0.0,0.0,0.0,0.0,0.0,0.0,0.0,0.0,0.0,0.0,0.0,0.0,0.0,0.0,0.0,0.0,0.0,0.0,0.0,0.0,0.0,0.0,0.0,0.0,0.0,0.0,0.0,0.0,0.0,0.0,0.0,0.0,0.0,0.0,0.0,0.0,0.0,0.0,0.0,0.0,0.0,0.0,0.0,0.0,0.0,0.0,0.0,0.0,0.0,0.0,0.0,0.0,0.0,0.0,0.0,0.0,0.0,0.0,0.0,0.0,0.0,0.0,0.0,0.0,0.0,0.0,0.0,0.0,0.0,0.0,0.0,0.0,0.0,0.0,0.0,0.0,0.0,0.0,0.0,0.0,0.0,0.0,0.0,0.0,0.0,0.0,0.0,0.0,0.0,0.0,0.0,0.0,0.0,0.0,0.0,0.0,0.0,0.0,0.0,0.0,0.0,0.0,0.0,0.0,0.0,1.2583,1.2808,1.3029,1.371,1.4734,1.6065,0.0,0.0,0.0,0.0,0.0,0.0,0.0,0.0,0.0,0.0,0.0,0.0,0.0,0.0,0.0,0.0,0.0,0.0,0.0,0.0,0.0,0.0,0.0,0.0,0.0,0.0,0.0,0.0,0.0,0.0,0.0,0.0,0.0,0.0,0.0,0.0,0.0,0.0,0.0,0.0,0.0,0.0,0.0,0.0,0.0,0.0,0.0,0.0,0.0,0.0,0.0,0.0,0.0,0.0,0.0,0.0,0.0,0.0,0.0,0.0,0.0,0.0,0.0,0.0,0.0,0.0,0.0,0.0,0.0,0.0,0.0,0.0,0.0,0.0,0.0,0.0,0.0,0.0,0.0,0.0,0.0,0.0,0.0,0.0,0.0,0.0,0.0,0.0,0.0,0.0,0.0,0.0,0.0,0.0,0.0,0.0,0.0,0.0,0.0,0.0,0.0,0.0,0.0,0.0,0.0,0.0,0.0,0.0,0.0,1.2815,1.3066,1.3801,1.4006,1.4734,0.0,0.0,0.0,0.0,0.0,0.0,0.0,0.0,0.0,0.0,0.0,0.0,0.0,0.0,0.0,0.0,0.0,0.0,0.0,0.0,0.0,0.0,0.0,0.0,0.0,0.0,0.0,0.0,0.0,0.0,0.0,0.0,0.0,0.0,0.0,0.0,0.0,0.0,0.0,0.0,0.0,0.0,0.0,0.0,0.0,0.0,0.0,0.0,0.0,0.0,0.0,0.0,0.0,0.0,0.0,0.0,0.0,0.0,0.0,0.0,0.0,0.0,0.0,0.0,0.0,0.0,0.0,0.0,0.0,0.0,0.0,0.0,0.0,0.0,0.0,0.0,0.0,0.0,0.0,0.0,0.0,0.0,0.0,0.0,0.0,0.0,0.0,0.0,0.0,0.0,0.0,0.0,0.0,0.0,0.0,0.0,0.0,0.0,0.0,0.0,0.0,0.0,0.0,0.0,0.0,0.0,0.0,0.0,0.0,1.2473,1.3104,1.3598,1.3911,1.4265,1.5023,0.0,0.0,0.0,0.0,0.0,0.0,0.0,0.0,0.0,0.0,0.0,0.0,0.0,0.0,0.0,0.0,0.0,0.0,0.0,0.0,0.0,0.0,0.0,0.0,0.0,0.0,0.0,0.0,0.0,0.0,0.0,0.0,0.0,0.0,0.0,0.0,0.0,0.0,0.0,0.0,0.0,0.0,0.0,0.0,0.0,0.0,0.0,0.0,0.0,0.0,0.0,0.0,0.0,0.0,0.0,0.0,0.0,0.0,0.0,0.0,0.0,0.0,0.0,0.0,0.0,0.0,0.0,0.0,0.0,0.0,0.0,0.0,0.0,0.0,0.0,0.0,0.0,0.0,0.0,0.0,0.0,0.0,0.0,0.0,0.0,0.0,0.0,0.0,0.0,0.0,0.0,0.0,0.0,0.0,0.0,0.0,0.0,0.0,0.0,0.0,0.0,0.0,0.0,0.0,0.0,0.0,0.0,0.0,0.0,1.2312,0.0,1.4113,1.4171,1.4647,1.5338,0.0,0.0,0.0,0.0,0.0,0.0,0.0,0.0,0.0,0.0,0.0,0.0,0.0,0.0,0.0,0.0,0.0,0.0,0.0,0.0,0.0,0.0,0.0,0.0,0.0,0.0,0.0,0.0,0.0,0.0,0.0,0.0,0.0,0.0,0.0,0.0,0.0,0.0,0.0,0.0,0.0,0.0,0.0,0.0,0.0,0.0,0.0,0.0,0.0,0.0,0.0,0.0,0.0,0.0,0.0,0.0,0.0,0.0,0.0,0.0,0.0,0.0,0.0,0.0,0.0,0.0,0.0,0.0,0.0,0.0,0.0,0.0,0.0,0.0,0.0,0.0,0.0,0.0,0.0,0.0,0.0,0.0,0.0,0.0,0.0,0.0,0.0,0.0,0.0,0.0,0.0,0.0,0.0,0.0,0.0,0.0,0.0,0.0,0.0,0.0,0.0,0.0,0.0,0.0,0.0,0.0,0.0,0.0,1.1902,1.268,1.3846,1.4481,1.4725,1.5098,1.5682,0.0,0.0,0.0,0.0,0.0,0.0,0.0,0.0,0.0,0.0,0.0,0.0,0.0,0.0,0.0,0.0,0.0,0.0,0.0,0.0,0.0,0.0,0.0,0.0,0.0,0.0,0.0,0.0,0.0,0.0,0.0,0.0,0.0,0.0,0.0,0.0,0.0,0.0,0.0,0.0,0.0,0.0,0.0,0.0,0.0,0.0,0.0,0.0,0.0,0.0,0.0,0.0,0.0,0.0,0.0,0.0,0.0,0.0,0.0,0.0,0.0,0.0,0.0,0.0,0.0,0.0,0.0,0.0,0.0,0.0,0.0,0.0,0.0,0.0,0.0,0.0,0.0,0.0,0.0,0.0,0.0,0.0,0.0,0.0,0.0,0.0,0.0,0.0,0.0,0.0,0.0,0.0,0.0,0.0,0.0,0.0,0.0,0.0,0.0,0.0,0.0,0.0,0.0,0.0,0.0,0.0,0.0,0.0,0.0,1.269,1.3169,1.3987,1.5098,1.5476,1.6013,0.0,0.0,0.0,0.0,0.0,0.0,0.0,0.0,0.0,0.0,0.0,0.0,0.0,0.0,0.0,0.0,0.0,0.0,0.0,0.0,0.0,0.0,0.0,0.0,0.0,0.0,0.0,0.0,0.0,0.0,0.0,0.0,0.0,0.0,0.0,0.0,0.0,0.0,0.0,0.0,0.0,0.0,0.0,0.0,0.0,0.0,0.0,0.0,0.0,0.0,0.0,0.0,0.0,0.0,0.0,0.0,0.0,0.0,0.0,0.0,0.0,0.0,0.0,0.0,0.0,0.0,0.0,0.0,0.0,0.0,0.0,0.0,0.0,0.0,0.0,0.0,0.0,0.0,0.0,0.0,0.0,0.0,0.0,0.0,0.0,0.0,0.0,0.0,0.0,0.0,0.0,0.0,0.0,0.0,0.0,0.0,0.0,0.0,0.0,0.0,0.0,0.0,0.0,0.0,0.0,0.0,0.0,0.0,0.0,1.347,1.3614,1.4324,1.5657,1.6193,1.6602,1.6928,0.0,0.0,0.0,0.0,0.0,0.0,0.0,0.0,0.0,0.0,0.0,0.0,0.0,0.0,0.0,0.0,0.0,0.0,0.0,0.0,0.0,0.0,0.0,0.0,0.0,0.0,0.0,0.0,0.0,0.0,0.0,0.0,0.0,0.0,0.0,0.0,0.0,0.0,0.0,0.0,0.0,0.0,0.0,0.0,0.0,0.0,0.0,0.0,0.0,0.0,0.0,0.0,0.0,0.0,0.0,0.0,0.0,0.0,0.0,0.0,0.0,0.0,0.0,0.0,0.0,0.0,0.0,0.0,0.0,0.0,0.0,0.0,0.0,0.0,0.0,0.0,0.0,0.0,0.0,0.0,0.0,0.0,0.0,0.0,0.0,0.0,0.0,0.0,0.0,0.0,0.0,0.0,0.0,0.0,0.0,0.0,0.0,0.0,0.0,0.0,0.0,0.0,0.0,0.0,0.0,0.0,0.0,0.0,1.4859,1.5052,1.5548,1.6311,1.7106,1.7298,0.0,0.0,0.0,0.0,0.0,0.0,0.0,0.0,0.0,0.0,0.0,0.0,0.0,0.0,0.0,0.0,0.0,0.0,0.0,0.0,0.0,0.0,0.0,0.0,0.0,0.0,0.0,0.0,0.0,0.0,0.0,0.0,0.0,0.0,0.0,0.0,0.0,0.0,0.0,0.0,0.0,0.0,0.0,0.0,0.0,0.0,0.0,0.0,0.0,0.0,0.0,0.0,0.0,0.0,0.0,0.0,0.0,0.0,0.0,0.0,0.0,0.0,0.0,0.0,0.0,0.0,0.0,0.0,0.0,0.0,0.0,0.0,0.0,0.0,0.0,0.0,0.0,0.0,0.0,0.0,0.0,0.0,0.0,0.0,0.0,0.0,0.0,0.0,0.0,0.0,0.0,0.0,0.0,0.0,0.0,0.0,0.0,0.0,0.0,0.0,0.0,0.0,0.0,0.0,0.0,0.0,0.0,0.0,0.0,1.5625,1.6571,1.733,1.7781,1.7672,1.8003,0.0,0.0,0.0,0.0,0.0,0.0,0.0,0.0,0.0,0.0,0.0,0.0,0.0,0.0,0.0,0.0,0.0,0.0,0.0,0.0,0.0,0.0,0.0,0.0,0.0,0.0,0.0,0.0,0.0,0.0,0.0,0.0,0.0,0.0,0.0,0.0,0.0,0.0,0.0,0.0,0.0,0.0,0.0,0.0,0.0,0.0,0.0,0.0,0.0,0.0,0.0,0.0,0.0,0.0,0.0,0.0,0.0,0.0,0.0,0.0,0.0,0.0,0.0,0.0,0.0,0.0,0.0,0.0,0.0,0.0,0.0,0.0,0.0,0.0,0.0,0.0,0.0,0.0,0.0,0.0,0.0,0.0,0.0,0.0,0.0,0.0,0.0,0.0,0.0,0.0,0.0,0.0,0.0,0.0,0.0,0.0,0.0,0.0,0.0,0.0,0.0,0.0,0.0,0.0,0.0,0.0,0.0,0.0,1.5137,1.6379,1.7878,1.9052,1.9836,1.9335,1.9176,0.0,0.0,0.0,0.0,0.0,0.0,0.0,0.0,0.0,0.0,0.0,0.0,0.0,0.0,0.0,0.0,0.0,0.0,0.0,0.0,0.0,0.0,0.0,0.0,0.0,0.0,0.0,0.0,0.0,0.0,0.0,0.0,0.0,0.0,0.0,0.0,0.0,0.0,0.0,0.0,0.0,0.0,0.0,0.0,0.0,0.0,0.0,0.0,0.0,0.0,0.0,0.0,0.0,0.0,0.0,0.0,0.0,0.0,0.0,0.0,0.0,0.0,0.0,0.0,0.0,0.0,0.0,0.0,0.0,0.0,0.0,0.0,0.0,0.0,0.0,0.0,0.0,0.0,0.0,0.0,0.0,0.0,0.0,0.0,0.0,0.0,0.0,0.0,0.0,0.0,0.0,0.0,0.0,0.0,0.0,0.0,0.0,0.0,0.0,0.0,0.0,0.0,0.0,0.0,0.0,0.0,0.0,0.0,1.6183,1.7092,1.8919,2.0527,2.178,2.1275,2.0461,0.0,0.0,0.0,0.0,0.0,0.0,0.0,0.0,0.0,0.0,0.0,0.0,0.0,0.0,0.0,0.0,0.0,0.0,0.0,0.0,0.0,0.0,0.0,0.0,0.0,0.0,0.0,0.0,0.0,0.0,0.0,0.0,0.0,0.0,0.0,0.0,0.0,0.0,0.0,0.0,0.0,0.0,0.0,0.0,0.0,0.0,0.0,0.0,0.0,0.0,0.0,0.0,0.0,0.0,0.0,0.0,0.0,0.0,0.0,0.0,0.0,0.0,0.0,0.0,0.0,0.0,0.0,0.0,0.0,0.0,0.0,0.0,0.0,0.0,0.0,0.0,0.0,0.0,0.0,0.0,0.0,0.0,0.0,0.0,0.0,0.0,0.0,0.0,0.0,0.0,0.0,0.0,0.0,0.0,0.0,0.0,0.0,0.0,0.0,0.0,0.0,0.0,0.0,0.0,0.0,0.0,0.0,0.0,1.6693,1.8366,1.9373,2.0644,2.2216,2.0788,2.056,0.0,0.0,0.0,0.0,0.0,0.0,0.0,0.0,0.0,0.0,0.0,0.0,0.0,0.0,0.0,0.0,0.0,0.0,0.0,0.0,0.0,0.0,0.0,0.0,0.0,0.0,0.0,0.0,0.0,0.0,0.0,0.0,0.0,0.0,0.0,0.0,0.0,0.0,0.0,0.0,0.0,0.0,0.0,0.0,0.0,0.0,0.0,0.0,1.9517,0.0,0.0,0.0,0.0,0.0,0.0,0.0,0.0,0.0,0.0,0.0,0.0,0.0,0.0,0.0,0.0,0.0,0.0,0.0,0.0,0.0,0.0,0.0,0.0,0.0,0.0,0.0,0.0,0.0,0.0,0.0,0.0,0.0,0.0,0.0,0.0,0.0,0.0,0.0,0.0,0.0,0.0,0.0,0.0,0.0,0.0,0.0,0.0,0.0,0.0,0.0,0.0,0.0,0.0,0.0,0.0,0.0,0.0,0.0,1.7379,1.9031,1.9926,2.1194,2.2826,2.1606,2.1424,0.0,0.0,0.0,0.0,0.0,0.0,0.0,0.0,0.0,0.0,0.0,0.0,0.0,0.0,0.0,0.0,0.0,0.0,0.0,0.0,0.0,0.0,0.0,0.0,0.0,0.0,0.0,0.0,0.0,0.0,0.0,0.0,0.0,0.0,0.0,0.0,0.0,0.0,0.0,0.0,0.0,0.0,0.0,0.0,0.0,0.0,0.0,0.0,0.0,0.0,0.0,0.0,0.0,0.0,0.0,0.0,0.0,0.0,0.0,0.0,0.0,0.0,0.0,0.0,0.0,0.0,0.0,0.0,0.0,0.0,0.0,0.0,0.0,0.0,0.0,0.0,0.0,0.0,0.0,0.0,0.0,0.0,0.0,0.0,0.0,0.0,0.0,0.0,0.0,0.0,0.0,0.0,0.0,0.0,0.0,0.0,0.0,0.0,0.0,0.0,0.0,0.0,0.0,0.0,0.0,0.0,0.0,1.7098,1.815,1.964,2.0501,2.177,2.344,2.2648,2.2262,2.2617,0.0,0.0,0.0,0.0,0.0,0.0,0.0,0.0,0.0,0.0,0.0,0.0,0.0,0.0,0.0,0.0,0.0,0.0,0.0,0.0,0.0,0.0,0.0,0.0,0.0,0.0,0.0,0.0,0.0,0.0,0.0,0.0,0.0,0.0,0.0,0.0,0.0,0.0,1.7501,1.8109,0.0,0.0,0.0,0.0,0.0,0.0,0.0,0.0,1.9202,0.0,0.0,0.0,0.0,0.0,0.0,0.0,0.0,0.0,0.0,0.0,0.0,0.0,0.0,0.0,0.0,0.0,0.0,0.0,0.0,0.0,0.0,0.0,0.0,0.0,0.0,0.0,0.0,0.0,0.0,0.0,0.0,0.0,0.0,0.0,0.0,0.0,0.0,0.0,0.0,0.0,0.0,0.0,0.0,0.0,0.0,0.0,0.0,0.0,0.0,0.0,0.0,0.0,0.0,0.0,0.0,1.6825,1.7585,1.8936,2.0873,2.1085,2.182,2.3099,2.2321,2.2084,2.2548,0.0,0.0,0.0,0.0,0.0,0.0,0.0,0.0,0.0,0.0,0.0,0.0,0.0,0.0,0.0,0.0,0.0,0.0,0.0,0.0,0.0,0.0,0.0,0.0,0.0,0.0,0.0,0.0,0.0,0.0,0.0,0.0,0.0,0.0,0.0,0.0,0.0,0.0,0.0,1.923,1.9711,0.0,0.0,0.0,0.0,0.0,0.0,0.0,0.0,1.9551,0.0,0.0,0.0,0.0,0.0,0.0,0.0,0.0,0.0,0.0,0.0,0.0,0.0,0.0,0.0,0.0,0.0,0.0,0.0,0.0,0.0,0.0,0.0,0.0,0.0,0.0,0.0,0.0,0.0,0.0,0.0,0.0,0.0,0.0,0.0,0.0,0.0,0.0,0.0,0.0,0.0,0.0,0.0,0.0,0.0,0.0,0.0,0.0,0.0,0.0,0.0,0.0,0.0,0.0,0.0,1.787,1.8695,1.9878,2.1457,2.1767,2.2355,2.3351,2.2436,2.2223,0.0,0.0,0.0,0.0,0.0,0.0,0.0,0.0,0.0,0.0,0.0,0.0,0.0,0.0,0.0,0.0,0.0,0.0,0.0,0.0,0.0,0.0,0.0,0.0,0.0,0.0,0.0,0.0,0.0,0.0,0.0,0.0,0.0,0.0,0.0,0.0,0.0,0.0,0.0,0.0,1.923,1.9932,2.0266,0.0,0.0,0.0,0.0,0.0,0.0,2.0022,1.9676,0.0,0.0,0.0,0.0,0.0,0.0,0.0,0.0,0.0,0.0,0.0,0.0,0.0,0.0,0.0,0.0,0.0,0.0,0.0,0.0,0.0,0.0,0.0,0.0,0.0,0.0,0.0,0.0,0.0,0.0,0.0,0.0,0.0,0.0,0.0,0.0,0.0,0.0,0.0,0.0,0.0,0.0,0.0,0.0,0.0,0.0,0.0,0.0,0.0,0.0,0.0,0.0,0.0,0.0,0.0,1.854,1.962,2.0718,2.1779,2.2298,2.2853,2.343,2.2217,2.202,0.0,0.0,0.0,0.0,0.0,0.0,0.0,0.0,0.0,0.0,0.0,0.0,0.0,0.0,0.0,0.0,0.0,0.0,0.0,0.0,0.0,0.0,0.0,0.0,0.0,0.0,0.0,0.0,0.0,0.0,0.0,0.0,0.0,0.0,0.0,0.0,0.0,0.0,0.0,0.0,0.0,2.045,2.1064,2.085,0.0,0.0,0.0,0.0,2.1334,2.0918,0.0,0.0,0.0,0.0,0.0,0.0,0.0,0.0,0.0,0.0,0.0,0.0,0.0,0.0,0.0,0.0,0.0,0.0,0.0,0.0,0.0,0.0,0.0,0.0,0.0,0.0,0.0,0.0,0.0,0.0,0.0,0.0,0.0,0.0,0.0,0.0,0.0,0.0,0.0,0.0,0.0,0.0,0.0,0.0,0.0,0.0,0.0,0.0,0.0,0.0,0.0,0.0,0.0,0.0,0.0,0.0,1.7732,1.9757,2.1118,2.1773,2.2438,2.2717,2.2627,2.1017,2.0777,0.0,0.0,0.0,0.0,0.0,0.0,0.0,0.0,0.0,0.0,0.0,0.0,0.0,0.0,0.0,0.0,0.0,0.0,0.0,0.0,0.0,0.0,0.0,0.0,0.0,0.0,0.0,0.0,0.0,0.0,0.0,0.0,0.0,0.0,0.0,0.0,0.0,0.0,0.0,0.0,0.0,2.2283,2.1488,2.1589,2.1893,0.0,0.0,0.0,2.2645,2.3552,0.0,0.0,0.0,0.0,0.0,0.0,0.0,0.0,0.0,0.0,0.0,0.0,0.0,0.0,0.0,0.0,0.0,0.0,0.0,0.0,0.0,0.0,0.0,0.0,0.0,0.0,0.0,0.0,0.0,0.0,0.0,0.0,0.0,0.0,0.0,0.0,0.0,0.0,0.0,0.0,0.0,0.0,0.0,0.0,0.0,0.0,0.0,0.0,0.0,0.0,0.0,0.0,0.0,0.0,0.0,1.869,1.8901,2.045,2.164,2.2331,2.2741,2.2935,2.2828,2.1253,2.1049,0.0,0.0,0.0,0.0,0.0,0.0,0.0,0.0,0.0,0.0,0.0,0.0,0.0,0.0,0.0,0.0,0.0,0.0,0.0,0.0,0.0,0.0,0.0,0.0,0.0,0.0,0.0,0.0,0.0,0.0,0.0,0.0,0.0,0.0,0.0,0.0,0.0,0.0,0.0,0.0,0.0,0.0,2.2782,2.3393,0.0,0.0,0.0,2.3523,2.4169,0.0,0.0,0.0,0.0,0.0,0.0,0.0,0.0,0.0,0.0,0.0,0.0,0.0,0.0,0.0,0.0,0.0,0.0,0.0,0.0,0.0,0.0,0.0,0.0,0.0,0.0,0.0,0.0,0.0,0.0,0.0,0.0,0.0,0.0,0.0,0.0,0.0,0.0,0.0,0.0,0.0,0.0,0.0,0.0,0.0,0.0,0.0,0.0,0.0,0.0,0.0,0.0,0.0,0.0,0.0,0.0,0.0,1.9902,2.1055,2.2024,2.2775,2.3013,2.3101,2.3062,2.1471,0.0,0.0,0.0,0.0,0.0,0.0,0.0,0.0,0.0,0.0,0.0,0.0,0.0,0.0,0.0,0.0,0.0,0.0,0.0,0.0,0.0,0.0,0.0,0.0,0.0,0.0,0.0,2.1353,0.0,0.0,0.0,0.0,0.0,0.0,0.0,0.0,0.0,0.0,0.0,0.0,0.0,0.0,2.4073,2.4314,2.5372,2.6238,0.0,0.0,2.4795,2.5396,2.5853,2.5864,0.0,0.0,0.0,0.0,0.0,0.0,0.0,0.0,0.0,0.0,0.0,0.0,0.0,0.0,0.0,0.0,0.0,0.0,0.0,0.0,0.0,0.0,0.0,0.0,0.0,0.0,0.0,0.0,0.0,0.0,0.0,0.0,0.0,0.0,0.0,0.0,0.0,0.0,0.0,0.0,0.0,0.0,0.0,0.0,0.0,0.0,0.0,0.0,0.0,0.0,0.0,0.0,0.0,0.0,0.0,1.9921,2.1381,2.2351,2.2775,2.3013,2.3101,2.3062,2.1035,2.0534,0.0,0.0,0.0,0.0,0.0,0.0,0.0,0.0,0.0,0.0,0.0,0.0,0.0,0.0,0.0,0.0,0.0,0.0,0.0,0.0,0.0,0.0,0.0,0.0,0.0,0.0,0.0,0.0,0.0,0.0,0.0,0.0,0.0,0.0,0.0,0.0,0.0,0.0,0.0,0.0,0.0,2.6441,2.6021,2.7272,2.8306,0.0,0.0,2.6537,2.6117,2.732,2.7801,2.6249,0.0,0.0,0.0,0.0,0.0,0.0,0.0,0.0,0.0,0.0,0.0,0.0,0.0,0.0,0.0,0.0,0.0,0.0,0.0,0.0,0.0,0.0,0.0,0.0,0.0,0.0,0.0,0.0,0.0,0.0,0.0,0.0,0.0,0.0,0.0,0.0,0.0,0.0,0.0,0.0,0.0,0.0,0.0,0.0,0.0,0.0,0.0,0.0,0.0,0.0,0.0,0.0,0.0,1.9984,2.0352,2.169,2.2605,2.295,2.3057,2.3101,2.3101,2.1522,2.1114,0.0,0.0,0.0,0.0,0.0,0.0,0.0,0.0,0.0,0.0,0.0,0.0,0.0,0.0,0.0,0.0,0.0,0.0,0.0,0.0,0.0,0.0,0.0,0.0,0.0,0.0,0.0,0.0,2.0829,2.0919,2.1368,0.0,0.0,0.0,0.0,0.0,0.0,0.0,0.0,0.0,0.0,2.7426,2.756,2.8402,0.0,0.0,2.805,2.7464,2.756,2.7825,2.7921,2.7633,2.7138,0.0,0.0,0.0,0.0,0.0,0.0,0.0,0.0,0.0,0.0,0.0,0.0,0.0,0.0,0.0,0.0,0.0,0.0,0.0,0.0,0.0,0.0,0.0,0.0,0.0,0.0,0.0,0.0,0.0,0.0,0.0,0.0,0.0,0.0,0.0,0.0,0.0,0.0,0.0,0.0,0.0,0.0,0.0,0.0,0.0,0.0,0.0,0.0,0.0,0.0,0.0,0.0,2.0273,2.0605,2.1973,2.2789,2.3101,2.3101,2.3101,2.3062,2.2101,2.1869,0.0,0.0,0.0,0.0,0.0,0.0,0.0,0.0,0.0,0.0,0.0,0.0,0.0,0.0,0.0,0.0,0.0,0.0,0.0,0.0,0.0,0.0,0.0,0.0,0.0,0.0,0.0,0.0,2.0729,2.1014,2.1854,0.0,0.0,0.0,0.0,0.0,0.0,0.0,0.0,0.0,0.0,2.8378,2.8907,2.9316,2.9484,2.9316,2.8546,2.8089,2.845,2.7989,2.7703,2.8155,0.0,0.0,0.0,0.0,0.0,0.0,0.0,0.0,0.0,0.0,0.0,0.0,0.0,0.0,0.0,0.0,0.0,0.0,0.0,0.0,0.0,0.0,0.0,0.0,0.0,0.0,0.0,0.0,0.0,0.0,0.0,0.0,0.0,0.0,0.0,0.0,0.0,0.0,0.0,0.0,0.0,0.0,0.0,0.0,0.0,0.0,0.0,0.0,0.0,0.0,0.0,0.0,0.0,0.0,2.0625,2.2246,2.3081,2.3101,2.3101,2.3101,2.3105,2.2635,2.2647,2.3182,0.0,0.0,0.0,0.0,0.0,0.0,0.0,0.0,0.0,0.0,0.0,0.0,0.0,0.0,0.0,0.0,0.0,0.0,0.0,0.0,0.0,0.0,0.0,0.0,0.0,0.0,2.086,2.0467,2.0937,0.0,0.0,0.0,0.0,0.0,0.0,0.0,0.0,0.0,0.0,2.857,2.946,2.9965,3.0062,2.981,2.9347,2.8819,2.8459,2.8522,2.7794,2.7348,0.0,0.0,0.0,0.0,0.0,0.0,0.0,0.0,0.0,0.0,0.0,0.0,0.0,0.0,0.0,0.0,0.0,0.0,0.0,0.0,0.0,0.0,0.0,0.0,0.0,0.0,0.0,0.0,1.2541,0.0,0.0,0.0,0.0,0.0,0.0,0.0,0.0,0.0,0.0,0.0,2.217,2.2876,0.0,0.0,0.0,0.0,0.0,0.0,0.0,0.0,0.0,0.0,0.0,0.0,2.0605,2.0683,2.2266,2.3101,2.3101,2.3101,2.3101,2.3081,2.3264,2.3792,2.4831,0.0,0.0,0.0,0.0,0.0,0.0,0.0,0.0,0.0,0.0,0.0,0.0,0.0,0.0,0.0,0.0,0.0,0.0,0.0,0.0,0.0,0.0,0.0,0.0,0.0,2.1437,0.0,0.0,0.0,0.0,0.0,0.0,0.0,0.0,0.0,0.0,0.0,2.8237,2.824,2.8899,2.9433,2.9596,2.9072,2.8671,0.0,0.0,0.0,0.0,0.0,0.0,0.0,0.0,0.0,0.0,0.0,0.0,0.0,0.0,2.972,2.9172,2.8515,2.8035,2.8009,0.0,0.0,0.0,0.0,0.0,0.0,0.0,0.0,0.0,0.0,0.0,0.0,0.0,0.0,0.0,0.0,1.3542,0.0,0.0,0.0,0.0,0.0,0.0,0.0,0.0,2.1399,2.2696,2.3735,2.4347,2.4442,0.0,2.3465,2.2271,0.0,0.0,0.0,0.0,0.0,0.0,0.0,0.0,2.0781,2.0859,2.2301,2.3101,2.3101,2.3101,2.3101,2.3144,2.3987,2.4729,2.5228,2.5394,2.5165,0.0,0.0,0.0,0.0,0.0,0.0,0.0,0.0,0.0,0.0,0.0,0.0,0.0,0.0,0.0,0.0,0.0,0.0,0.0,0.0,0.0,0.0,0.0,2.2384,0.0,0.0,0.0,0.0,0.0,0.0,0.0,0.0,0.0,2.7246,2.812,2.8643,2.8355,2.8619,2.8857,2.8857,0.0,0.0,0.0,0.0,0.0,0.0,0.0,2.7966,2.916,2.853,2.8299,2.9635,3.0568,3.1259,3.1404,0.0,0.0,3.0759,3.0206,2.9808,2.9675,2.9886,3.0128,3.0223,3.0313,3.0626,0.0,0.0,0.0,0.0,0.0,0.0,0.0,0.0,1.4288,1.4452,0.0,1.4524,0.0,0.0,0.0,0.0,0.0,0.0,0.0,0.0,2.4217,2.5461,2.5854,2.5896,2.5599,2.4968,2.4474,2.3876,2.318,2.131,0.0,0.0,0.0,0.0,0.0,0.0,2.121,2.1249,2.2457,2.3101,2.3101,2.3101,2.3144,2.3169,2.4808,2.53,2.453,2.5741,2.5686,2.3971,2.3358,0.0,0.0,0.0,0.0,0.0,0.0,0.0,0.0,0.0,0.0,0.0,0.0,0.0,0.0,0.0,0.0,0.0,0.0,0.0,0.0,2.3035,0.0,0.0,0.0,0.0,0.0,0.0,0.0,0.0,0.0,0.0,2.781,2.7794,2.7856,2.7854,0.0,0.0,0.0,0.0,2.7083,2.7106,2.6693,2.6715,2.7762,2.6804,2.6361,2.7735,0.0,0.0,2.9148,3.0696,3.1597,3.1072,3.1412,3.1721,3.1677,3.1201,3.0989,3.1473,3.1199,3.1143,3.1558,3.0929,3.0326,1.6268,0.0,0.0,0.0,0.0,1.513,1.5458,1.5924,1.5924,1.596,1.6078,1.6381,0.0,0.0,0.0,0.0,0.0,0.0,2.1589,2.2777,2.4444,2.5647,2.6418,2.675,2.662,2.6053,2.531,2.4833,2.4582,2.3572,2.2231,2.0662,0.0,0.0,0.0,0.0,2.1699,2.1758,2.2613,2.3101,2.3101,2.3101,2.343,2.4079,2.4573,2.5041,2.5385,2.5804,2.588,2.5646,2.4517,0.0,0.0,0.0,0.0,0.0,0.0,0.0,0.0,0.0,0.0,0.0,0.0,0.0,0.0,0.0,0.0,0.0,0.0,0.0,2.2879,2.3345,2.3547,0.0,0.0,0.0,0.0,0.0,0.0,0.0,0.0,0.0,2.6885,2.7738,2.8123,0.0,0.0,2.7243,2.6882,2.6423,2.6209,2.6535,0.0,0.0,0.0,2.758,2.7554,2.8351,2.8851,2.9488,3.0423,3.1498,3.2346,3.2539,3.204,3.1646,3.1623,3.1205,3.0809,3.0707,3.1176,3.1661,3.1689,3.153,3.1433,1.7932,1.7165,1.6635,1.6448,1.6511,1.6589,1.6807,1.706,1.706,1.7215,1.7479,1.7695,1.7868,1.7941,1.9136,0.0,0.0,0.0,2.2836,2.4154,2.5437,2.633,2.6915,2.7324,2.7282,2.6853,2.5916,2.5585,2.5751,2.4977,2.4045,2.2981,0.0,0.0,2.0894,2.1685,2.2227,2.2402,2.3047,2.3398,2.3398,2.3179,2.3387,2.395,2.4337,2.466,2.5017,2.5523,2.5729,2.5609,2.4622,2.3849,0.0,0.0,0.0,0.0,0.0,0.0,0.0,0.0,0.0,0.0,0.0,2.4018,0.0,0.0,0.0,0.0,2.2567,2.2814,2.3393,2.3816,0.0,0.0,0.0,0.0,0.0,0.0,0.0,2.7822,2.7565,2.7149,2.6526,2.7179,2.7431,2.6626,2.6587,2.6499,2.6141,0.0,2.577,2.6094,2.637,2.669,2.6967,2.7019,2.717,2.7442,2.8528,2.9542,3.0323,3.1344,3.2368,3.2956,3.2394,3.1447,3.1064,3.0519,3.0175,3.0135,3.0683,3.1149,3.1067,3.0996,3.1038,1.9178,1.8797,1.7497,1.735,1.7858,1.7572,1.7663,1.7934,1.7938,1.8271,1.8781,1.869,1.9196,2.0183,2.0838,0.0,0.0,2.3366,2.4671,2.602,2.7019,2.7455,2.7434,2.7779,2.7738,2.7351,2.6459,2.6206,2.6558,2.5706,2.532,2.5351,2.3763,2.2518,2.1787,2.2266,2.2722,2.3174,2.3608,2.3848,2.3828,2.3418,2.3203,2.3266,2.3973,2.4176,2.3825,2.4892,2.521,2.451,2.4011,2.3463,2.2911,0.0,0.0,0.0,0.0,0.0,0.0,0.0,0.0,0.0,0.0,0.0,0.0,0.0,0.0,0.0,2.4029,0.0,2.3964,2.4415,0.0,0.0,0.0,2.5475,2.4687,2.5993,2.6638,2.5883,0.0,0.0,0.0,0.0,2.6141,2.5781,2.5674,2.5674,2.5674,2.5723,2.5674,2.5752,2.5723,2.5723,2.5829,2.5829,2.5829,2.5917,2.6867,2.8235,2.9189,3.0446,3.1736,3.2652,3.2065,3.1086,3.0188,2.9492,2.9176,2.9663,2.9916,3.0014,3.0166,2.9843,2.9822,1.9259,1.9971,1.9368,1.9112,1.8986,1.8907,1.8969,1.9018,1.9304,1.9161,1.8843,1.9704,2.0286,2.065,2.1105,2.1857,2.2832,2.4171,2.5531,2.6993,2.8235,2.8628,2.8317,2.84,2.8214,2.7738,2.7247,2.6898,2.6791,2.6238,2.5438,2.4514,2.3567,2.3032,2.2843,2.274,2.2797,2.2889,2.3787,2.4277,2.4258,2.3848,2.3633,2.3677,2.3205,2.3054,2.3272,2.3268,2.3671,2.4425,2.3547,2.3181,2.3541,2.2094,0.0,0.0,0.0,0.0,0.0,0.0,0.0,0.0,0.0,2.4327,2.4284,0.0,2.4022,0.0,2.4288,2.4352,2.4543,2.4631,0.0,0.0,2.548,2.5927,2.6506,2.7028,2.7218,2.6894,2.6478,2.6054,2.5604,2.5273,2.5234,2.5615,2.5674,2.5674,2.5674,2.5674,2.5674,2.5674,2.5674,2.5674,2.5674,2.5674,2.5674,2.5674,2.6605,2.7461,2.7678,2.8986,3.0075,3.0309,2.9807,2.9416,2.9455,2.8696,2.8117,2.8296,2.8901,2.969,3.0441,3.0199,3.0008,1.9109,1.9586,1.9793,1.9844,1.9812,1.9654,1.9558,1.9447,1.9622,1.9558,1.9367,2.081,2.1393,2.132,2.1959,2.2603,2.3275,2.3956,2.513,2.6585,2.7221,2.7498,2.7502,2.7306,2.7117,2.6923,2.6764,2.6566,2.6222,2.6014,2.5198,2.3857,2.3329,2.2985,2.287,2.2357,2.2411,2.3114,2.4173,2.4805,2.4933,2.4199,2.3887,2.4043,2.3047,2.2672,2.3081,2.2734,2.2909,2.38,2.2993,2.295,2.3811,2.2629,2.2246,0.0,0.0,0.0,0.0,0.0,0.0,0.0,0.0,0.0,0.0,0.0,2.4512,0.0,2.4526,2.4697,2.4746,2.4746,2.4808,2.5169,2.5278,2.5591,2.6133,2.6164,2.5976,2.5525,2.5295,2.5025,2.4473,2.4226,2.4201,2.459,2.4245,2.4362,2.5479,2.5674,2.5674,2.5674,2.5674,2.5674,2.5674,2.5265,2.5167,2.5645,2.6346,2.7,2.7462,2.8416,2.9268,2.9676,2.9189,2.8699,2.8897,2.8115,2.7434,2.7447,2.7719,2.8269,2.8968,2.8903,2.889,1.8758,1.8657,1.9496,1.998,2.0131,2.0081,1.9861,1.9558,1.9558,1.9781,2.0133,2.1645,2.2063,2.1675,2.2673,2.3093,2.3202,2.3293,2.4152,2.5555,2.5391,2.5629,2.616,2.5617,2.5457,2.5699,2.5708,2.5587,2.5181,2.5226,2.4499,2.3203,2.3012,2.2703,2.2333,2.1658,2.2104,2.3777,2.4708,2.5352,2.5654,2.457,2.4102,2.4355,2.3281,2.2812,2.3062,2.2832,2.2852,2.314,2.2713,2.2928,2.3998,2.3469,2.3767,0.0,2.4591,0.0,0.0,0.0,0.0,0.0,0.0,0.0,0.0,2.5654,2.5285,2.4291,2.4808,2.5061,2.4794,2.4794,2.4785,2.4884,2.4775,2.4726,2.4843,2.4529,2.4016,2.3302,2.3818,2.3967,2.3185,2.3035,2.3035,2.3085,2.2466,2.2717,2.4609,2.5069,2.5069,2.5235,2.5284,2.502,2.502,2.4412,2.4196,2.5058,2.5435,2.6269,2.7175,2.7627,2.8309,2.9223,2.8712,2.8202,2.8263,2.7522,2.6934,2.6934,2.668,2.6671,2.7165,2.7275,2.7495,1.7918,1.8499,1.939,1.9368,1.8896,2.0189,2.0527,2.0226,2.0512,2.067,2.0734,2.1049,2.1038,2.0716,2.1141,2.1595,2.1987,2.2821,2.387,2.5054,2.5354,2.5681,2.5989,2.5344,2.5023,2.5039,2.4683,2.4384,2.4122,2.3772,2.3099,2.2118,2.2668,2.2535,2.1671,0.0,0.0,0.0,2.546,2.5615,2.5674,2.5137,2.4687,2.4414,2.3848,0.0,2.312,2.3398,2.3574,2.3652,2.3699,0.0,0.0,0.0,0.0,0.0,0.0,0.0,0.0,0.0,0.0,0.0,2.571,2.5607,2.5584,2.5752,2.5585,2.5011,2.5352,2.546,2.5217,2.5169,2.5091,2.4922,2.4115,2.385,2.443,2.375,2.3053,2.2719,2.2769,2.2568,2.1844,2.1692,2.1777,2.1912,2.1845,2.1912,2.2316,2.2685,2.2802,2.2785,2.3035,2.3085,2.3085,2.2935,2.2835,2.3103,2.3138,2.3709,2.4672,2.4956,2.5328,2.6417,2.6397,2.6409,2.6725,2.6654,2.6404,2.6504,2.6226,2.6369,2.7312,2.7266,2.7395,1.7238,0.0,1.9226,1.9049,0.0,1.9931,2.02,1.9454,2.03,2.0655,2.067,2.0845,2.0727,2.0468,2.0641,2.0762,2.0907,2.1577,2.2493,2.3531,2.3547,2.3955,2.4617,2.3739,2.353,2.3837,2.3729,2.3411,2.3083,2.2901,2.2328,2.1267,2.263,2.3009,2.2554,2.3774,2.4519,2.4652,2.5588,2.6055,2.6035,2.541,2.4863,2.4434,0.0,0.0,0.0,0.0,0.0,0.0,0.0,0.0,0.0,0.0,0.0,2.5305,2.4958,2.4996,2.5662,2.5399,2.5703,2.6926,2.6313,2.5774,2.5566,2.5457,2.5271,2.5044,2.5217,2.5039,2.4412,2.4214,2.385,2.3203,2.2501,2.2299,2.2601,2.2249,2.1625,2.1081,2.1336,2.1336,2.0364,2.0261,2.0297,2.0385,1.9973,1.9731,1.9819,2.0998,2.1912,2.1862,2.1456,2.1473,2.1963,2.1726,2.1743,2.2131,2.2383,2.2634,2.3035,2.3552,2.4048,2.451,2.4922,2.5263,2.4902,2.4877,2.4877,2.4877,2.4777,2.5208,2.6544,2.684,2.7169,1.6601,1.7293,1.8604,1.8373,1.7252,1.9272,1.9554,1.8797,0.0,0.0,0.0,2.081,2.0814,2.0555,2.0618,2.0425,2.0232,2.0559,2.1174,2.1994,2.1666,2.2016,2.2837,2.2035,2.1907,2.2522,2.2623,2.2495,2.2118,2.2213,2.1896,2.1324,2.2879,2.3909,2.4227,2.6097,2.6149,2.4316,2.5628,2.6387,2.6367,2.5605,2.5019,2.4602,2.4316,2.4102,2.4023,2.4082,2.4258,2.4512,2.4094,2.4268,2.5137,2.5111,2.5518,2.6445,2.6707,2.7078,2.7545,2.6937,2.6877,2.7645,2.6559,2.5699,2.5213,2.4802,2.4566,2.4424,2.4369,2.3967,2.3053,2.2735,2.2232,2.1336,2.0826,2.0672,2.0893,2.0751,2.0369,1.9576,2.0162,2.0251,1.9174,1.9031,1.895,1.8912,1.8471,1.7716,1.7926,1.9569,2.0845,2.0845,2.0246,2.0092,2.0692,2.0554,2.0518,2.1132,2.1523,2.1726,2.1878,2.2502,2.3057,2.3125,2.3863,2.4003,2.3346,2.3195,2.3108,2.309,2.3092,2.3642,2.5474,2.5979,2.6417,1.5721,1.5724,1.6713,1.6525,1.5752,1.7821,1.9138,1.9864,2.0297,2.059,2.0826,2.0914,2.0965,2.0928,2.0994,2.0848,2.0578,2.0894,2.113,0.0,2.1233,2.1429,2.187,2.1474,2.1303,2.143,2.146,2.1402,2.1358,2.1415,2.1798,2.2726,2.3944,2.5066,2.61,2.7103,2.7103,2.6154,2.6288,2.6387,2.6367,2.5898,2.5625,2.5518,2.544,2.5273,2.4949,2.5254,2.5312,2.5047,2.5245,2.5479,2.5596,2.5947,2.6376,2.6855,2.6439,2.6461,2.7193,2.6626,2.6432,2.6835,2.5628,2.4562,2.3974,2.3716,2.3226,2.2604,2.235,2.2013,2.1625,2.1556,2.1353,2.0893,2.0004,1.9797,2.0652,2.0226,1.9811,1.9599,1.9758,1.944,1.8479,1.8238,1.8238,1.8225,1.8279,1.825,1.8077,1.822,1.8593,1.8774,1.8722,1.8722,1.8982,1.8826,1.8878,1.8878,1.9138,1.9539,2.0195,2.0825,2.1398,2.2121,2.2632,2.2781,2.2534,2.244,2.2256,2.2223,2.2231,2.2911,2.4686,2.4499,2.461,1.4937,1.5332,1.6037,1.5645,1.4652,1.5904,1.721,1.8387,1.922,1.9934,2.0493,2.0715,2.0711,2.0582,2.074,2.0659,2.0401,2.0743,2.0907,2.0959,2.1065,2.1284,2.1432,2.1261,2.1203,2.1203,2.1203,2.1203,2.1203,2.1203,2.1816,2.303,2.4799,2.63,2.7457,2.782,2.782,2.7492,2.6988,2.6836,2.707,2.6426,2.6094,2.6094,2.6309,2.623,2.5801,2.6191,2.623,2.5801,2.6043,2.606,2.5866,2.6314,2.6705,2.6877,2.662,2.6669,2.726,2.6895,2.657,2.634,2.5129,2.3988,2.3098,2.2495,2.2039,2.1735,2.1428,2.1071,2.0687,2.0542,2.0121,1.9415,1.8975,1.8949,1.9208,1.9209,1.9082,1.9027,1.9027,1.8755,1.8063,1.8129,1.8155,1.8062,1.8303,1.837,1.8049,1.7996,1.7995,1.7991,1.795,1.795,1.8003,1.8108,1.8174,1.816,1.8318,1.8527,1.8997,1.9558,2.0317,2.077,2.1475,2.1771,2.1441,2.1256,2.1217,2.1079,2.1186,2.1971,2.3092,2.3259,2.3832,1.4426,1.503,1.5465,1.5115,1.4225,1.4734,1.5671,1.6955,1.7905,1.885,1.9761,2.04,2.0604,2.0435,2.0624,2.0608,2.0486,2.072,2.0837,2.0852,2.1013,2.1101,2.1101,2.1101,2.1101,2.1115,2.1174,2.1203,2.1203,2.1203,2.193,2.3463,2.5753,2.7349,2.8301,2.8301,2.8301,2.8242,2.7539,2.7324,2.7669,2.7063,2.673,2.6699,2.6992,2.7012,2.6719,2.6894,2.6875,2.6582,2.6633,2.6499,2.6109,2.6607,2.6869,2.6816,2.6499,2.6398,2.6641,2.6844,2.6589,2.5792,2.4605,2.3409,2.2127,2.1256,2.0788,2.0758,2.0461,2.0159,1.9776,1.9542,1.909,1.8211,1.8343,1.8425,1.821,1.841,1.8584,1.8584,1.8584,1.8477,1.8277,1.8397,1.8531,1.8464,1.8557,1.8557,1.8262,1.8142,1.8036,1.7849,1.7689,1.7648,1.7635,1.774,1.7911,1.7911,1.8138,1.8179,1.8353,1.911,1.9719,1.9834,2.0485,2.0833,2.0253,2.0115,2.01,1.9928,2.0129,2.0654,2.156,2.2307,2.2834,1.4457,1.4306,1.446,1.4671,1.4924,1.5184,1.5854,1.67,1.6975,1.7597,1.8713,2.0306,2.1077,2.0996,2.1124,2.1101,2.1101,2.1145,2.1159,2.1115,2.0896,2.0764,2.0794,2.0794,2.0764,2.0823,2.1086,2.1233,2.1203,2.1332,2.2369,2.4561,2.6952,2.814,2.8301,2.8301,2.8301,2.8281,2.7832,2.7689,2.7708,2.765,2.7591,2.7611,2.7578,2.763,2.7487,2.7207,2.6961,2.6973,2.691,2.6788,2.6583,2.6916,2.7079,2.6782,2.5558,2.4699,2.4661,2.5811,2.6118,2.4948,2.375,2.2504,2.107,1.9808,1.9176,1.9151,1.8946,1.8851,1.8643,1.8685,1.8658,1.8506,1.8504,1.8477,1.849,1.8704,1.8878,1.8878,1.8878,1.8771,1.8544,1.8677,1.8945,1.9092,1.9132,1.9008,1.8741,1.8499,1.8353,1.8262,1.7983,1.7675,1.7649,1.7595,1.7768,1.7768,1.7889,1.8023,1.8252,1.8616,1.9118,1.9511,1.9614,1.9853,1.9792,1.9492,1.9185,1.9328,1.9435,1.9662,2.0141,2.1001,2.1698,1.3994,1.3917,1.3917,1.4084,1.4291,1.45,1.4781,1.5248,1.691,1.7862,1.8555,2.0739,2.1552,2.1213,2.1407,2.1496,2.1496,2.1496,2.1379,2.1218,2.1072,2.1013,2.1028,2.1218,2.1203,2.1057,2.135,2.1393,2.1491,2.2855,2.4128,2.5069,2.6811,2.8,2.8524,2.7698,2.7698,2.8598,2.8242,2.8164,2.832,2.793,2.7845,2.8027,2.8281,2.8022,2.7354,2.7149,2.6656,2.5738,2.5987,2.6056,2.5693,2.6398,2.6801,2.6658,2.6154,2.5482,2.4847,2.5273,2.5103,2.4055,2.2704,2.1613,2.1055,1.9917,1.9185,1.9132,1.8771,1.8611,1.8918,1.8851,1.8744,1.8771,1.8891,1.8945,1.8771,1.9011,1.9185,1.9185,1.9185,1.9078,1.8838,1.8851,1.9052,1.9292,1.9243,1.9021,1.8687,1.849,1.8363,1.8151,1.8022,1.8089,1.8101,1.8116,1.8103,1.813,1.8223,1.8303,1.837,1.8798,1.9239,1.9359,1.9586,1.9733,1.9805,1.9813,1.9639,1.9412,1.9225,1.947,1.9533,2.0,2.0222,1.3693,1.3693,1.3693,1.375,1.3863,1.3967,1.4043,1.4294,1.6266,1.7518,1.8313,2.0221,2.1296,2.1598,2.1774,2.1789,2.1701,2.1701,2.1525,2.1218,2.113,2.1072,2.1101,2.1306,2.1364,2.1291,2.1525,2.1788,2.2233,2.4302,2.5463,2.5617,2.667,2.7456,2.7788,2.7013,2.7326,2.832,2.8548,2.8809,2.8984,2.8613,2.8398,2.8496,2.875,2.8246,2.6976,2.7345,2.6829,2.5165,2.5915,2.6209,2.5649,2.6281,2.6518,2.6208,2.6518,2.6129,2.4855,2.4862,2.4361,2.3017,2.181,2.106,2.0673,1.988,1.943,1.939,1.8985,1.8945,1.9296,1.9172,1.9052,1.9065,1.9252,1.9292,1.9199,1.9372,1.9519,1.9586,1.9546,1.9372,1.9105,1.8998,1.9025,1.9176,1.9134,1.8888,1.859,1.8519,1.8466,1.8293,1.8407,1.8378,1.845,1.8311,1.838,1.8342,1.8315,1.8284,1.8419,1.8871,1.9322,1.9357,1.9734,1.996,1.9813,1.992,1.9847,1.9546,1.943,1.943,1.9457,1.943,1.943,1.3693,1.3693,1.3693,1.3901,1.426,1.4081,1.4118,1.426,1.462,1.5864,1.7841,1.8398,1.9955,2.2369,2.2226,2.2008,2.1745,2.1745,2.1569,2.1204,2.0955,2.0764,2.0679,2.0764,2.0955,2.1306,2.1628,2.2509,2.3885,2.5244,2.5898,2.5955,2.6932,2.6811,2.607,2.6888,2.7433,2.7716,2.8834,2.9492,2.9626,2.9863,2.959,2.8933,2.8945,2.8189,2.6865,2.8003,2.7893,2.6045,2.727,2.7746,2.6972,2.6954,2.6391,2.5273,2.6312,2.6021,2.4048,2.4514,2.4155,2.2137,2.1307,2.073,1.9764,1.9533,1.943,1.9417,1.9363,1.9363,1.9403,1.939,1.9363,1.9363,1.9403,1.9466,1.972,1.9706,1.9907,2.0027,1.9853,1.9586,1.9403,1.9092,1.8933,1.8984,1.9129,1.9022,1.8784,1.8737,1.8646,1.8724,1.8709,1.8631,1.8396,1.8451,1.8249,1.8269,1.8397,1.7987,1.8229,1.8451,1.881,1.9011,1.8898,1.9068,1.9555,1.9653,1.9461,1.9301,1.9372,1.9372,1.943,1.943,1.943,1.3693,1.3693,1.3693,1.3778,1.391,1.3977,1.4052,1.4199,1.5335,1.664,1.8099,1.925,2.069,2.2295,2.2395,2.2288,2.1999,2.2166,2.1991,2.1568,2.1423,2.1452,2.1642,2.1657,2.1701,2.1862,2.214,2.2992,2.4503,2.6468,2.7034,2.6334,2.6644,2.6923,2.7089,2.6717,2.729,2.8974,2.948,2.9687,2.9941,2.9863,2.9467,2.8914,2.9411,2.8484,2.5861,2.6899,2.6363,2.3991,2.5482,2.6315,2.6312,2.7066,2.6805,2.5375,2.5822,2.5268,2.3242,2.292,2.2374,2.0897,2.0258,1.9924,1.9546,1.943,1.943,1.943,1.943,1.943,1.943,1.943,1.943,1.943,1.943,1.9492,1.972,1.98,1.9853,1.9893,1.9706,1.9479,1.9426,1.9092,1.8971,1.8972,1.8027,1.7781,1.8349,1.7936,1.7368,1.7513,1.7554,1.7298,1.6244,1.7925,1.8757,1.8739,1.8629,1.7762,1.7566,1.736,1.7565,1.6908,1.7005,1.7589,1.7901,1.8724,1.8615,1.8344,1.8473,1.9068,1.943,1.9301,1.9359,1.3693,1.3693,1.3693,1.3731,1.3797,1.3873,1.3948,1.4166,1.5732,1.7081,1.8265,1.9777,2.1032,2.1978,2.2355,2.2256,2.2044,2.236,2.2265,2.1735,2.1831,2.1979,2.2154,2.2184,2.2242,2.2359,2.2637,2.3444,2.4767,2.6491,2.6848,2.6014,2.603,2.6142,2.6363,2.6226,2.7275,2.8799,2.9641,3.0156,3.0371,3.0293,2.9737,2.9035,2.9364,2.8122,2.5109,2.6087,2.5599,2.3655,2.4918,2.5854,2.5621,2.5961,2.5752,2.4714,2.4852,2.4285,2.2631,2.195,2.1258,2.0295,1.9706,1.943,1.943,1.943,1.943,1.943,1.943,1.943,1.9444,1.9452,1.9564,1.9506,1.9506,1.9666,2.0013,2.0094,2.0054,1.996,1.9733,1.9586,1.9599,1.9219,1.9181,1.9456,1.7647,1.7002,1.7653,1.6948,1.6034,1.6158,1.6273,1.6198,1.5852,1.6849,1.6983,1.6945,1.7079,1.6651,1.6306,1.6117,1.5771,1.5084,1.5105,1.5743,1.6462,1.741,1.7503,1.7114,1.7689,1.8402,1.8765,1.9127,1.905,1.3753,1.3803,1.3693,1.3797,1.392,1.3788,1.3816,1.4189,1.5391,1.6695,1.8002,1.9449,2.0779,2.1853,2.2041,2.1915,2.1783,2.2243,2.2216,2.1715,2.2018,2.2153,2.2211,2.2182,2.2328,2.25,2.2945,2.3822,2.5024,2.5436,2.5497,2.5224,2.5208,2.4682,2.2943,2.5649,2.6842,2.7576,2.9502,3.082,3.0937,3.1133,3.0458,2.8931,2.8529,2.6901,2.4081,2.5695,2.5709,2.422,2.6004,2.6607,2.4932,2.4036,2.3167,2.319,2.3397,2.3034,2.2126,2.1729,2.1081,2.0294,1.9679,1.943,1.943,1.943,1.943,1.943,1.943,1.943,1.947,1.9599,1.9733,1.9786,1.972,1.9973,2.0388,2.0615,2.0548,2.0254,1.9987,1.9947,1.9907,1.9483,1.9215,1.9175,1.7857,1.656,1.6701,1.5749,1.5204,1.5202,1.5024,1.48,1.5209,1.5624,1.4982,1.4497,1.4731,1.463,1.4299,1.4115,1.3906,1.3364,1.407,1.4638,1.442,1.5283,1.5946,1.5924,1.6809,1.7633,1.8211,1.8555,1.8509,1.4222,1.4867,1.4043,1.3721,1.3778,1.3712,1.3731,1.3946,1.5309,1.6527,1.7681,1.9071,2.0399,2.1299,2.1614,2.1551,2.1348,2.1943,2.2032,2.172,2.1968,2.2241,2.2432,2.2227,2.2148,2.2482,2.3544,2.4332,2.4826,2.5806,2.605,2.5256,2.5071,2.484,2.4301,2.6106,2.7297,2.83,2.9963,3.0898,3.0898,3.1016,2.9987,2.7835,2.7037,2.5423,2.2972,2.5033,2.4953,2.2546,2.4878,2.5589,2.4179,2.3834,2.3273,2.2251,2.2434,2.2053,2.093,2.0557,2.036,1.9913,1.9586,1.9457,1.943,1.943,1.943,1.943,1.943,1.943,1.947,1.9626,1.9733,1.9591,1.9679,1.9893,2.012,2.0134,2.0241,2.0454,2.0281,2.0212,2.027,1.9827,1.9237,1.8466,1.6679,1.5429,1.5427,1.4388,1.3487,1.3569,1.3447,1.3367,1.345,1.3424,1.2959,1.2989,1.3198,1.2978,1.2619,1.239,1.2155,1.2217,1.2917,1.3197,1.2984,1.3412,1.4231,1.483,1.5481,1.6433,1.7494,1.784,1.7769,1.458,1.5579,1.434,1.3807,1.3807,1.3807,1.4147,1.4801,1.6,1.7219,1.8443,1.9625,2.0462,2.1046,2.1299,2.1299,2.1172,2.1538,2.1614,2.1524,2.1922,2.231,2.2543,2.2548,2.2389,2.2497,2.347,2.3896,2.3713,2.4748,2.4871,2.4085,2.3961,2.3961,2.4209,2.5851,2.7289,2.8188,2.9903,3.0898,3.0898,3.0762,2.948,2.7108,2.6182,2.4409,2.2201,2.3917,2.4095,2.2542,2.3563,2.3821,2.2963,2.2657,2.2083,2.126,2.1024,2.0855,2.0221,2.002,1.992,2.0,1.976,1.9533,1.9506,1.9466,1.9399,1.9506,1.9591,1.9626,1.984,1.9893,1.992,1.988,2.004,2.012,2.0134,2.0134,2.0267,2.0561,2.0601,2.0681,2.068,2.0259,1.9466,1.8171,1.6146,1.4419,1.4254,1.3126,1.261,1.2222,1.2199,1.1955,1.1473,1.1224,1.0948,1.141,1.2009,1.1647,1.1217,1.115,1.0955,1.1046,1.1507,1.2049,1.199,1.2759,1.3557,1.3915,1.4363,1.5136,1.6054,1.6841,1.6886,1.481,1.5703,1.4504,1.3901,1.3963,1.3963,1.4777,1.6331,1.7195,1.8363,1.9624,2.0585,2.1046,2.1109,2.1172,2.1109,2.1109,2.1109,2.1172,2.1299,2.1699,2.2181,2.2517,2.2687,2.261,2.2524,2.2922,2.2765,2.2369,2.2856,2.2418,2.2418,2.2418,2.2167,2.2841,2.5024,2.6365,2.697,2.9176,3.0392,3.0645,3.0411,2.9007,2.6492,2.5737,2.4193,2.1866,2.2409,2.2933,2.25,2.233,2.2124,2.1678,2.0571,2.0104,2.0032,1.9631,1.9905,2.0067,2.0027,2.004,2.0414,2.0094,1.9813,1.9746,1.9626,1.9586,1.9733,1.9786,2.004,2.0401,2.0454,2.0441,2.0681,2.0641,2.0601,2.0655,2.0655,2.0748,2.0842,2.1015,2.1184,2.1319,2.0656,1.9778,1.8358,1.6489,1.4996,1.3388,1.2315,1.1662,1.1433,1.1422,1.1365,1.1142,1.0965,1.0697,1.0934,1.1323,1.0983,1.0476,1.0395,1.033,1.0297,1.0619,1.0984,1.1497,1.2359,1.2775,1.3026,1.3474,1.3922,1.4702,1.5753,1.6024,1.5082,1.5175,1.4026,1.3599,1.3858,1.3858,1.4863,1.6425,1.7354,1.8599,1.9775,2.0711,2.1109,2.1109,2.1109,2.1109,2.1109,2.1109,2.1109,2.1109,2.1235,2.1688,2.2093,2.2332,2.2208,2.2015,2.2558,2.2412,2.1817,2.2349,2.2397,2.2104,2.2097,2.2069,2.2404,2.3914,2.5162,2.6078,2.7048,2.8659,2.9842,2.935,2.7942,2.5978,2.5562,2.3993,2.1411,2.1425,2.2125,2.2759,2.1684,2.104,2.1074,2.0463,2.012,2.0107,2.0054,2.004,2.0174,2.0113,2.0214,2.0307,2.0241,2.0027,1.9826,1.9933,1.992,1.9907,1.9973,2.0281,2.0615,2.0815,2.1082,2.1456,2.1122,2.0762,2.0748,2.0869,2.1149,2.155,2.1423,2.1502,2.1466,2.0847,1.9625,1.7503,1.5986,1.4558,1.2727,1.1901,1.1392,1.122,1.1173,1.1111,1.0975,1.0859,1.0724,1.0717,1.0836,1.0777,1.0438,1.0307,1.0189,1.0117,1.093,1.1417,1.1705,1.2322,1.2306,1.2524,1.288,1.357,1.4254,1.5086,1.5183,1.5177,1.6024,1.4231,1.3554,1.3807,1.4304,1.5542,1.7022,1.8116,1.926,2.043,2.0889,2.1109,2.1109,2.1109,2.1109,2.1109,2.1109,2.1109,2.1136,2.1306,2.1518,2.1937,2.2226,2.2308,2.2076,2.2641,2.2595,2.2181,2.2368,2.2368,2.2139,2.2048,2.2048,2.2139,2.3486,2.4545,2.536,2.6153,2.7634,2.9252,2.8164,2.7061,2.5708,2.4996,2.3325,2.1425,2.1229,2.1729,2.2104,2.1456,2.0855,2.0828,2.0588,2.0414,2.0414,2.0307,2.0267,2.0401,2.0414,2.0481,2.0548,2.0508,2.0347,2.0214,2.0241,2.0147,2.0227,2.0334,2.0615,2.1002,2.1309,2.155,2.1683,2.155,2.1296,2.1096,2.1323,2.1603,2.1858,2.1885,2.1768,2.1874,2.0845,1.8974,1.6856,1.5466,1.3714,1.2001,1.1622,1.1321,1.126,1.1192,1.1214,1.1145,1.0975,1.0907,1.088,1.0968,1.0819,1.0537,1.0376,1.0337,1.0505,1.1199,1.1762,1.2022,1.2296,1.2653,1.2877,1.2976,1.3211,1.3866,1.4119,1.4209,1.5268,1.7215,1.4638,1.3564,1.3758,1.5022,1.6381,1.7965,1.9024,2.0246,2.1209,2.1222,2.1109,2.1109,2.1176,2.1176,2.1176,2.1269,2.1256,2.1336,2.147,2.1695,2.193,2.2566,2.2676,2.252,2.3178,2.2974,2.2476,2.2435,2.2345,2.2094,2.199,2.2016,2.2198,2.332,2.4142,2.46,2.5387,2.6706,2.7804,2.6869,2.5816,2.5376,2.3813,2.2665,2.1656,2.1416,2.1639,2.1708,2.1336,2.1176,2.1122,2.0882,2.0735,2.0695,2.0535,2.0508,2.0668,2.0722,2.0815,2.0949,2.0828,2.0695,2.0601,2.0481,2.0468,2.0561,2.0708,2.1082,2.1563,2.1911,2.1991,2.1977,2.2191,2.2085,2.1687,2.1858,2.2071,2.2031,2.2159,2.2181,2.143,2.0204,1.8265,1.5945,1.475,1.3499,1.2194,1.1626,1.1484,1.1477,1.1409,1.1328,1.1253,1.1172,1.1131,1.1104,1.1267,1.1217,1.0931,1.0754,1.0672,1.0878,1.1551,1.1931,1.2145,1.2505,1.2919,1.3009,1.2977,1.3122,1.3388,1.3267,1.3251,1.6002,1.5355,1.3683,1.3168,1.3635,1.4855,1.6421,1.8075,1.9188,2.0399,2.1299,2.1235,2.1109,2.1136,2.1336,2.1521,2.1419,2.1514,2.179,2.1804,2.1844,2.2094,2.2345,2.2789,2.2779,2.2739,2.3181,2.3004,2.2401,2.2454,2.232,2.2083,2.2071,2.1991,2.2149,2.252,2.3079,2.3797,2.3811,2.4735,2.6152,2.5496,2.4649,2.4347,2.2865,2.2165,2.2015,2.1523,2.155,2.1911,2.175,2.143,2.144,2.1149,2.1002,2.0975,2.0935,2.0922,2.0989,2.0989,2.1029,2.1069,2.1029,2.0922,2.0708,2.0842,2.0802,2.0842,2.1159,2.155,2.1912,2.2418,2.2375,2.224,2.206,2.162,2.0947,2.171,2.2198,2.2047,2.1714,2.1363,2.0039,1.9093,1.7248,1.5165,1.4026,1.3174,1.2373,1.1671,1.1599,1.1586,1.1558,1.1477,1.143,1.1382,1.1375,1.1402,1.1558,1.166,1.1368,1.1257,1.1291,1.1433,1.1775,1.2073,1.2243,1.247,1.2801,1.2888,1.2951,1.2982,1.2928,1.2681,1.2551,1.5554,1.4782,1.3424,1.3293,1.4268,1.5564,1.7044,1.8524,1.9763,2.0652,2.1235,2.1172,2.1189,2.1323,2.1483,2.1344,2.0901,2.0897,2.0984,2.126,2.1725,2.2405,2.2673,2.2983,2.3052,2.2943,2.3254,2.3051,2.2835,2.2646,2.2633,2.2472,2.2392,2.2432,2.2392,2.2378,2.2807,2.3223,2.3061,2.3648,2.5009,2.4152,2.3337,2.3056,2.2236,2.1937,2.2084,2.1804,2.1804,2.1977,2.1869,2.1628,2.1574,2.1283,2.1122,2.1109,2.1109,2.1109,2.1096,2.1109,2.1096,2.1109,2.1109,2.1029,2.0935,2.1042,2.1042,2.1015,2.1246,2.1621,2.1552,2.1607,2.166,2.1026,2.0697,2.0015,1.9619,2.0423,2.0894,2.0201,1.9414,1.9001,1.8209,1.743,1.6373,1.4421,1.3096,1.2266,1.218,1.1613,1.1633,1.1633,1.164,1.1613,1.1592,1.1586,1.1626,1.1714,1.1877,1.1965,1.1871,1.1878,1.1993,1.2045,1.1987,1.207,1.2258,1.2496,1.2669,1.2843,1.2824,1.2778,1.2655,1.2587,1.2472,1.5108,1.4782,1.3613,1.3809,1.5033,1.6592,1.7946,1.91,2.0526,2.1046,2.1122,2.1149,2.1309,2.1521,2.167,2.1056,2.0263,2.0069,2.0374,2.0717,2.2062,2.2712,2.3065,2.3229,2.3338,2.3482,2.3459,2.3352,2.3147,2.3051,2.282,2.2901,2.2832,2.2766,2.2819,2.2846,2.2929,2.297,2.297,2.3311,2.4232,2.3321,2.2646,2.2364,2.2217,2.2124,2.2191,2.2044,2.2017,2.2084,2.1869,2.1735,2.1655,2.1296,2.1109,2.1109,2.1109,2.1109,2.1109,2.1109,2.1109,2.1109,2.1176,2.1149,2.1122,2.1162,2.1203,2.1323,2.1512,2.1674,2.0995,2.0922,2.0439,1.9659,1.8851,1.8124,1.7878,1.8382,1.7976,1.7832,1.7795,1.7592,1.6543,1.5614,1.4745,1.3784,1.2525,1.1674,1.1674,1.1694,1.1755,1.1803,1.1837,1.1823,1.1796,1.1782,1.1823,1.1904,1.2094,1.2162,1.223,1.2257,1.2216,1.2108,1.208,1.2167,1.2164,1.2269,1.2423,1.2676,1.2595,1.2394,1.2357,1.2484,1.2384,1.5944,1.4903,1.4651,1.4716,1.5294,1.7549,1.878,1.9228,2.0462,2.1109,2.1136,2.1363,2.1285,2.1365,2.2004,2.1517,2.0239,2.0012,2.0386,2.0962,2.2267,2.3236,2.3554,2.3442,2.3418,2.342,2.3447,2.3351,2.3092,2.2928,2.2981,2.2873,2.2886,2.2899,2.2926,2.2873,2.2899,2.2913,2.2886,2.3201,2.3174,2.3052,2.2726,2.2605,2.2445,2.2458,2.2512,2.2271,2.2205,2.2592,2.2191,2.2071,2.1977,2.1496,2.1216,2.1176,2.1162,2.1176,2.1203,2.1136,2.1109,2.1162,2.1336,2.1336,2.1269,2.1349,2.1483,2.1643,2.1991,2.2323,2.2736,2.1343,2.0828,2.0264,1.8706,1.7214,1.6196,1.572,1.5922,1.6183,1.6348,1.6277,1.5108,1.4245,1.3738,1.3222,1.2441,1.1891,1.1891,1.1932,1.1999,1.2047,1.2088,1.2054,1.2013,1.2006,1.2013,1.204,1.2155,1.2223,1.2305,1.2406,1.2386,1.2237,1.2196,1.2265,1.2251,1.2141,1.2192,1.2401,1.2228,1.1993,1.2051,1.2187,1.1965,1.6203,1.4903,1.4903,1.5749,1.7098,1.8396,1.9419,2.0005,2.0068,2.0462,2.0808,2.0747,2.0513,2.0588,2.0981,2.017,1.8894,1.9228,1.9653,2.0485,2.2256,2.349,2.3809,2.3624,2.3437,2.3429,2.3512,2.3429,2.3086,2.2939,2.3115,2.326,2.3193,2.318,2.326,2.3193,2.3113,2.3073,2.2953,2.2873,2.2859,2.2859,2.2859,2.2819,2.2739,2.2739,2.2726,2.2472,2.2338,2.2485,2.2218,2.2031,2.1911,2.1804,2.1563,2.155,2.143,2.1416,2.1483,2.1456,2.1416,2.1563,2.171,2.171,2.163,2.171,2.1844,2.2058,2.2284,2.2117,2.103,2.0457,1.9584,1.807,1.6702,1.5535,1.4594,1.3815,1.418,1.4712,1.4326,1.3979,1.3616,1.2969,1.2767,1.2475,1.2176,1.2101,1.2094,1.2121,1.2169,1.2176,1.2196,1.221,1.2176,1.2176,1.2176,1.2203,1.2223,1.2291,1.2345,1.2433,1.2406,1.2291,1.2305,1.2352,1.2277,1.2224,1.2203,1.2174,1.207,1.1907,1.1887,1.1873,1.1728,1.6203,1.4903,1.5173,1.6807,1.8852,1.9056,1.9683,2.0439,1.968,1.9822,2.0605,2.0083,1.9778,1.9802,1.949,1.8578,1.6695,1.832,1.9357,2.041,2.2325,2.3581,2.3781,2.3821,2.3701,2.3557,2.3638,2.3647,2.342,2.3233,2.3367,2.3527,2.3487,2.3443,2.3563,2.3346,2.328,2.3121,2.2961,2.2884,2.2873,2.2859,2.2859,2.2859,2.2859,2.2914,2.2832,2.2645,2.2525,2.2512,2.2325,2.2098,2.1924,2.211,2.2151,2.2111,2.183,2.1817,2.183,2.179,2.1724,2.1871,2.2017,2.2031,2.2031,2.2058,2.2245,2.2445,2.2297,2.1842,2.0324,1.9148,1.7881,1.6317,1.4843,1.3623,1.3534,1.3137,1.2845,1.2823,1.2203,1.234,1.2601,1.2622,1.2574,1.2574,1.2277,1.2264,1.2257,1.2237,1.2257,1.225,1.2271,1.2325,1.2332,1.2332,1.2332,1.2338,1.2345,1.2372,1.24,1.244,1.2386,1.2359,1.2406,1.2433,1.2366,1.2298,1.2271,1.2155,1.1965,1.1904,1.1964,1.1958,1.1884,1.6203,1.5043,1.6203,1.7812,1.9244,1.9203,1.9477,1.9844,1.9634,1.976,1.9898,1.9977,1.9867,1.9519,1.8573,1.8175,1.8465,1.939,2.0415,2.1198,2.262,2.3678,2.4102,2.4155,2.391,2.371,2.3794,2.3754,2.3714,2.3661,2.3674,2.3781,2.3794,2.3625,2.3432,2.334,2.3085,2.2819,2.2741,2.2806,2.2953,2.2913,2.2899,2.2886,2.2873,2.2859,2.2859,2.2779,2.2766,2.2766,2.2766,2.2726,2.278,2.2794,2.2752,2.2605,2.2298,2.1951,2.2031,2.1977,2.1977,2.2124,2.2245,2.2205,2.2285,2.2498,2.2659,2.2378,2.2071,2.1365,2.0234,1.8664,1.7311,1.5937,1.4576,1.3652,1.3161,1.2902,1.2538,1.2461,1.2352,1.2379,1.2574,1.2517,1.2454,1.2454,1.244,1.2427,1.2406,1.2372,1.2359,1.2359,1.24,1.2454,1.2447,1.2454,1.2447,1.2454,1.2447,1.2447,1.2454,1.2467,1.2481,1.2467,1.2501,1.2501,1.2447,1.2379,1.2311,1.2223,1.2128,1.2074,1.2115,1.2033,1.2033,1.606,1.6267,1.6857,1.7577,1.8316,1.8327,1.8384,1.8474,1.8563,1.8563,1.8609,1.8891,1.9005,1.8696,1.7513,1.7457,1.8508,1.9993,2.0919,2.1413,2.2266,2.3053,2.3733,2.3525,2.3181,2.3911,2.4168,2.4302,2.4195,2.3981,2.3888,2.4195,2.4115,2.3898,2.3601,2.3497,2.3235,2.3021,2.2963,2.3161,2.3297,2.322,2.3126,2.3113,2.2953,2.2873,2.2859,2.2859,2.2859,2.2859,2.2859,2.2766,2.2699,2.2726,2.2792,2.2592,2.2565,2.2498,2.2485,2.2325,2.2325,2.2445,2.2605,2.2686,2.2752,2.2953,2.3193,2.322,2.2879,2.1837,2.0281,1.8692,1.6954,1.5472,1.4145,1.3689,1.3078,1.2733,1.2494,1.2501,1.2508,1.2522,1.2535,1.2522,1.2515,1.2508,1.2488,1.2467,1.2461,1.2454,1.2454,1.2467,1.2528,1.2596,1.2569,1.2549,1.2535,1.2528,1.2488,1.2488,1.2488,1.2494,1.2501,1.2501,1.2501,1.2501,1.2494,1.2467,1.24,1.2345,1.2291,1.2237,1.2189,1.2189,1.221,1.6058,1.6747,1.6695,1.703,1.7552,1.7172,1.7078,1.7182,1.7271,1.7261,1.7223,1.7368,1.7614,1.7718,1.7178,1.7599,1.9077,2.0491,2.1459,2.1781,2.1811,2.2358,2.2926,2.2757,2.2905,2.3896,2.4462,2.4629,2.4596,2.4422,2.4369,2.4636,2.4516,2.4248,2.3944,2.3732,2.349,2.3015,2.3073,2.3385,2.3603,2.3447,2.334,2.322,2.306,2.2859,2.2859,2.2859,2.2859,2.2859,2.2859,2.2779,2.2672,2.2752,2.2779,2.2672,2.2699,2.2779,2.2739,2.2659,2.2686,2.2806,2.2993,2.3086,2.3354,2.3474,2.3386,2.3519,2.2977,2.1323,1.9361,1.8225,1.6406,1.4777,1.3431,1.3212,1.3078,1.2793,1.2623,1.2603,1.2603,1.2589,1.2589,1.2576,1.2569,1.2556,1.2535,1.2515,1.2522,1.2535,1.2535,1.2542,1.2617,1.2678,1.2671,1.2644,1.263,1.261,1.2562,1.2528,1.2522,1.2508,1.2501,1.2501,1.2494,1.2454,1.242,1.2461,1.2494,1.244,1.2386,1.2366,1.2338,1.2338,1.2269,1.6338,1.5489,1.5357,1.6241,1.757,1.6216,1.5822,1.6088,1.6206,1.6266,1.6327,1.5971,1.6042,1.6564,1.7539,1.8589,2.0503,2.2022,2.2657,2.2704,2.2418,2.1859,2.2061,2.215,2.2421,2.3153,2.4033,2.4723,2.5037,2.4943,2.4783,2.469,2.481,2.4419,2.402,2.3718,2.3476,2.3184,2.3181,2.3458,2.3638,2.3594,2.342,2.3327,2.3086,2.2928,2.2873,2.2953,2.2939,2.2939,2.2939,2.2873,2.2806,2.2832,2.2806,2.2806,2.2806,2.2886,2.2886,2.2846,2.2777,2.2939,2.3001,2.3082,2.3353,2.3805,2.3819,2.313,2.2485,2.0665,1.8686,1.7039,1.5581,1.4235,1.3197,1.3154,1.303,1.2999,1.282,1.2745,1.2712,1.2718,1.2712,1.2712,1.2718,1.2712,1.2664,1.2637,1.2617,1.2623,1.2603,1.2617,1.2698,1.2739,1.2752,1.2759,1.2807,1.2739,1.2657,1.2596,1.2549,1.2528,1.2454,1.2467,1.2447,1.24,1.2366,1.2393,1.2433,1.2481,1.2481,1.244,1.2433,1.2427,1.2286,1.4468,1.4156,1.3966,1.4444,1.5214,1.4596,1.4371,1.4701,1.5542,1.6037,1.6009,1.4875,1.5301,1.6846,1.7619,1.9377,2.1742,2.25,2.2782,2.2139,2.1184,2.0605,2.0604,2.0605,2.0604,2.2466,2.3552,2.4365,2.5015,2.5264,2.5157,2.505,2.509,2.4655,2.4252,2.3529,2.3216,2.3403,2.3359,2.3572,2.4103,2.4035,2.3861,2.3834,2.3581,2.3434,2.3434,2.3434,2.3313,2.3193,2.3153,2.3033,2.2913,2.2886,2.2859,2.2859,2.2859,2.2802,2.2921,2.2855,2.2582,2.1747,2.1845,2.2253,2.2739,2.2818,2.2805,2.2253,2.1639,1.9994,1.7285,1.6078,1.5031,1.3684,1.3127,1.3082,1.3063,1.3118,1.2983,1.2888,1.2874,1.2874,1.2874,1.2868,1.2874,1.2868,1.2813,1.2766,1.2739,1.2739,1.2739,1.2752,1.2827,1.2874,1.2888,1.2935,1.2996,1.2881,1.2759,1.2684,1.261,1.2413,1.2359,1.2386,1.2379,1.2298,1.2271,1.2311,1.2338,1.2352,1.242,1.2494,1.2494,1.2501,1.2269,1.3124,1.3271,1.3206,1.3352,1.362,1.3518,1.3595,1.3784,1.4815,1.5237,1.5168,1.3888,1.4804,1.6997,1.7843,1.9264,2.1359,2.221,2.1897,2.1031,1.9833,1.9239,1.906,1.9173,1.9755,2.1859,2.3104,2.3868,2.5424,2.5571,2.5518,2.5424,2.5205,2.4879,2.4213,2.2983,2.2443,2.2782,2.2433,2.2916,2.3567,2.3619,2.3878,2.3859,2.3713,2.343,2.3403,2.339,2.3408,2.3333,2.3213,2.3207,2.306,2.2995,2.2873,2.2791,2.2556,2.2384,2.2471,2.2421,2.1765,2.0769,2.0654,2.1001,2.1349,2.1422,2.1417,2.1167,2.0526,1.9081,1.6219,1.5486,1.4772,1.3644,1.3192,1.3138,1.3247,1.3234,1.3132,1.3037,1.303,1.3024,1.3057,1.3051,1.301,1.3037,1.3071,1.2976,1.2861,1.2874,1.2922,1.2942,1.2983,1.3017,1.3051,1.3112,1.3146,1.3024,1.2901,1.2793,1.2671,1.2461,1.2352,1.2427,1.2379,1.2216,1.223,1.2332,1.2277,1.2189,1.2318,1.2488,1.2501,1.2501,1.2114,1.2962,1.3116,1.3287,1.3465,1.355,1.3457,1.349,1.3582,1.3869,1.388,1.3603,1.2968,1.4324,1.6693,1.7176,1.8627,2.0367,2.1195,2.1003,1.9775,1.8795,1.8112,1.7948,1.8149,1.8795,2.0924,2.2268,2.3761,2.5697,2.5905,2.5905,2.5646,2.527,2.479,2.4437,2.2122,2.1042,2.0845,1.9923,2.0891,2.187,2.2301,2.3067,2.3387,2.3666,2.3458,2.3241,2.3235,2.3314,2.3197,2.3227,2.3223,2.3117,2.2961,2.2786,2.2553,2.1477,2.0962,2.0874,2.1126,2.0497,1.9558,1.934,1.9661,2.0026,2.0117,1.9918,1.9559,1.9174,1.7915,1.6418,1.5305,1.4393,1.3814,1.3356,1.3193,1.3308,1.3356,1.3247,1.3186,1.3173,1.318,1.322,1.3234,1.3173,1.3193,1.3288,1.3207,1.301,1.2949,1.2983,1.2963,1.2983,1.3078,1.3119,1.3268,1.3288,1.3166,1.3024,1.2881,1.2718,1.2515,1.2467,1.2501,1.2366,1.2196,1.2277,1.2386,1.2318,1.2277,1.2352,1.2467,1.2488,1.2269,1.1876,1.3116,1.3287,1.3344,1.3474,1.3558,1.3587,1.3595,1.3598,1.3531,1.3325,1.2968,1.2545,1.3475,1.5202,1.6174,1.7292,1.9033,1.9656,1.9478,1.875,1.7999,1.7351,1.7001,1.7008,1.7792,1.9402,2.1162,2.2814,2.4177,2.5453,2.5844,2.5557,2.4809,2.4001,2.2896,2.1304,2.0564,1.9689,1.9341,1.9709,2.0646,2.1662,2.2489,2.2794,2.3354,2.3548,2.314,2.3174,2.3241,2.3088,2.3053,2.2865,2.2724,2.2505,2.1998,2.142,2.0437,1.9836,1.9021,1.8533,1.8526,1.8085,1.8003,1.8288,1.8709,1.8651,1.8328,1.7941,1.7629,1.6282,1.4638,1.4061,1.3479,1.3583,1.3329,1.3336,1.339,1.339,1.3349,1.3336,1.3322,1.3308,1.3329,1.3329,1.3275,1.3227,1.3288,1.3207,1.303,1.2963,1.2949,1.2888,1.2901,1.3044,1.3166,1.3315,1.3308,1.3152,1.3024,1.2895,1.2725,1.2603,1.2535,1.2556,1.2366,1.2196,1.2332,1.244,1.2413,1.2413,1.2494,1.2501,1.2488,1.203,1.1256,1.3197,1.3376,1.3441,1.353,1.3574,1.3709,1.372,1.3634,1.3529,1.3214,1.2787,1.2503,1.3202,1.4383,1.5216,1.5907,1.7663,1.8283,1.8058,1.7485,1.7253,1.6721,1.6213,1.6122,1.7229,1.8626,2.0312,2.2076,2.3812,2.549,2.5398,2.4464,2.3884,2.1981,2.0625,1.9453,1.9233,1.8148,1.7432,1.7538,1.8608,1.9717,2.0687,2.1346,2.2128,2.2894,2.2858,2.2964,2.3292,2.2992,2.2596,2.2215,2.1873,2.1125,2.05,1.9681,1.899,1.8164,1.6858,1.673,1.6784,1.6522,1.6602,1.6895,1.7234,1.7199,1.7008,1.6588,1.6253,1.5221,1.4024,1.3528,1.3445,1.3464,1.3431,1.3431,1.3464,1.3471,1.341,1.3403,1.3397,1.3397,1.3397,1.3397,1.3363,1.3315,1.3275,1.3173,1.3091,1.3044,1.3003,1.2969,1.2976,1.3132,1.3261,1.337,1.3308,1.3146,1.3057,1.299,1.2915,1.282,1.2712,1.263,1.2583,1.2535,1.2474,1.2494,1.2583,1.2623,1.2657,1.2623,1.2528,1.2057,1.137,1.3222,1.3392,1.3571,1.3582,1.3615,1.3855,1.3898,1.3823,1.3765,1.3304,1.2568,1.254,1.3067,1.4069,1.4794,1.5387,1.6017,1.6859,1.666,1.633,1.6301,1.6082,1.6024,1.6048,1.6854,1.8381,1.9917,2.12,2.3472,2.4277,2.3932,2.2901,2.2192,2.0344,1.8683,1.8218,1.7865,1.6368,1.5533,1.582,1.6683,1.7342,1.8333,1.9214,2.0269,2.1012,2.1357,2.1831,2.2536,2.2345,2.1592,2.09,1.9996,1.8717,1.8049,1.7487,1.7058,1.5932,1.5343,1.5565,1.5806,1.5827,1.585,1.5901,1.6023,1.626,1.618,1.5867,1.5479,1.4923,1.4185,1.3923,1.365,1.3546,1.3485,1.3512,1.3559,1.3532,1.3451,1.3417,1.3403,1.3403,1.3397,1.3397,1.3397,1.337,1.3329,1.3308,1.3227,1.3173,1.3146,1.3152,1.3186,1.3281,1.337,1.3376,1.3329,1.3166,1.322,1.3173,1.3105,1.2996,1.2874,1.282,1.2901,1.2954,1.2739,1.2759,1.2868,1.2881,1.282,1.2773,1.2691,1.2637,1.2083,1.3514,1.3579,1.3758,1.3823,1.3872,1.4148,1.4122,1.3839,1.355,1.3103,1.2657,1.2359,1.266,1.2896,1.3385,1.4107,1.4751,1.5321,1.5779,1.5796,1.5909,1.595,1.5966,1.6048,1.6451,1.7255,1.8472,1.9846,2.0282,2.1584,2.2111,2.0929,2.0372,1.8836,1.8238,1.8357,1.6518,1.5172,1.4261,1.4577,1.5306,1.6139,1.6833,1.7593,1.8724,1.9423,2.0321,1.9902,2.0369,2.0725,1.9413,1.8571,1.82,1.7679,1.7312,1.6298,1.5351,1.4426,1.4733,1.5041,1.5408,1.5699,1.5886,1.5853,1.5845,1.5869,1.5803,1.5569,1.5233,1.4817,1.4383,1.4133,1.3851,1.3668,1.3614,1.362,1.3654,1.3593,1.3519,1.3498,1.3485,1.3444,1.3437,1.3397,1.3397,1.339,1.3383,1.337,1.3342,1.3281,1.3247,1.3254,1.3247,1.3295,1.3275,1.3275,1.3254,1.3227,1.3295,1.3281,1.3125,1.3024,1.2983,1.307,1.3044,1.301,1.3009,1.2983,1.3051,1.307,1.2929,1.2895,1.2861,1.2807,1.1969,1.3615,1.3758,1.3855,1.3945,1.4066,1.4391,1.4396,1.418,1.3792,1.3446,1.3069,1.2698,1.2519,1.2665,1.2845,1.3204,1.3833,1.4479,1.4984,1.5416,1.5909,1.595,1.5966,1.5966,1.6048,1.6607,1.7501,1.887,1.8793,1.9478,2.0196,1.903,1.8445,1.7626,1.6843,1.6249,1.5577,1.4678,1.4285,1.4333,1.4727,1.5218,1.5384,1.5924,1.7069,1.8176,1.8894,1.7812,1.8651,1.9071,1.7704,1.6825,1.6441,1.6018,1.5549,1.4623,1.4479,1.4209,1.4557,1.5193,1.5495,1.5865,1.6095,1.6194,1.6089,1.6056,1.5924,1.5806,1.5415,1.5044,1.4645,1.4309,1.4103,1.3804,1.3777,1.3749,1.3709,1.3661,1.3627,1.3607,1.3573,1.3519,1.3478,1.3437,1.3424,1.3464,1.3444,1.339,1.337,1.3329,1.3302,1.3295,1.3261,1.3254,1.3234,1.3261,1.3302,1.3349,1.3417,1.3363,1.3173,1.3139,1.3166,1.3166,1.3159,1.3132,1.3119,1.3146,1.318,1.3125,1.3125,1.3139,1.3085,1.2969,1.1807,1.3758,1.3896,1.3904,1.4002,1.4213,1.4521,1.4659,1.4641,1.4481,1.4199,1.3722,1.3344,1.3105,1.2979,1.2916,1.2958,1.3555,1.4127,1.4743,1.5017,1.5747,1.5958,1.5966,1.5966,1.5966,1.6525,1.7191,1.7873,1.8486,1.8699,1.8352,1.7354,1.6836,1.6183,1.5408,1.5268,1.509,1.5023,1.5133,1.5348,1.407,1.3725,1.3641,1.4035,1.4976,1.6057,1.6383,1.7071,1.8124,1.744,1.6552,1.5538,1.4875,1.4214,1.3594,1.358,1.3802,1.4123,1.4579,1.5133,1.5647,1.6034,1.6337,1.6434,1.6381,1.6259,1.6184,1.5957,1.5577,1.5155,1.4834,1.4622,1.4407,1.4177,1.4084,1.3991,1.3899,1.3838,1.3783,1.3749,1.3688,1.3641,1.3627,1.36,1.3593,1.36,1.358,1.3505,1.3471,1.3444,1.339,1.337,1.3322,1.3308,1.3342,1.3376,1.3424,1.3478,1.3512,1.3471,1.3302,1.3315,1.3383,1.3336,1.3275,1.3322,1.3336,1.3349,1.3363,1.3383,1.339,1.341,1.3336,1.3214,1.1586,1.3863,1.3904,1.3904,1.401,1.4188,1.4408,1.4497,1.4529,1.4762,1.4584,1.4207,1.3752,1.3416,1.3255,1.312,1.3204,1.3596,1.4055,1.4718,1.5194,1.5761,1.5958,1.5966,1.5966,1.5974,1.613,1.6485,1.6859,1.6885,1.6848,1.6403,1.5605,1.5271,1.4974,1.5444,1.5403,1.5425,1.5272,1.563,1.5406,1.4074,1.3797,1.3783,1.3828,1.44,1.5044,1.521,1.5058,1.5763,1.5748,1.4607,1.3893,1.3523,1.3226,1.3213,1.3309,1.3693,1.4041,1.4501,1.513,1.5658,1.609,1.6419,1.6604,1.66,1.6503,1.6293,1.6071,1.5694,1.5358,1.5088,1.4952,1.4815,1.4569,1.4308,1.4235,1.4169,1.4021,1.3946,1.3878,1.381,1.379,1.3777,1.3763,1.377,1.377,1.3777,1.3743,1.3715,1.3682,1.3546,1.3498,1.341,1.3397,1.3437,1.3437,1.3464,1.3471,1.3485,1.3451,1.3424,1.3464,1.3498,1.3424,1.3383,1.3458,1.3512,1.3519,1.3546,1.3573,1.3607,1.3607,1.362,1.3526,1.1426,1.3904,1.3912,1.3993,1.4034,1.4099,1.4326,1.4432,1.4481,1.4732,1.4818,1.4584,1.4214,1.3796,1.344,1.3404,1.3275,1.35,1.3937,1.4401,1.4914,1.5522,1.5793,1.5883,1.5974,1.6121,1.6137,1.6176,1.6253,1.5825,1.5613,1.5364,1.4799,1.4555,1.4745,1.5594,1.567,1.5677,1.5444,1.5677,1.5046,1.4014,1.3987,1.3953,1.3905,1.3988,1.4471,1.4308,1.3993,1.4271,1.457,1.3887,1.3555,1.3398,1.3323,1.3308,1.3464,1.3787,1.4032,1.4433,1.5061,1.5608,1.603,1.6617,1.6806,1.6893,1.6812,1.6738,1.6411,1.6098,1.565,1.5685,1.5563,1.5381,1.5249,1.4833,1.4629,1.4373,1.4177,1.4082,1.3987,1.3946,1.3946,1.3912,1.3831,1.3844,1.3905,1.3919,1.3865,1.3858,1.3899,1.3763,1.3654,1.3587,1.3519,1.3532,1.3498,1.3451,1.3458,1.3505,1.3559,1.3607,1.3607,1.36,1.3573,1.3573,1.362,1.3661,1.3675,1.3695,1.3722,1.3756,1.379,1.3797,1.3705,1.2162,1.3904,1.3928,1.4066,1.4083,1.4018,1.427,1.4424,1.4497,1.4643,1.4797,1.4843,1.4499,1.4137,1.3749,1.3525,1.3126,1.3099,1.3658,1.415,1.4653,1.517,1.562,1.5891,1.6081,1.6202,1.6273,1.6418,1.6135,1.5786,1.5421,1.509,1.4748,1.4555,1.438,1.4387,1.438,1.4516,1.459,1.4611,1.4455,1.4231,1.4177,1.4122,1.4048,1.3953,1.381,1.3763,1.3736,1.3749,1.3682,1.3677,1.3505,1.3451,1.3424,1.3478,1.3627,1.3899,1.4061,1.4412,1.5116,1.5513,1.5956,1.6632,1.6961,1.7048,1.7096,1.6943,1.6776,1.6372,1.6135,1.6076,1.6176,1.6001,1.5676,1.5329,1.4903,1.4646,1.4394,1.4217,1.4109,1.4095,1.4095,1.4041,1.3953,1.3966,1.4027,1.4021,1.3953,1.3926,1.4,1.3987,1.3892,1.3817,1.3756,1.3702,1.3648,1.3607,1.3648,1.3715,1.3756,1.3691,1.3743,1.3736,1.3777,1.379,1.3783,1.3804,1.3824,1.3844,1.3878,1.3953,1.3994,1.3933,1.3747,1.3191,1.3904,1.3904,1.3945,1.4083,1.4286,1.4261,1.4383,1.4635,1.4684,1.4732,1.4738,1.4552,1.4191,1.3938,1.3889,1.3605,1.3192,1.358,1.4081,1.4676,1.511,1.5538,1.5948,1.6251,1.6373,1.6442,1.6347,1.5909,1.5681,1.5293,1.503,1.4949,1.4516,1.4476,1.4822,1.4646,1.4387,1.4387,1.4299,1.4299,1.4299,1.4265,1.4265,1.4197,1.4109,1.4034,1.3973,1.3885,1.3838,1.3777,1.3715,1.3654,1.3614,1.36,1.3641,1.3783,1.4061,1.4177,1.4557,1.5095,1.5488,1.5816,1.641,1.696,1.7048,1.7315,1.7137,1.7016,1.6617,1.6267,1.6271,1.6437,1.6425,1.5942,1.5521,1.5233,1.496,1.4633,1.4442,1.4278,1.4224,1.4224,1.4217,1.417,1.417,1.4204,1.4204,1.4143,1.4129,1.4163,1.4177,1.4116,1.4034,1.4027,1.3987,1.3899,1.3865,1.3899,1.3912,1.3926,1.3905,1.3752,1.3759,1.3933,1.3912,1.3885,1.3912,1.3987,1.4027,1.4075,1.417,1.4204,1.4129,1.3995,1.3559]}]]